Time,TemperatureF,DewpointF,PressureIn,WindDirection,WindDirectionDegrees,WindSpeedMPH,WindSpeedGustMPH,Humidity,HourlyPrecipIn,Conditions,Clouds,dailyrainin,SoftwareType,DateUTC
2013-02-01 00:00:00,22.4,11.4,30.48,NNW,333,12.0,13.0,62,0.00,,---,0.00,VWS V14.00,2013-02-01 06:00:00,
2013-02-01 00:01:00,22.4,11.7,30.48,NNW,333,5.0,11.0,63,0.00,,---,0.00,VWS V14.00,2013-02-01 06:01:00,
2013-02-01 00:02:00,22.5,11.8,30.48,NNW,328,8.0,13.0,63,0.00,,---,0.00,VWS V14.00,2013-02-01 06:02:00,
2013-02-01 00:03:00,22.4,11.4,30.48,NW,322,9.0,13.0,62,0.00,,---,0.00,VWS V14.00,2013-02-01 06:03:00,
2013-02-01 00:04:00,22.4,11.4,30.48,NW,321,10.0,12.0,62,0.00,,---,0.00,VWS V14.00,2013-02-01 06:04:00,
2013-02-01 00:05:00,22.4,11.4,30.48,NW,325,7.0,11.0,62,0.00,,---,0.00,VWS V14.00,2013-02-01 06:05:00,
2013-02-01 00:06:00,22.4,11.7,30.48,NW,323,12.0,12.0,63,0.00,,---,0.00,VWS V14.00,2013-02-01 06:06:00,
2013-02-01 00:07:00,22.4,11.4,30.48,NW,325,10.0,12.0,62,0.00,,---,0.00,VWS V14.00,2013-02-01 06:07:00,
2013-02-01 00:08:00,22.4,11.7,30.48,NW,325,4.0,11.0,63,0.00,,---,0.00,VWS V14.00,2013-02-01 06:08:00,
2013-02-01 00:09:00,22.4,11.7,30.48,NW,325,7.0,10.0,63,0.00,,---,0.00,VWS V14.00,2013-02-01 06:09:00,
2013-02-01 00:10:00,22.2,11.2,30.48,NW,321,4.0,5.0,62,0.00,,---,0.00,VWS V14.00,2013-02-01 06:10:00,
2013-02-01 00:11:00,22.4,11.4,30.48,NW,321,6.0,9.0,62,0.00,,---,0.00,VWS V14.00,2013-02-01 06:11:00,
2013-02-01 00:12:00,22.4,11.4,30.48,NW,321,5.0,7.0,62,0.00,,---,0.00,VWS V14.00,2013-02-01 06:12:00,
2013-02-01 00:13:00,22.4,11.7,30.48,NW,321,7.0,7.0,63,0.00,,---,0.00,VWS V14.00,2013-02-01 06:13:00,
2013-02-01 00:14:00,22.2,11.5,30.48,NW,321,5.0,9.0,63,0.00,,---,0.00,VWS V14.00,2013-02-01 06:14:00,
2013-02-01 00:15:00,22.2,11.2,30.49,NNW,327,6.0,10.0,62,0.00,,---,0.00,VWS V14.00,2013-02-01 06:15:00,
2013-02-01 00:16:00,22.2,11.5,30.49,NW,321,7.0,11.0,63,0.00,,---,0.00,VWS V14.00,2013-02-01 06:16:00,
2013-02-01 00:17:00,22.2,11.2,30.49,NNW,327,10.0,11.0,62,0.00,,---,0.00,VWS V14.00,2013-02-01 06:17:00,
2013-02-01 00:18:00,22.2,11.2,30.49,NNW,327,7.0,10.0,62,0.00,,---,0.00,VWS V14.00,2013-02-01 06:18:00,
2013-02-01 00:19:00,22.2,11.5,30.48,NNW,327,6.0,7.0,63,0.00,,---,0.00,VWS V14.00,2013-02-01 06:19:00,
2013-02-01 00:20:00,22.2,11.5,30.48,NNW,330,6.0,8.0,63,0.00,,---,0.00,VWS V14.00,2013-02-01 06:20:00,
2013-02-01 00:21:00,22.2,11.2,30.48,NNW,333,6.0,11.0,62,0.00,,---,0.00,VWS V14.00,2013-02-01 06:21:00,
2013-02-01 00:22:00,22.2,11.5,30.48,NNW,331,6.0,7.0,63,0.00,,---,0.00,VWS V14.00,2013-02-01 06:22:00,
2013-02-01 00:23:00,22.2,11.2,30.48,NNW,330,6.0,9.0,62,0.00,,---,0.00,VWS V14.00,2013-02-01 06:23:00,
2013-02-01 00:24:00,22.2,11.2,30.48,NNW,329,3.0,9.0,62,0.00,,---,0.00,VWS V14.00,2013-02-01 06:24:00,
2013-02-01 00:25:00,22.1,11.8,30.49,NNW,329,4.0,6.0,64,0.00,,---,0.00,VWS V14.00,2013-02-01 06:25:00,
2013-02-01 00:26:00,22.1,11.4,30.49,NNW,329,7.0,10.0,63,0.00,,---,0.00,VWS V14.00,2013-02-01 06:26:00,
2013-02-01 00:27:00,22.1,11.4,30.49,NNW,329,4.0,7.0,63,0.00,,---,0.00,VWS V14.00,2013-02-01 06:27:00,
2013-02-01 00:28:00,22.1,11.8,30.49,NNW,329,5.0,6.0,64,0.00,,---,0.00,VWS V14.00,2013-02-01 06:28:00,
2013-02-01 00:29:00,21.9,11.2,30.49,NNW,329,4.0,9.0,63,0.00,,---,0.00,VWS V14.00,2013-02-01 06:29:00,
2013-02-01 00:30:00,21.9,11.6,30.49,NNW,328,6.0,7.0,64,0.00,,---,0.00,VWS V14.00,2013-02-01 06:30:00,
2013-02-01 00:31:00,21.9,11.2,30.49,NNW,329,6.0,6.0,63,0.00,,---,0.00,VWS V14.00,2013-02-01 06:31:00,
2013-02-01 00:32:00,21.9,11.6,30.48,NNW,328,7.0,9.0,64,0.00,,---,0.00,VWS V14.00,2013-02-01 06:32:00,
2013-02-01 00:33:00,21.9,11.6,30.49,NNW,327,7.0,7.0,64,0.00,,---,0.00,VWS V14.00,2013-02-01 06:33:00,
2013-02-01 00:34:00,21.9,11.6,30.49,NW,325,9.0,11.0,64,0.00,,---,0.00,VWS V14.00,2013-02-01 06:34:00,
2013-02-01 00:35:00,21.8,11.5,30.49,NW,326,4.0,7.0,64,0.00,,---,0.00,VWS V14.00,2013-02-01 06:35:00,
2013-02-01 00:36:00,21.8,11.2,30.49,NW,326,5.0,6.0,63,0.00,,---,0.00,VWS V14.00,2013-02-01 06:36:00,
2013-02-01 00:37:00,21.8,11.2,30.49,NW,326,7.0,7.0,63,0.00,,---,0.00,VWS V14.00,2013-02-01 06:37:00,
2013-02-01 00:38:00,21.8,11.5,30.49,NW,325,6.0,7.0,64,0.00,,---,0.00,VWS V14.00,2013-02-01 06:38:00,
2013-02-01 00:39:00,21.8,11.5,30.48,NW,326,5.0,7.0,64,0.00,,---,0.00,VWS V14.00,2013-02-01 06:39:00,
2013-02-01 00:40:00,21.6,11.3,30.48,NW,325,6.0,7.0,64,0.00,,---,0.00,VWS V14.00,2013-02-01 06:40:00,
2013-02-01 00:41:00,21.8,11.9,30.48,NW,325,7.0,7.0,65,0.00,,---,0.00,VWS V14.00,2013-02-01 06:41:00,
2013-02-01 00:42:00,21.6,11.3,30.48,NW,325,7.0,7.0,64,0.00,,---,0.00,VWS V14.00,2013-02-01 06:42:00,
2013-02-01 00:43:00,21.6,11.0,30.48,NW,325,6.0,7.0,63,0.00,,---,0.00,VWS V14.00,2013-02-01 06:43:00,
2013-02-01 00:44:00,21.6,11.3,30.48,NW,324,6.0,9.0,64,0.00,,---,0.00,VWS V14.00,2013-02-01 06:44:00,
2013-02-01 00:45:00,21.6,11.7,30.48,NW,324,9.0,9.0,65,0.00,,---,0.00,VWS V14.00,2013-02-01 06:45:00,
2013-02-01 00:46:00,21.6,11.7,30.48,NW,325,7.0,7.0,65,0.00,,---,0.00,VWS V14.00,2013-02-01 06:46:00,
2013-02-01 00:47:00,21.6,11.7,30.48,NW,324,5.0,9.0,65,0.00,,---,0.00,VWS V14.00,2013-02-01 06:47:00,
2013-02-01 00:48:00,21.6,11.7,30.48,NW,325,7.0,11.0,65,0.00,,---,0.00,VWS V14.00,2013-02-01 06:48:00,
2013-02-01 00:49:00,21.4,11.1,30.48,NW,325,7.0,13.0,64,0.00,,---,0.00,VWS V14.00,2013-02-01 06:49:00,
2013-02-01 00:50:00,21.4,11.5,30.48,NW,325,4.0,7.0,65,0.00,,---,0.00,VWS V14.00,2013-02-01 06:50:00,
2013-02-01 00:51:00,21.4,11.1,30.48,NW,325,5.0,6.0,64,0.00,,---,0.00,VWS V14.00,2013-02-01 06:51:00,
2013-02-01 00:52:00,21.4,11.5,30.48,NW,325,7.0,10.0,65,0.00,,---,0.00,VWS V14.00,2013-02-01 06:52:00,
2013-02-01 00:53:00,21.4,11.5,30.48,NW,325,6.0,7.0,65,0.00,,---,0.00,VWS V14.00,2013-02-01 06:53:00,
2013-02-01 00:54:00,21.4,11.5,30.47,NW,325,6.0,6.0,65,0.00,,---,0.00,VWS V14.00,2013-02-01 06:54:00,
2013-02-01 00:55:00,21.4,11.5,30.48,NW,325,6.0,9.0,65,0.00,,---,0.00,VWS V14.00,2013-02-01 06:55:00,
2013-02-01 00:56:00,21.4,11.8,30.48,NW,325,5.0,7.0,66,0.00,,---,0.00,VWS V14.00,2013-02-01 06:56:00,
2013-02-01 00:57:00,21.4,11.8,30.48,NW,325,4.0,7.0,66,0.00,,---,0.00,VWS V14.00,2013-02-01 06:57:00,
2013-02-01 00:58:00,21.4,11.5,30.48,NW,326,8.0,9.0,65,0.00,,---,0.00,VWS V14.00,2013-02-01 06:58:00,
2013-02-01 00:59:00,21.3,11.4,30.48,NW,326,5.0,9.0,65,0.00,,---,0.00,VWS V14.00,2013-02-01 06:59:00,
2013-02-01 01:00:00,21.4,12.2,30.48,NNW,327,8.0,8.0,67,0.00,,---,0.00,VWS V14.00,2013-02-01 07:00:00,
2013-02-01 01:01:00,21.4,12.2,30.48,NW,326,6.0,6.0,67,0.00,,---,0.00,VWS V14.00,2013-02-01 07:01:00,
2013-02-01 01:02:00,21.4,12.2,30.48,NNW,327,7.0,11.0,67,0.00,,---,0.00,VWS V14.00,2013-02-01 07:02:00,
2013-02-01 01:03:00,21.4,12.2,30.48,NNW,328,3.0,10.0,67,0.00,,---,0.00,VWS V14.00,2013-02-01 07:03:00,
2013-02-01 01:04:00,21.4,11.8,30.48,NNW,328,7.0,9.0,66,0.00,,---,0.00,VWS V14.00,2013-02-01 07:04:00,
2013-02-01 01:05:00,21.3,11.7,30.48,NNW,329,5.0,7.0,66,0.00,,---,0.00,VWS V14.00,2013-02-01 07:05:00,
2013-02-01 01:06:00,21.4,11.8,30.48,NNW,329,3.0,7.0,66,0.00,,---,0.00,VWS V14.00,2013-02-01 07:06:00,
2013-02-01 01:07:00,21.3,11.7,30.48,NNW,329,7.0,9.0,66,0.00,,---,0.00,VWS V14.00,2013-02-01 07:07:00,
2013-02-01 01:08:00,21.3,11.7,30.48,NNW,329,9.0,10.0,66,0.00,,---,0.00,VWS V14.00,2013-02-01 07:08:00,
2013-02-01 01:09:00,21.3,12.1,30.48,NNW,329,10.0,10.0,67,0.00,,---,0.00,VWS V14.00,2013-02-01 07:09:00,
2013-02-01 01:10:00,21.3,11.7,30.48,NNW,329,5.0,7.0,66,0.00,,---,0.00,VWS V14.00,2013-02-01 07:10:00,
2013-02-01 01:11:00,21.3,12.1,30.48,NNW,329,5.0,7.0,67,0.00,,---,0.00,VWS V14.00,2013-02-01 07:11:00,
2013-02-01 01:12:00,21.3,11.7,30.48,NNW,329,6.0,6.0,66,0.00,,---,0.00,VWS V14.00,2013-02-01 07:12:00,
2013-02-01 01:13:00,21.3,12.1,30.47,NNW,329,3.0,9.0,67,0.00,,---,0.00,VWS V14.00,2013-02-01 07:13:00,
2013-02-01 01:14:00,21.3,11.7,30.47,NNW,331,5.0,7.0,66,0.00,,---,0.00,VWS V14.00,2013-02-01 07:14:00,
2013-02-01 01:15:00,21.1,11.5,30.48,NNW,340,4.0,6.0,66,0.00,,---,0.00,VWS V14.00,2013-02-01 07:15:00,
2013-02-01 01:16:00,21.1,11.2,30.48,North,355,12.0,13.0,65,0.00,,---,0.00,VWS V14.00,2013-02-01 07:16:00,
2013-02-01 01:17:00,21.1,11.5,30.48,NNW,342,6.0,13.0,66,0.00,,---,0.00,VWS V14.00,2013-02-01 07:17:00,
2013-02-01 01:18:00,21.1,11.5,30.48,NNW,342,4.0,6.0,66,0.00,,---,0.00,VWS V14.00,2013-02-01 07:18:00,
2013-02-01 01:19:00,21.1,11.5,30.47,NNW,338,7.0,7.0,66,0.00,,---,0.00,VWS V14.00,2013-02-01 07:19:00,
2013-02-01 01:20:00,21.1,11.5,30.47,NNW,342,8.0,9.0,66,0.00,,---,0.00,VWS V14.00,2013-02-01 07:20:00,
2013-02-01 01:21:00,21.1,11.5,30.47,NNW,342,5.0,8.0,66,0.00,,---,0.00,VWS V14.00,2013-02-01 07:21:00,
2013-02-01 01:22:00,21.1,11.5,30.47,NNW,342,5.0,8.0,66,0.00,,---,0.00,VWS V14.00,2013-02-01 07:22:00,
2013-02-01 01:23:00,21.0,11.1,30.47,NNW,342,4.0,9.0,65,0.00,,---,0.00,VWS V14.00,2013-02-01 07:23:00,
2013-02-01 01:24:00,21.0,11.4,30.47,NNW,342,4.0,6.0,66,0.00,,---,0.00,VWS V14.00,2013-02-01 07:24:00,
2013-02-01 01:25:00,20.8,11.2,30.48,NNW,342,3.0,5.0,66,0.00,,---,0.00,VWS V14.00,2013-02-01 07:25:00,
2013-02-01 01:26:00,20.8,10.9,30.48,NNW,342,0.0,7.0,65,0.00,,---,0.00,VWS V14.00,2013-02-01 07:26:00,
2013-02-01 01:27:00,20.8,11.2,30.48,NNW,342,4.0,5.0,66,0.00,,---,0.00,VWS V14.00,2013-02-01 07:27:00,
2013-02-01 01:28:00,20.8,10.9,30.48,NNW,342,2.0,5.0,65,0.00,,---,0.00,VWS V14.00,2013-02-01 07:28:00,
2013-02-01 01:29:00,20.8,10.9,30.48,NNW,343,6.0,9.0,65,0.00,,---,0.00,VWS V14.00,2013-02-01 07:29:00,
2013-02-01 01:30:00,20.5,11.3,30.48,NNW,348,5.0,5.0,67,0.00,,---,0.00,VWS V14.00,2013-02-01 07:30:00,
2013-02-01 01:31:00,20.6,11.7,30.48,NNW,343,4.0,5.0,68,0.00,,---,0.00,VWS V14.00,2013-02-01 07:31:00,
2013-02-01 01:32:00,20.6,11.7,30.48,NNW,348,3.0,10.0,68,0.00,,---,0.00,VWS V14.00,2013-02-01 07:32:00,
2013-02-01 01:33:00,20.5,11.0,30.48,NNW,348,3.0,6.0,66,0.00,,---,0.00,VWS V14.00,2013-02-01 07:33:00,
2013-02-01 01:34:00,20.5,11.0,30.48,NNW,348,3.0,5.0,66,0.00,,---,0.00,VWS V14.00,2013-02-01 07:34:00,
2013-02-01 01:35:00,20.3,10.8,30.48,North,355,2.0,3.0,66,0.00,,---,0.00,VWS V14.00,2013-02-01 07:35:00,
2013-02-01 01:36:00,20.5,11.0,30.48,North,355,11.0,12.0,66,0.00,,---,0.00,VWS V14.00,2013-02-01 07:36:00,
2013-02-01 01:37:00,20.3,10.8,30.48,North,355,3.0,11.0,66,0.00,,---,0.00,VWS V14.00,2013-02-01 07:37:00,
2013-02-01 01:38:00,20.3,10.8,30.48,NNE,26,10.0,13.0,66,0.00,,---,0.00,VWS V14.00,2013-02-01 07:38:00,
2013-02-01 01:39:00,20.2,9.6,30.48,North,5,5.0,14.0,63,0.00,,---,0.00,VWS V14.00,2013-02-01 07:39:00,
2013-02-01 01:40:00,20.0,8.7,30.48,North,360,7.0,16.0,61,0.00,,---,0.00,VWS V14.00,2013-02-01 07:40:00,
2013-02-01 01:41:00,20.2,9.3,30.48,NNW,332,11.0,18.0,62,0.00,,---,0.00,VWS V14.00,2013-02-01 07:41:00,
2013-02-01 01:42:00,20.0,8.7,30.48,NNW,332,9.0,18.0,61,0.00,,---,0.00,VWS V14.00,2013-02-01 07:42:00,
2013-02-01 01:43:00,20.0,8.4,30.48,North,351,8.0,16.0,60,0.00,,---,0.00,VWS V14.00,2013-02-01 07:43:00,
2013-02-01 01:44:00,20.0,8.7,30.48,NNW,331,9.0,10.0,61,0.00,,---,0.00,VWS V14.00,2013-02-01 07:44:00,
2013-02-01 01:45:00,19.9,9.0,30.48,North,351,8.0,8.0,62,0.00,,---,0.00,VWS V14.00,2013-02-01 07:45:00,
2013-02-01 01:46:00,20.0,9.1,30.48,NW,325,14.0,14.0,62,0.00,,---,0.00,VWS V14.00,2013-02-01 07:46:00,
2013-02-01 01:47:00,19.9,9.0,30.48,North,351,3.0,14.0,62,0.00,,---,0.00,VWS V14.00,2013-02-01 07:47:00,
2013-02-01 01:48:00,20.0,9.4,30.48,NNW,329,12.0,12.0,63,0.00,,---,0.00,VWS V14.00,2013-02-01 07:48:00,
2013-02-01 01:49:00,20.0,9.1,30.48,NW,319,12.0,12.0,62,0.00,,---,0.00,VWS V14.00,2013-02-01 07:49:00,
2013-02-01 01:50:00,19.9,8.3,30.47,NNW,338,3.0,6.0,60,0.00,,---,0.00,VWS V14.00,2013-02-01 07:50:00,
2013-02-01 01:51:00,19.9,8.3,30.47,NNW,345,5.0,13.0,60,0.00,,---,0.00,VWS V14.00,2013-02-01 07:51:00,
2013-02-01 01:52:00,19.9,8.3,30.47,NNW,338,6.0,10.0,60,0.00,,---,0.00,VWS V14.00,2013-02-01 07:52:00,
2013-02-01 01:53:00,19.9,8.3,30.47,NNW,342,10.0,10.0,60,0.00,,---,0.00,VWS V14.00,2013-02-01 07:53:00,
2013-02-01 01:54:00,19.7,8.1,30.47,NNW,344,6.0,11.0,60,0.00,,---,0.00,VWS V14.00,2013-02-01 07:54:00,
2013-02-01 01:55:00,19.5,7.9,30.47,NNW,344,6.0,6.0,60,0.00,,---,0.00,VWS V14.00,2013-02-01 07:55:00,
2013-02-01 01:56:00,19.7,8.1,30.47,NNW,344,6.0,10.0,60,0.00,,---,0.00,VWS V14.00,2013-02-01 07:56:00,
2013-02-01 01:57:00,19.5,7.9,30.47,NNW,344,6.0,12.0,60,0.00,,---,0.00,VWS V14.00,2013-02-01 07:57:00,
2013-02-01 01:58:00,19.5,7.9,30.47,NNW,344,6.0,7.0,60,0.00,,---,0.00,VWS V14.00,2013-02-01 07:58:00,
2013-02-01 01:59:00,19.5,8.3,30.47,NNW,344,7.0,7.0,61,0.00,,---,0.00,VWS V14.00,2013-02-01 07:59:00,
2013-02-01 02:00:00,19.4,8.2,30.47,NNW,344,7.0,7.0,61,0.00,,---,0.00,VWS V14.00,2013-02-01 08:00:00,
2013-02-01 02:01:00,19.5,8.3,30.47,NNW,344,6.0,7.0,61,0.00,,---,0.00,VWS V14.00,2013-02-01 08:01:00,
2013-02-01 02:02:00,19.5,8.6,30.47,NNW,344,5.0,7.0,62,0.00,,---,0.00,VWS V14.00,2013-02-01 08:02:00,
2013-02-01 02:03:00,19.4,8.2,30.47,North,350,8.0,11.0,61,0.00,,---,0.00,VWS V14.00,2013-02-01 08:03:00,
2013-02-01 02:04:00,19.4,8.2,30.47,North,349,7.0,11.0,61,0.00,,---,0.00,VWS V14.00,2013-02-01 08:04:00,
2013-02-01 02:05:00,19.2,8.3,30.47,North,350,2.0,4.0,62,0.00,,---,0.00,VWS V14.00,2013-02-01 08:05:00,
2013-02-01 02:06:00,19.2,8.0,30.47,North,350,2.0,5.0,61,0.00,,---,0.00,VWS V14.00,2013-02-01 08:06:00,
2013-02-01 02:07:00,19.2,8.0,30.47,North,350,4.0,5.0,61,0.00,,---,0.00,VWS V14.00,2013-02-01 08:07:00,
2013-02-01 02:08:00,19.2,8.0,30.47,North,350,2.0,4.0,61,0.00,,---,0.00,VWS V14.00,2013-02-01 08:08:00,
2013-02-01 02:09:00,19.2,8.0,30.47,North,350,2.0,5.0,61,0.00,,---,0.00,VWS V14.00,2013-02-01 08:09:00,
2013-02-01 02:10:00,19.1,7.1,30.47,North,355,2.0,7.0,59,0.00,,---,0.00,VWS V14.00,2013-02-01 08:10:00,
2013-02-01 02:11:00,19.2,8.3,30.47,North,350,5.0,6.0,62,0.00,,---,0.00,VWS V14.00,2013-02-01 08:11:00,
2013-02-01 02:12:00,19.2,8.0,30.47,North,355,7.0,9.0,61,0.00,,---,0.00,VWS V14.00,2013-02-01 08:12:00,
2013-02-01 02:13:00,19.1,7.1,30.47,North,355,2.0,7.0,59,0.00,,---,0.00,VWS V14.00,2013-02-01 08:13:00,
2013-02-01 02:14:00,19.1,7.9,30.47,NNE,14,9.0,11.0,61,0.00,,---,0.00,VWS V14.00,2013-02-01 08:14:00,
2013-02-01 02:15:00,18.9,7.3,30.47,North,5,6.0,7.0,60,0.00,,---,0.00,VWS V14.00,2013-02-01 08:15:00,
2013-02-01 02:16:00,19.1,7.9,30.47,NNE,14,6.0,10.0,61,0.00,,---,0.00,VWS V14.00,2013-02-01 08:16:00,
2013-02-01 02:17:00,18.9,7.3,30.47,North,5,6.0,10.0,60,0.00,,---,0.00,VWS V14.00,2013-02-01 08:17:00,
2013-02-01 02:18:00,18.9,7.3,30.47,North,5,1.0,7.0,60,0.00,,---,0.00,VWS V14.00,2013-02-01 08:18:00,
2013-02-01 02:19:00,18.9,7.3,30.47,North,355,6.0,6.0,60,0.00,,---,0.00,VWS V14.00,2013-02-01 08:19:00,
2013-02-01 02:20:00,18.9,6.9,30.48,NNW,344,3.0,4.0,59,0.00,,---,0.00,VWS V14.00,2013-02-01 08:20:00,
2013-02-01 02:21:00,18.9,7.3,30.48,NNW,343,6.0,10.0,60,0.00,,---,0.00,VWS V14.00,2013-02-01 08:21:00,
2013-02-01 02:22:00,18.9,6.9,30.48,NNW,344,4.0,10.0,59,0.00,,---,0.00,VWS V14.00,2013-02-01 08:22:00,
2013-02-01 02:23:00,18.9,6.9,30.48,NNW,344,6.0,7.0,59,0.00,,---,0.00,VWS V14.00,2013-02-01 08:23:00,
2013-02-01 02:24:00,18.8,7.6,30.48,NNW,348,2.0,11.0,61,0.00,,---,0.00,VWS V14.00,2013-02-01 08:24:00,
2013-02-01 02:25:00,18.8,7.2,30.48,NNW,348,4.0,4.0,60,0.00,,---,0.00,VWS V14.00,2013-02-01 08:25:00,
2013-02-01 02:26:00,18.8,6.9,30.48,North,349,2.0,6.0,59,0.00,,---,0.00,VWS V14.00,2013-02-01 08:26:00,
2013-02-01 02:27:00,18.8,7.2,30.48,NNW,348,4.0,10.0,60,0.00,,---,0.00,VWS V14.00,2013-02-01 08:27:00,
2013-02-01 02:28:00,18.8,7.9,30.48,NNW,348,7.0,7.0,62,0.00,,---,0.00,VWS V14.00,2013-02-01 08:28:00,
2013-02-01 02:29:00,18.8,7.9,30.49,North,350,5.0,10.0,62,0.00,,---,0.00,VWS V14.00,2013-02-01 08:29:00,
2013-02-01 02:30:00,18.8,7.6,30.49,North,350,9.0,9.0,61,0.00,,---,0.00,VWS V14.00,2013-02-01 08:30:00,
2013-02-01 02:31:00,18.8,7.6,30.49,North,349,5.0,8.0,61,0.00,,---,0.00,VWS V14.00,2013-02-01 08:31:00,
2013-02-01 02:32:00,18.8,7.6,30.49,North,350,3.0,7.0,61,0.00,,---,0.00,VWS V14.00,2013-02-01 08:32:00,
2013-02-01 02:33:00,18.8,7.9,30.49,North,350,5.0,9.0,62,0.00,,---,0.00,VWS V14.00,2013-02-01 08:33:00,
2013-02-01 02:34:00,18.8,7.6,30.49,North,350,6.0,9.0,61,0.00,,---,0.00,VWS V14.00,2013-02-01 08:34:00,
2013-02-01 02:35:00,18.8,7.6,30.49,North,350,6.0,8.0,61,0.00,,---,0.00,VWS V14.00,2013-02-01 08:35:00,
2013-02-01 02:36:00,18.8,7.6,30.49,NNW,348,4.0,8.0,61,0.00,,---,0.00,VWS V14.00,2013-02-01 08:36:00,
2013-02-01 02:37:00,18.8,7.6,30.49,North,350,5.0,9.0,61,0.00,,---,0.00,VWS V14.00,2013-02-01 08:37:00,
2013-02-01 02:38:00,18.8,7.9,30.49,North,350,3.0,8.0,62,0.00,,---,0.00,VWS V14.00,2013-02-01 08:38:00,
2013-02-01 02:39:00,18.8,7.9,30.49,North,350,6.0,7.0,62,0.00,,---,0.00,VWS V14.00,2013-02-01 08:39:00,
2013-02-01 02:40:00,18.6,7.8,30.49,NNW,336,5.0,5.0,62,0.00,,---,0.00,VWS V14.00,2013-02-01 08:40:00,
2013-02-01 02:41:00,18.6,7.4,30.49,North,350,5.0,6.0,61,0.00,,---,0.00,VWS V14.00,2013-02-01 08:41:00,
2013-02-01 02:42:00,18.6,7.8,30.49,NNW,336,5.0,10.0,62,0.00,,---,0.00,VWS V14.00,2013-02-01 08:42:00,
2013-02-01 02:43:00,18.6,7.8,30.49,NNW,336,7.0,7.0,62,0.00,,---,0.00,VWS V14.00,2013-02-01 08:43:00,
2013-02-01 02:44:00,18.6,7.8,30.49,NNW,336,4.0,9.0,62,0.00,,---,0.00,VWS V14.00,2013-02-01 08:44:00,
2013-02-01 02:45:00,18.6,7.4,30.49,NNW,338,5.0,5.0,61,0.00,,---,0.00,VWS V14.00,2013-02-01 08:45:00,
2013-02-01 02:46:00,18.6,7.8,30.49,NNW,338,7.0,8.0,62,0.00,,---,0.00,VWS V14.00,2013-02-01 08:46:00,
2013-02-01 02:47:00,18.6,7.4,30.49,NNW,338,5.0,10.0,61,0.00,,---,0.00,VWS V14.00,2013-02-01 08:47:00,
2013-02-01 02:48:00,18.6,7.4,30.49,NNW,338,3.0,6.0,61,0.00,,---,0.00,VWS V14.00,2013-02-01 08:48:00,
2013-02-01 02:49:00,18.6,7.8,30.49,NNW,338,2.0,4.0,62,0.00,,---,0.00,VWS V14.00,2013-02-01 08:49:00,
2013-02-01 02:50:00,18.6,7.8,30.49,NNW,338,3.0,4.0,62,0.00,,---,0.00,VWS V14.00,2013-02-01 08:50:00,
2013-02-01 02:51:00,18.6,7.8,30.49,NNW,338,4.0,5.0,62,0.00,,---,0.00,VWS V14.00,2013-02-01 08:51:00,
2013-02-01 02:52:00,18.6,7.8,30.49,NNW,338,4.0,5.0,62,0.00,,---,0.00,VWS V14.00,2013-02-01 08:52:00,
2013-02-01 02:53:00,18.4,7.2,30.49,NNW,338,6.0,9.0,61,0.00,,---,0.00,VWS V14.00,2013-02-01 08:53:00,
2013-02-01 02:54:00,18.4,7.2,30.49,NNW,338,6.0,6.0,61,0.00,,---,0.00,VWS V14.00,2013-02-01 08:54:00,
2013-02-01 02:55:00,18.3,7.1,30.49,NNW,338,3.0,3.0,61,0.00,,---,0.00,VWS V14.00,2013-02-01 08:55:00,
2013-02-01 02:56:00,18.4,7.6,30.49,NNW,338,2.0,4.0,62,0.00,,---,0.00,VWS V14.00,2013-02-01 08:56:00,
2013-02-01 02:57:00,18.3,7.1,30.49,NNW,338,3.0,7.0,61,0.00,,---,0.00,VWS V14.00,2013-02-01 08:57:00,
2013-02-01 02:58:00,18.3,7.5,30.49,NNW,338,2.0,5.0,62,0.00,,---,0.00,VWS V14.00,2013-02-01 08:58:00,
2013-02-01 02:59:00,18.3,7.5,30.49,NNW,338,2.0,4.0,62,0.00,,---,0.00,VWS V14.00,2013-02-01 08:59:00,
2013-02-01 03:00:00,18.3,7.5,30.49,NNW,338,0.0,0.0,62,0.00,,---,0.00,VWS V14.00,2013-02-01 09:00:00,
2013-02-01 03:01:00,18.3,7.5,30.49,NNW,338,4.0,4.0,62,0.00,,---,0.00,VWS V14.00,2013-02-01 09:01:00,
2013-02-01 03:02:00,18.3,7.5,30.49,NNW,338,0.0,4.0,62,0.00,,---,0.00,VWS V14.00,2013-02-01 09:02:00,
2013-02-01 03:03:00,18.3,7.5,30.49,NNW,338,2.0,4.0,62,0.00,,---,0.00,VWS V14.00,2013-02-01 09:03:00,
2013-02-01 03:04:00,18.3,7.5,30.49,NNW,338,1.0,3.0,62,0.00,,---,0.00,VWS V14.00,2013-02-01 09:04:00,
2013-02-01 03:05:00,18.1,7.3,30.49,NNW,338,2.0,2.0,62,0.00,,---,0.00,VWS V14.00,2013-02-01 09:05:00,
2013-02-01 03:06:00,18.3,7.5,30.49,NNW,338,0.0,2.0,62,0.00,,---,0.00,VWS V14.00,2013-02-01 09:06:00,
2013-02-01 03:07:00,18.1,7.3,30.49,NNW,338,0.0,2.0,62,0.00,,---,0.00,VWS V14.00,2013-02-01 09:07:00,
2013-02-01 03:08:00,18.1,7.6,30.49,NNW,338,0.0,2.0,63,0.00,,---,0.00,VWS V14.00,2013-02-01 09:08:00,
2013-02-01 03:09:00,18.1,7.6,30.49,NNW,338,2.0,3.0,63,0.00,,---,0.00,VWS V14.00,2013-02-01 09:09:00,
2013-02-01 03:10:00,18.3,7.8,30.49,NNW,338,2.0,4.0,63,0.00,,---,0.00,VWS V14.00,2013-02-01 09:10:00,
2013-02-01 03:11:00,18.3,7.8,30.49,NNW,338,2.0,4.0,63,0.00,,---,0.00,VWS V14.00,2013-02-01 09:11:00,
2013-02-01 03:12:00,18.3,7.8,30.49,NNW,338,4.0,4.0,63,0.00,,---,0.00,VWS V14.00,2013-02-01 09:12:00,
2013-02-01 03:13:00,18.1,7.3,30.49,NNW,338,0.0,4.0,62,0.00,,---,0.00,VWS V14.00,2013-02-01 09:13:00,
2013-02-01 03:14:00,18.1,7.6,30.49,NNW,338,1.0,2.0,63,0.00,,---,0.00,VWS V14.00,2013-02-01 09:14:00,
2013-02-01 03:15:00,18.1,7.6,30.48,NNW,338,2.0,2.0,63,0.00,,---,0.00,VWS V14.00,2013-02-01 09:15:00,
2013-02-01 03:16:00,18.1,7.6,30.49,NNW,338,1.0,3.0,63,0.00,,---,0.00,VWS V14.00,2013-02-01 09:16:00,
2013-02-01 03:17:00,18.1,7.6,30.49,NNW,338,1.0,1.0,63,0.00,,---,0.00,VWS V14.00,2013-02-01 09:17:00,
2013-02-01 03:18:00,18.1,8.0,30.49,NNW,338,0.0,2.0,64,0.00,,---,0.00,VWS V14.00,2013-02-01 09:18:00,
2013-02-01 03:19:00,18.1,8.0,30.49,NNW,338,0.0,0.0,64,0.00,,---,0.00,VWS V14.00,2013-02-01 09:19:00,
2013-02-01 03:20:00,18.0,7.9,30.48,NNW,338,0.0,2.0,64,0.00,,---,0.00,VWS V14.00,2013-02-01 09:20:00,
2013-02-01 03:21:00,18.1,7.6,30.49,NNW,338,0.0,3.0,63,0.00,,---,0.00,VWS V14.00,2013-02-01 09:21:00,
2013-02-01 03:22:00,18.1,8.0,30.48,NNW,338,2.0,2.0,64,0.00,,---,0.00,VWS V14.00,2013-02-01 09:22:00,
2013-02-01 03:23:00,18.0,7.9,30.48,NNW,338,0.0,2.0,64,0.00,,---,0.00,VWS V14.00,2013-02-01 09:23:00,
2013-02-01 03:24:00,18.0,8.2,30.48,NNW,338,2.0,3.0,65,0.00,,---,0.00,VWS V14.00,2013-02-01 09:24:00,
2013-02-01 03:25:00,18.1,8.3,30.48,NNW,338,1.0,1.0,65,0.00,,---,0.00,VWS V14.00,2013-02-01 09:25:00,
2013-02-01 03:26:00,18.1,8.3,30.48,NNW,338,0.0,3.0,65,0.00,,---,0.00,VWS V14.00,2013-02-01 09:26:00,
2013-02-01 03:27:00,18.1,8.3,30.48,NNW,338,1.0,3.0,65,0.00,,---,0.00,VWS V14.00,2013-02-01 09:27:00,
2013-02-01 03:28:00,18.1,8.3,30.48,NNW,338,0.0,2.0,65,0.00,,---,0.00,VWS V14.00,2013-02-01 09:28:00,
2013-02-01 03:29:00,18.1,8.3,30.48,NNW,338,0.0,1.0,65,0.00,,---,0.00,VWS V14.00,2013-02-01 09:29:00,
2013-02-01 03:30:00,18.1,8.3,30.48,NNW,338,4.0,4.0,65,0.00,,---,0.00,VWS V14.00,2013-02-01 09:30:00,
2013-02-01 03:31:00,18.1,8.3,30.48,NNW,338,1.0,1.0,65,0.00,,---,0.00,VWS V14.00,2013-02-01 09:31:00,
2013-02-01 03:32:00,18.1,8.3,30.48,NNW,338,2.0,2.0,65,0.00,,---,0.00,VWS V14.00,2013-02-01 09:32:00,
2013-02-01 03:33:00,18.1,8.3,30.48,NNW,338,0.0,4.0,65,0.00,,---,0.00,VWS V14.00,2013-02-01 09:33:00,
2013-02-01 03:34:00,18.1,8.7,30.48,NNW,338,1.0,1.0,66,0.00,,---,0.00,VWS V14.00,2013-02-01 09:34:00,
2013-02-01 03:35:00,18.1,8.3,30.48,NNW,338,0.0,0.0,65,0.00,,---,0.00,VWS V14.00,2013-02-01 09:35:00,
2013-02-01 03:36:00,18.1,8.7,30.48,NNW,338,2.0,2.0,66,0.00,,---,0.00,VWS V14.00,2013-02-01 09:36:00,
2013-02-01 03:37:00,18.1,8.3,30.48,NNW,338,0.0,3.0,65,0.00,,---,0.00,VWS V14.00,2013-02-01 09:37:00,
2013-02-01 03:38:00,18.1,8.7,30.48,NNW,338,1.0,1.0,66,0.00,,---,0.00,VWS V14.00,2013-02-01 09:38:00,
2013-02-01 03:39:00,18.1,9.0,30.48,NNW,338,0.0,3.0,67,0.00,,---,0.00,VWS V14.00,2013-02-01 09:39:00,
2013-02-01 03:40:00,18.1,8.7,30.49,NNW,338,0.0,0.0,66,0.00,,---,0.00,VWS V14.00,2013-02-01 09:40:00,
2013-02-01 03:41:00,18.1,8.7,30.48,NNW,338,0.0,0.0,66,0.00,,---,0.00,VWS V14.00,2013-02-01 09:41:00,
2013-02-01 03:42:00,18.1,8.7,30.49,NNW,338,0.0,0.0,66,0.00,,---,0.00,VWS V14.00,2013-02-01 09:42:00,
2013-02-01 03:43:00,18.1,9.0,30.49,NNW,338,2.0,2.0,67,0.00,,---,0.00,VWS V14.00,2013-02-01 09:43:00,
2013-02-01 03:44:00,18.1,8.7,30.49,NNW,338,0.0,2.0,66,0.00,,---,0.00,VWS V14.00,2013-02-01 09:44:00,
2013-02-01 03:45:00,18.0,8.6,30.49,NNW,338,1.0,2.0,66,0.00,,---,0.00,VWS V14.00,2013-02-01 09:45:00,
2013-02-01 03:46:00,18.1,8.7,30.49,NNW,338,5.0,5.0,66,0.00,,---,0.00,VWS V14.00,2013-02-01 09:46:00,
2013-02-01 03:47:00,18.1,8.7,30.49,NNW,338,1.0,5.0,66,0.00,,---,0.00,VWS V14.00,2013-02-01 09:47:00,
2013-02-01 03:48:00,18.0,8.6,30.49,NNW,338,0.0,2.0,66,0.00,,---,0.00,VWS V14.00,2013-02-01 09:48:00,
2013-02-01 03:49:00,18.0,8.6,30.49,NNW,338,0.0,3.0,66,0.00,,---,0.00,VWS V14.00,2013-02-01 09:49:00,
2013-02-01 03:50:00,17.8,8.0,30.49,NNW,338,1.0,2.0,65,0.00,,---,0.00,VWS V14.00,2013-02-01 09:50:00,
2013-02-01 03:51:00,18.0,8.6,30.49,NNW,338,0.0,0.0,66,0.00,,---,0.00,VWS V14.00,2013-02-01 09:51:00,
2013-02-01 03:52:00,17.8,8.0,30.49,NNW,338,0.0,0.0,65,0.00,,---,0.00,VWS V14.00,2013-02-01 09:52:00,
2013-02-01 03:53:00,17.8,8.4,30.49,NNW,338,2.0,2.0,66,0.00,,---,0.00,VWS V14.00,2013-02-01 09:53:00,
2013-02-01 03:54:00,17.8,8.4,30.49,NNW,338,2.0,3.0,66,0.00,,---,0.00,VWS V14.00,2013-02-01 09:54:00,
2013-02-01 03:55:00,17.8,8.4,30.49,NNW,338,0.0,0.0,66,0.00,,---,0.00,VWS V14.00,2013-02-01 09:55:00,
2013-02-01 03:56:00,17.8,8.4,30.49,NNW,338,0.0,2.0,66,0.00,,---,0.00,VWS V14.00,2013-02-01 09:56:00,
2013-02-01 03:57:00,17.8,8.4,30.49,NNW,338,0.0,2.0,66,0.00,,---,0.00,VWS V14.00,2013-02-01 09:57:00,
2013-02-01 03:58:00,17.8,8.4,30.49,NNW,338,0.0,0.0,66,0.00,,---,0.00,VWS V14.00,2013-02-01 09:58:00,
2013-02-01 03:59:00,17.7,8.3,30.49,NNW,338,0.0,0.0,66,0.00,,---,0.00,VWS V14.00,2013-02-01 09:59:00,
2013-02-01 04:00:00,17.7,8.3,30.50,NNW,338,0.0,0.0,66,0.00,,---,0.00,VWS V14.00,2013-02-01 10:00:00,
2013-02-01 04:01:00,17.7,8.6,30.49,NNW,338,1.0,3.0,67,0.00,,---,0.00,VWS V14.00,2013-02-01 10:01:00,
2013-02-01 04:02:00,17.7,8.3,30.50,NNW,338,0.0,2.0,66,0.00,,---,0.00,VWS V14.00,2013-02-01 10:02:00,
2013-02-01 04:03:00,17.7,8.3,30.50,NNW,338,0.0,1.0,66,0.00,,---,0.00,VWS V14.00,2013-02-01 10:03:00,
2013-02-01 04:04:00,17.7,8.3,30.50,NNW,338,0.0,0.0,66,0.00,,---,0.00,VWS V14.00,2013-02-01 10:04:00,
2013-02-01 04:05:00,17.5,8.1,30.50,NNW,338,0.0,2.0,66,0.00,,---,0.00,VWS V14.00,2013-02-01 10:05:00,
2013-02-01 04:06:00,17.5,8.1,30.50,NNW,338,0.0,0.0,66,0.00,,---,0.00,VWS V14.00,2013-02-01 10:06:00,
2013-02-01 04:07:00,17.5,8.1,30.50,NNW,338,1.0,2.0,66,0.00,,---,0.00,VWS V14.00,2013-02-01 10:07:00,
2013-02-01 04:08:00,17.5,8.1,30.50,NNW,338,0.0,2.0,66,0.00,,---,0.00,VWS V14.00,2013-02-01 10:08:00,
2013-02-01 04:09:00,17.5,8.1,30.50,NNW,338,0.0,0.0,66,0.00,,---,0.00,VWS V14.00,2013-02-01 10:09:00,
2013-02-01 04:10:00,17.3,8.2,30.50,NNW,338,0.0,0.0,67,0.00,,---,0.00,VWS V14.00,2013-02-01 10:10:00,
2013-02-01 04:11:00,17.3,8.2,30.50,NNW,338,1.0,1.0,67,0.00,,---,0.00,VWS V14.00,2013-02-01 10:11:00,
2013-02-01 04:12:00,17.3,8.2,30.50,NNW,338,0.0,2.0,67,0.00,,---,0.00,VWS V14.00,2013-02-01 10:12:00,
2013-02-01 04:13:00,17.3,8.2,30.50,NNW,338,0.0,0.0,67,0.00,,---,0.00,VWS V14.00,2013-02-01 10:13:00,
2013-02-01 04:14:00,17.3,8.2,30.50,NNW,338,0.0,0.0,67,0.00,,---,0.00,VWS V14.00,2013-02-01 10:14:00,
2013-02-01 04:15:00,17.3,8.2,30.50,NNW,338,0.0,0.0,67,0.00,,---,0.00,VWS V14.00,2013-02-01 10:15:00,
2013-02-01 04:16:00,17.3,8.2,30.50,NNW,338,0.0,1.0,67,0.00,,---,0.00,VWS V14.00,2013-02-01 10:16:00,
2013-02-01 04:17:00,17.3,8.2,30.50,NNW,338,0.0,0.0,67,0.00,,---,0.00,VWS V14.00,2013-02-01 10:17:00,
2013-02-01 04:18:00,17.3,8.2,30.50,NNW,338,0.0,0.0,67,0.00,,---,0.00,VWS V14.00,2013-02-01 10:18:00,
2013-02-01 04:19:00,17.3,8.2,30.50,NNW,338,1.0,1.0,67,0.00,,---,0.00,VWS V14.00,2013-02-01 10:19:00,
2013-02-01 04:20:00,17.3,8.2,30.51,NNW,338,0.0,0.0,67,0.00,,---,0.00,VWS V14.00,2013-02-01 10:20:00,
2013-02-01 04:21:00,17.3,8.2,30.51,NNW,338,0.0,0.0,67,0.00,,---,0.00,VWS V14.00,2013-02-01 10:21:00,
2013-02-01 04:22:00,17.3,8.2,30.51,NNW,338,0.0,0.0,67,0.00,,---,0.00,VWS V14.00,2013-02-01 10:22:00,
2013-02-01 04:23:00,17.3,8.2,30.51,NNW,338,0.0,0.0,67,0.00,,---,0.00,VWS V14.00,2013-02-01 10:23:00,
2013-02-01 04:24:00,17.3,8.2,30.51,NNW,338,0.0,0.0,67,0.00,,---,0.00,VWS V14.00,2013-02-01 10:24:00,
2013-02-01 04:25:00,17.2,8.1,30.51,NNW,338,0.0,1.0,67,0.00,,---,0.00,VWS V14.00,2013-02-01 10:25:00,
2013-02-01 04:26:00,17.2,8.1,30.51,NNW,338,0.0,0.0,67,0.00,,---,0.00,VWS V14.00,2013-02-01 10:26:00,
2013-02-01 04:27:00,17.2,8.1,30.51,NNW,338,1.0,1.0,67,0.00,,---,0.00,VWS V14.00,2013-02-01 10:27:00,
2013-02-01 04:28:00,17.2,8.1,30.51,NNW,338,0.0,1.0,67,0.00,,---,0.00,VWS V14.00,2013-02-01 10:28:00,
2013-02-01 04:29:00,17.2,8.1,30.51,NNW,338,0.0,0.0,67,0.00,,---,0.00,VWS V14.00,2013-02-01 10:29:00,
2013-02-01 04:30:00,17.2,8.1,30.51,NNW,338,1.0,2.0,67,0.00,,---,0.00,VWS V14.00,2013-02-01 10:30:00,
2013-02-01 04:31:00,17.2,8.1,30.51,NNW,338,2.0,3.0,67,0.00,,---,0.00,VWS V14.00,2013-02-01 10:31:00,
2013-02-01 04:32:00,17.2,8.1,30.51,NNW,338,1.0,2.0,67,0.00,,---,0.00,VWS V14.00,2013-02-01 10:32:00,
2013-02-01 04:33:00,17.2,8.1,30.51,NNW,338,0.0,2.0,67,0.00,,---,0.00,VWS V14.00,2013-02-01 10:33:00,
2013-02-01 04:34:00,17.2,8.1,30.51,NNW,338,0.0,0.0,67,0.00,,---,0.00,VWS V14.00,2013-02-01 10:34:00,
2013-02-01 04:35:00,17.2,8.5,30.51,NNW,338,0.0,0.0,68,0.00,,---,0.00,VWS V14.00,2013-02-01 10:35:00,
2013-02-01 04:36:00,17.2,8.1,30.51,NNW,338,0.0,1.0,67,0.00,,---,0.00,VWS V14.00,2013-02-01 10:36:00,
2013-02-01 04:37:00,17.2,8.5,30.51,NNW,338,0.0,0.0,68,0.00,,---,0.00,VWS V14.00,2013-02-01 10:37:00,
2013-02-01 04:38:00,17.2,8.5,30.51,NNW,338,0.0,0.0,68,0.00,,---,0.00,VWS V14.00,2013-02-01 10:38:00,
2013-02-01 04:39:00,17.2,8.5,30.51,NNW,338,0.0,0.0,68,0.00,,---,0.00,VWS V14.00,2013-02-01 10:39:00,
2013-02-01 04:40:00,17.2,8.1,30.50,NNW,338,3.0,3.0,67,0.00,,---,0.00,VWS V14.00,2013-02-01 10:40:00,
2013-02-01 04:41:00,17.2,8.5,30.50,NNW,338,1.0,1.0,68,0.00,,---,0.00,VWS V14.00,2013-02-01 10:41:00,
2013-02-01 04:42:00,17.2,8.1,30.50,NNW,338,3.0,3.0,67,0.00,,---,0.00,VWS V14.00,2013-02-01 10:42:00,
2013-02-01 04:43:00,17.2,8.1,30.50,NNW,338,0.0,3.0,67,0.00,,---,0.00,VWS V14.00,2013-02-01 10:43:00,
2013-02-01 04:44:00,17.2,8.1,30.50,NNW,338,0.0,1.0,67,0.00,,---,0.00,VWS V14.00,2013-02-01 10:44:00,
2013-02-01 04:45:00,17.0,7.9,30.51,NNW,338,1.0,2.0,67,0.00,,---,0.00,VWS V14.00,2013-02-01 10:45:00,
2013-02-01 04:46:00,17.0,7.6,30.50,NNW,338,0.0,2.0,66,0.00,,---,0.00,VWS V14.00,2013-02-01 10:46:00,
2013-02-01 04:47:00,17.0,7.9,30.51,NNW,338,2.0,2.0,67,0.00,,---,0.00,VWS V14.00,2013-02-01 10:47:00,
2013-02-01 04:48:00,17.0,7.9,30.51,NNW,338,0.0,2.0,67,0.00,,---,0.00,VWS V14.00,2013-02-01 10:48:00,
2013-02-01 04:49:00,16.9,7.8,30.51,NNW,338,0.0,0.0,67,0.00,,---,0.00,VWS V14.00,2013-02-01 10:49:00,
2013-02-01 04:50:00,16.9,8.2,30.50,NNW,338,0.0,0.0,68,0.00,,---,0.00,VWS V14.00,2013-02-01 10:50:00,
2013-02-01 04:51:00,16.9,7.8,30.51,NNW,338,0.0,0.0,67,0.00,,---,0.00,VWS V14.00,2013-02-01 10:51:00,
2013-02-01 04:52:00,16.9,8.2,30.50,NNW,338,0.0,0.0,68,0.00,,---,0.00,VWS V14.00,2013-02-01 10:52:00,
2013-02-01 04:53:00,16.9,8.2,30.50,NNW,338,0.0,1.0,68,0.00,,---,0.00,VWS V14.00,2013-02-01 10:53:00,
2013-02-01 04:54:00,16.9,8.2,30.50,NNW,338,1.0,3.0,68,0.00,,---,0.00,VWS V14.00,2013-02-01 10:54:00,
2013-02-01 04:55:00,16.9,7.8,30.50,NNW,338,0.0,0.0,67,0.00,,---,0.00,VWS V14.00,2013-02-01 10:55:00,
2013-02-01 04:56:00,16.9,8.2,30.50,NNW,338,0.0,0.0,68,0.00,,---,0.00,VWS V14.00,2013-02-01 10:56:00,
2013-02-01 04:57:00,16.9,8.2,30.50,NNW,338,0.0,1.0,68,0.00,,---,0.00,VWS V14.00,2013-02-01 10:57:00,
2013-02-01 04:58:00,16.9,7.8,30.50,NNW,338,2.0,2.0,67,0.00,,---,0.00,VWS V14.00,2013-02-01 10:58:00,
2013-02-01 04:59:00,16.9,7.8,30.50,NNW,338,0.0,2.0,67,0.00,,---,0.00,VWS V14.00,2013-02-01 10:59:00,
2013-02-01 05:00:00,16.7,7.7,30.51,NNW,338,0.0,0.0,67,0.00,,---,0.00,VWS V14.00,2013-02-01 11:00:00,
2013-02-01 05:01:00,16.9,8.2,30.50,NNW,338,0.0,0.0,68,0.00,,---,0.00,VWS V14.00,2013-02-01 11:01:00,
2013-02-01 05:02:00,16.7,7.7,30.51,NNW,338,0.0,0.0,67,0.00,,---,0.00,VWS V14.00,2013-02-01 11:02:00,
2013-02-01 05:03:00,16.7,7.7,30.51,NNW,338,0.0,0.0,67,0.00,,---,0.00,VWS V14.00,2013-02-01 11:03:00,
2013-02-01 05:04:00,16.7,7.7,30.51,NNW,338,0.0,0.0,67,0.00,,---,0.00,VWS V14.00,2013-02-01 11:04:00,
2013-02-01 05:05:00,16.5,7.5,30.52,NNW,338,1.0,1.0,67,0.00,,---,0.00,VWS V14.00,2013-02-01 11:05:00,
2013-02-01 05:06:00,16.7,7.7,30.51,NNW,338,0.0,3.0,67,0.00,,---,0.00,VWS V14.00,2013-02-01 11:06:00,
2013-02-01 05:07:00,16.5,7.5,30.52,NNW,338,1.0,3.0,67,0.00,,---,0.00,VWS V14.00,2013-02-01 11:07:00,
2013-02-01 05:08:00,16.5,7.5,30.52,NNW,338,2.0,2.0,67,0.00,,---,0.00,VWS V14.00,2013-02-01 11:08:00,
2013-02-01 05:09:00,16.5,7.5,30.52,NNW,338,0.0,3.0,67,0.00,,---,0.00,VWS V14.00,2013-02-01 11:09:00,
2013-02-01 05:10:00,16.5,8.1,30.52,NNW,338,0.0,0.0,69,0.00,,---,0.00,VWS V14.00,2013-02-01 11:10:00,
2013-02-01 05:11:00,16.5,8.1,30.52,NNW,338,0.0,3.0,69,0.00,,---,0.00,VWS V14.00,2013-02-01 11:11:00,
2013-02-01 05:12:00,16.5,8.1,30.52,NNW,338,0.0,4.0,69,0.00,,---,0.00,VWS V14.00,2013-02-01 11:12:00,
2013-02-01 05:13:00,16.5,7.8,30.52,NNW,338,2.0,4.0,68,0.00,,---,0.00,VWS V14.00,2013-02-01 11:13:00,
2013-02-01 05:14:00,16.5,7.8,30.52,NNW,338,0.0,2.0,68,0.00,,---,0.00,VWS V14.00,2013-02-01 11:14:00,
2013-02-01 05:15:00,16.5,7.8,30.52,NNW,338,2.0,3.0,68,0.00,,---,0.00,VWS V14.00,2013-02-01 11:15:00,
2013-02-01 05:16:00,16.5,7.8,30.52,NNW,338,0.0,0.0,68,0.00,,---,0.00,VWS V14.00,2013-02-01 11:16:00,
2013-02-01 05:17:00,16.5,7.8,30.52,NNW,338,3.0,3.0,68,0.00,,---,0.00,VWS V14.00,2013-02-01 11:17:00,
2013-02-01 05:18:00,16.5,7.5,30.52,NNW,338,0.0,3.0,67,0.00,,---,0.00,VWS V14.00,2013-02-01 11:18:00,
2013-02-01 05:19:00,16.5,7.8,30.52,NNW,338,0.0,0.0,68,0.00,,---,0.00,VWS V14.00,2013-02-01 11:19:00,
2013-02-01 05:20:00,16.5,7.8,30.53,NNW,338,3.0,3.0,68,0.00,,---,0.00,VWS V14.00,2013-02-01 11:20:00,
2013-02-01 05:21:00,16.5,7.5,30.52,NNW,338,1.0,3.0,67,0.00,,---,0.00,VWS V14.00,2013-02-01 11:21:00,
2013-02-01 05:22:00,16.5,7.8,30.53,NNW,338,3.0,3.0,68,0.00,,---,0.00,VWS V14.00,2013-02-01 11:22:00,
2013-02-01 05:23:00,16.5,7.8,30.53,NNW,338,0.0,3.0,68,0.00,,---,0.00,VWS V14.00,2013-02-01 11:23:00,
2013-02-01 05:24:00,16.5,7.5,30.53,NNW,338,0.0,0.0,67,0.00,,---,0.00,VWS V14.00,2013-02-01 11:24:00,
2013-02-01 05:25:00,16.5,7.8,30.53,NNW,338,0.0,0.0,68,0.00,,---,0.00,VWS V14.00,2013-02-01 11:25:00,
2013-02-01 05:26:00,16.5,7.5,30.53,NNW,338,0.0,0.0,67,0.00,,---,0.00,VWS V14.00,2013-02-01 11:26:00,
2013-02-01 05:27:00,16.5,7.8,30.53,NNW,338,0.0,0.0,68,0.00,,---,0.00,VWS V14.00,2013-02-01 11:27:00,
2013-02-01 05:28:00,16.5,7.8,30.53,NNW,338,2.0,2.0,68,0.00,,---,0.00,VWS V14.00,2013-02-01 11:28:00,
2013-02-01 05:29:00,16.5,8.1,30.53,NNW,338,0.0,3.0,69,0.00,,---,0.00,VWS V14.00,2013-02-01 11:29:00,
2013-02-01 05:30:00,16.4,7.7,30.53,NNW,338,0.0,1.0,68,0.00,,---,0.00,VWS V14.00,2013-02-01 11:30:00,
2013-02-01 05:31:00,16.4,7.7,30.53,NNW,338,2.0,3.0,68,0.00,,---,0.00,VWS V14.00,2013-02-01 11:31:00,
2013-02-01 05:32:00,16.4,7.7,30.53,NNW,338,1.0,3.0,68,0.00,,---,0.00,VWS V14.00,2013-02-01 11:32:00,
2013-02-01 05:33:00,16.4,7.4,30.53,NNW,338,0.0,1.0,67,0.00,,---,0.00,VWS V14.00,2013-02-01 11:33:00,
2013-02-01 05:34:00,16.4,7.4,30.53,NNW,338,0.0,1.0,67,0.00,,---,0.00,VWS V14.00,2013-02-01 11:34:00,
2013-02-01 05:35:00,16.2,7.5,30.53,NNW,338,0.0,0.0,68,0.00,,---,0.00,VWS V14.00,2013-02-01 11:35:00,
2013-02-01 05:36:00,16.2,7.2,30.53,NNW,338,0.0,2.0,67,0.00,,---,0.00,VWS V14.00,2013-02-01 11:36:00,
2013-02-01 05:37:00,16.2,7.5,30.53,NNW,338,0.0,0.0,68,0.00,,---,0.00,VWS V14.00,2013-02-01 11:37:00,
2013-02-01 05:38:00,16.2,7.5,30.53,NNW,338,0.0,0.0,68,0.00,,---,0.00,VWS V14.00,2013-02-01 11:38:00,
2013-02-01 05:39:00,16.2,7.5,30.53,NNW,338,0.0,3.0,68,0.00,,---,0.00,VWS V14.00,2013-02-01 11:39:00,
2013-02-01 05:40:00,16.2,7.5,30.53,NNW,338,0.0,0.0,68,0.00,,---,0.00,VWS V14.00,2013-02-01 11:40:00,
2013-02-01 05:41:00,16.2,7.2,30.53,NNW,338,0.0,0.0,67,0.00,,---,0.00,VWS V14.00,2013-02-01 11:41:00,
2013-02-01 05:42:00,16.2,7.5,30.53,NNW,338,0.0,1.0,68,0.00,,---,0.00,VWS V14.00,2013-02-01 11:42:00,
2013-02-01 05:43:00,16.1,7.1,30.53,NNW,338,0.0,0.0,67,0.00,,---,0.00,VWS V14.00,2013-02-01 11:43:00,
2013-02-01 05:44:00,16.1,7.4,30.53,NNW,338,1.0,2.0,68,0.00,,---,0.00,VWS V14.00,2013-02-01 11:44:00,
2013-02-01 05:45:00,16.1,7.1,30.52,NNW,338,0.0,0.0,67,0.00,,---,0.00,VWS V14.00,2013-02-01 11:45:00,
2013-02-01 05:46:00,16.1,7.1,30.53,NNW,338,1.0,1.0,67,0.00,,---,0.00,VWS V14.00,2013-02-01 11:46:00,
2013-02-01 05:47:00,16.1,7.1,30.52,NNW,338,0.0,1.0,67,0.00,,---,0.00,VWS V14.00,2013-02-01 11:47:00,
2013-02-01 05:48:00,16.1,7.1,30.52,NNW,338,0.0,0.0,67,0.00,,---,0.00,VWS V14.00,2013-02-01 11:48:00,
2013-02-01 05:49:00,16.1,7.1,30.53,NNW,338,0.0,1.0,67,0.00,,---,0.00,VWS V14.00,2013-02-01 11:49:00,
2013-02-01 05:50:00,16.1,7.1,30.53,NNW,338,1.0,3.0,67,0.00,,---,0.00,VWS V14.00,2013-02-01 11:50:00,
2013-02-01 05:51:00,16.1,7.1,30.53,NNW,338,0.0,0.0,67,0.00,,---,0.00,VWS V14.00,2013-02-01 11:51:00,
2013-02-01 05:52:00,16.1,7.1,30.53,NNW,338,1.0,3.0,67,0.00,,---,0.00,VWS V14.00,2013-02-01 11:52:00,
2013-02-01 05:53:00,16.1,7.1,30.53,NNW,338,0.0,1.0,67,0.00,,---,0.00,VWS V14.00,2013-02-01 11:53:00,
2013-02-01 05:54:00,16.1,7.1,30.53,NNW,338,1.0,2.0,67,0.00,,---,0.00,VWS V14.00,2013-02-01 11:54:00,
2013-02-01 05:55:00,15.9,6.9,30.53,NNW,338,0.0,2.0,67,0.00,,---,0.00,VWS V14.00,2013-02-01 11:55:00,
2013-02-01 05:56:00,16.1,7.4,30.53,NNW,338,0.0,1.0,68,0.00,,---,0.00,VWS V14.00,2013-02-01 11:56:00,
2013-02-01 05:57:00,15.9,6.9,30.53,NNW,338,0.0,2.0,67,0.00,,---,0.00,VWS V14.00,2013-02-01 11:57:00,
2013-02-01 05:58:00,15.9,6.9,30.53,NNW,338,0.0,0.0,67,0.00,,---,0.00,VWS V14.00,2013-02-01 11:58:00,
2013-02-01 05:59:00,15.9,6.9,30.53,NNW,338,0.0,0.0,67,0.00,,---,0.00,VWS V14.00,2013-02-01 11:59:00,
2013-02-01 06:00:00,15.9,6.9,30.53,NNW,338,0.0,0.0,67,0.00,,---,0.00,VWS V14.00,2013-02-01 12:00:00,
2013-02-01 06:01:00,15.9,6.9,30.53,NNW,338,0.0,0.0,67,0.00,,---,0.00,VWS V14.00,2013-02-01 12:01:00,
2013-02-01 06:02:00,15.9,6.9,30.53,NNW,338,0.0,0.0,67,0.00,,---,0.00,VWS V14.00,2013-02-01 12:02:00,
2013-02-01 06:03:00,15.9,7.2,30.53,NNW,338,0.0,0.0,68,0.00,,---,0.00,VWS V14.00,2013-02-01 12:03:00,
2013-02-01 06:04:00,15.9,7.2,30.53,NNW,338,0.0,0.0,68,0.00,,---,0.00,VWS V14.00,2013-02-01 12:04:00,
2013-02-01 06:05:00,15.9,6.9,30.53,NNW,338,0.0,3.0,67,0.00,,---,0.00,VWS V14.00,2013-02-01 12:05:00,
2013-02-01 06:06:00,15.9,6.9,30.53,NNW,338,0.0,0.0,67,0.00,,---,0.00,VWS V14.00,2013-02-01 12:06:00,
2013-02-01 06:07:00,15.9,6.9,30.53,NNW,338,0.0,3.0,67,0.00,,---,0.00,VWS V14.00,2013-02-01 12:07:00,
2013-02-01 06:08:00,15.9,6.9,30.53,NNW,338,2.0,3.0,67,0.00,,---,0.00,VWS V14.00,2013-02-01 12:08:00,
2013-02-01 06:09:00,15.9,6.9,30.53,NNW,338,0.0,2.0,67,0.00,,---,0.00,VWS V14.00,2013-02-01 12:09:00,
2013-02-01 06:10:00,15.9,6.9,30.53,NNW,338,0.0,0.0,67,0.00,,---,0.00,VWS V14.00,2013-02-01 12:10:00,
2013-02-01 06:11:00,15.9,6.9,30.53,NNW,338,0.0,0.0,67,0.00,,---,0.00,VWS V14.00,2013-02-01 12:11:00,
2013-02-01 06:12:00,15.9,6.9,30.53,NNW,338,0.0,0.0,67,0.00,,---,0.00,VWS V14.00,2013-02-01 12:12:00,
2013-02-01 06:13:00,15.9,6.9,30.53,NNW,338,2.0,2.0,67,0.00,,---,0.00,VWS V14.00,2013-02-01 12:13:00,
2013-02-01 06:14:00,15.9,6.9,30.53,NNW,338,1.0,2.0,67,0.00,,---,0.00,VWS V14.00,2013-02-01 12:14:00,
2013-02-01 06:15:00,15.9,7.2,30.53,NNW,340,6.0,9.0,68,0.00,,---,0.00,VWS V14.00,2013-02-01 12:15:00,
2013-02-01 06:16:00,15.9,7.2,30.53,NNW,338,4.0,4.0,68,0.00,,---,0.00,VWS V14.00,2013-02-01 12:16:00,
2013-02-01 06:17:00,15.9,7.2,30.53,NNW,340,6.0,9.0,68,0.00,,---,0.00,VWS V14.00,2013-02-01 12:17:00,
2013-02-01 06:18:00,15.9,7.2,30.53,NNW,340,1.0,6.0,68,0.00,,---,0.00,VWS V14.00,2013-02-01 12:18:00,
2013-02-01 06:19:00,15.9,7.2,30.53,NNW,340,2.0,4.0,68,0.00,,---,0.00,VWS V14.00,2013-02-01 12:19:00,
2013-02-01 06:20:00,15.9,6.9,30.53,NNW,341,4.0,5.0,67,0.00,,---,0.00,VWS V14.00,2013-02-01 12:20:00,
2013-02-01 06:21:00,15.9,7.2,30.53,NNW,341,2.0,4.0,68,0.00,,---,0.00,VWS V14.00,2013-02-01 12:21:00,
2013-02-01 06:22:00,15.9,6.9,30.53,NNW,341,4.0,5.0,67,0.00,,---,0.00,VWS V14.00,2013-02-01 12:22:00,
2013-02-01 06:23:00,15.7,6.7,30.53,NNW,341,3.0,6.0,67,0.00,,---,0.00,VWS V14.00,2013-02-01 12:23:00,
2013-02-01 06:24:00,15.7,6.7,30.53,NNW,341,2.0,4.0,67,0.00,,---,0.00,VWS V14.00,2013-02-01 12:24:00,
2013-02-01 06:25:00,15.7,7.0,30.53,NNW,341,0.0,4.0,68,0.00,,---,0.00,VWS V14.00,2013-02-01 12:25:00,
2013-02-01 06:26:00,15.7,7.0,30.53,NNW,341,2.0,2.0,68,0.00,,---,0.00,VWS V14.00,2013-02-01 12:26:00,
2013-02-01 06:27:00,15.7,7.0,30.53,NNW,341,0.0,4.0,68,0.00,,---,0.00,VWS V14.00,2013-02-01 12:27:00,
2013-02-01 06:28:00,15.7,7.0,30.53,NNW,341,0.0,2.0,68,0.00,,---,0.00,VWS V14.00,2013-02-01 12:28:00,
2013-02-01 06:29:00,15.6,6.9,30.53,NNW,341,3.0,4.0,68,0.00,,---,0.00,VWS V14.00,2013-02-01 12:29:00,
2013-02-01 06:30:00,15.7,7.0,30.53,NNW,341,2.0,2.0,68,0.00,,---,0.00,VWS V14.00,2013-02-01 12:30:00,
2013-02-01 06:31:00,15.7,7.0,30.53,NNW,341,2.0,4.0,68,0.00,,---,0.00,VWS V14.00,2013-02-01 12:31:00,
2013-02-01 06:32:00,15.7,7.0,30.53,NNW,341,2.0,2.0,68,0.00,,---,0.00,VWS V14.00,2013-02-01 12:32:00,
2013-02-01 06:33:00,15.7,7.0,30.54,NNW,341,2.0,3.0,68,0.00,,---,0.00,VWS V14.00,2013-02-01 12:33:00,
2013-02-01 06:34:00,15.6,6.9,30.54,NNW,341,0.0,3.0,68,0.00,,---,0.00,VWS V14.00,2013-02-01 12:34:00,
2013-02-01 06:35:00,15.6,7.3,30.54,NNW,341,0.0,3.0,69,0.00,,---,0.00,VWS V14.00,2013-02-01 12:35:00,
2013-02-01 06:36:00,15.6,6.9,30.54,NNW,341,2.0,3.0,68,0.00,,---,0.00,VWS V14.00,2013-02-01 12:36:00,
2013-02-01 06:37:00,15.6,7.3,30.54,NNW,341,0.0,3.0,69,0.00,,---,0.00,VWS V14.00,2013-02-01 12:37:00,
2013-02-01 06:38:00,15.7,7.3,30.54,NNW,341,1.0,2.0,69,0.00,,---,0.00,VWS V14.00,2013-02-01 12:38:00,
2013-02-01 06:39:00,15.7,7.3,30.54,NNW,341,0.0,1.0,69,0.00,,---,0.00,VWS V14.00,2013-02-01 12:39:00,
2013-02-01 06:40:00,15.7,7.3,30.54,NNW,341,1.0,2.0,69,0.00,,---,0.00,VWS V14.00,2013-02-01 12:40:00,
2013-02-01 06:41:00,15.7,7.3,30.54,NNW,341,2.0,3.0,69,0.00,,---,0.00,VWS V14.00,2013-02-01 12:41:00,
2013-02-01 06:42:00,15.7,7.3,30.54,NNW,341,1.0,2.0,69,0.00,,---,0.00,VWS V14.00,2013-02-01 12:42:00,
2013-02-01 06:43:00,15.7,7.3,30.54,NNW,341,1.0,1.0,69,0.00,,---,0.00,VWS V14.00,2013-02-01 12:43:00,
2013-02-01 06:44:00,15.7,7.3,30.54,NNW,341,0.0,3.0,69,0.00,,---,0.00,VWS V14.00,2013-02-01 12:44:00,
2013-02-01 06:45:00,15.6,7.3,30.54,NNW,341,1.0,2.0,69,0.00,,---,0.00,VWS V14.00,2013-02-01 12:45:00,
2013-02-01 06:46:00,15.6,7.3,30.54,NNW,341,2.0,4.0,69,0.00,,---,0.00,VWS V14.00,2013-02-01 12:46:00,
2013-02-01 06:47:00,15.6,7.3,30.54,NNW,341,1.0,2.0,69,0.00,,---,0.00,VWS V14.00,2013-02-01 12:47:00,
2013-02-01 06:48:00,15.7,7.3,30.54,NNW,341,0.0,2.0,69,0.00,,---,0.00,VWS V14.00,2013-02-01 12:48:00,
2013-02-01 06:49:00,15.7,7.7,30.54,NNW,341,1.0,4.0,70,0.00,,---,0.00,VWS V14.00,2013-02-01 12:49:00,
2013-02-01 06:50:00,15.7,7.0,30.54,NNW,341,1.0,3.0,68,0.00,,---,0.00,VWS V14.00,2013-02-01 12:50:00,
2013-02-01 06:51:00,15.7,7.3,30.54,NNW,341,0.0,3.0,69,0.00,,---,0.00,VWS V14.00,2013-02-01 12:51:00,
2013-02-01 06:52:00,15.7,7.0,30.54,NNW,341,1.0,3.0,68,0.00,,---,0.00,VWS V14.00,2013-02-01 12:52:00,
2013-02-01 06:53:00,15.6,6.9,30.54,NNW,341,0.0,1.0,68,0.00,,---,0.00,VWS V14.00,2013-02-01 12:53:00,
2013-02-01 06:54:00,15.6,6.9,30.54,NNW,341,2.0,3.0,68,0.00,,---,0.00,VWS V14.00,2013-02-01 12:54:00,
2013-02-01 06:55:00,15.6,7.3,30.55,NNW,341,3.0,4.0,69,0.00,,---,0.00,VWS V14.00,2013-02-01 12:55:00,
2013-02-01 06:56:00,15.6,6.9,30.55,NNW,341,4.0,4.0,68,0.00,,---,0.00,VWS V14.00,2013-02-01 12:56:00,
2013-02-01 06:57:00,15.6,7.3,30.55,NNW,341,3.0,4.0,69,0.00,,---,0.00,VWS V14.00,2013-02-01 12:57:00,
2013-02-01 06:58:00,15.6,7.3,30.55,NNW,341,4.0,4.0,69,0.00,,---,0.00,VWS V14.00,2013-02-01 12:58:00,
2013-02-01 06:59:00,15.6,7.3,30.54,NNW,341,1.0,4.0,69,0.00,,---,0.00,VWS V14.00,2013-02-01 12:59:00,
2013-02-01 07:00:00,15.6,6.9,30.55,NNW,341,0.0,1.0,68,0.00,,---,0.00,VWS V14.00,2013-02-01 13:00:00,
2013-02-01 07:01:00,15.6,6.9,30.55,NNW,341,1.0,4.0,68,0.00,,---,0.00,VWS V14.00,2013-02-01 13:01:00,
2013-02-01 07:02:00,15.6,6.9,30.55,NNW,341,0.0,1.0,68,0.00,,---,0.00,VWS V14.00,2013-02-01 13:02:00,
2013-02-01 07:03:00,15.6,6.9,30.55,NNW,341,0.0,2.0,68,0.00,,---,0.00,VWS V14.00,2013-02-01 13:03:00,
2013-02-01 07:04:00,15.6,6.9,30.55,NNW,341,1.0,1.0,68,0.00,,---,0.00,VWS V14.00,2013-02-01 13:04:00,
2013-02-01 07:05:00,15.4,6.7,30.55,NNW,341,0.0,1.0,68,0.00,,---,0.00,VWS V14.00,2013-02-01 13:05:00,
2013-02-01 07:06:00,15.6,6.9,30.55,NNW,341,1.0,3.0,68,0.00,,---,0.00,VWS V14.00,2013-02-01 13:06:00,
2013-02-01 07:07:00,15.4,6.7,30.55,NNW,341,0.0,1.0,68,0.00,,---,0.00,VWS V14.00,2013-02-01 13:07:00,
2013-02-01 07:08:00,15.6,7.3,30.55,NNW,341,2.0,3.0,69,0.00,,---,0.00,VWS V14.00,2013-02-01 13:08:00,
2013-02-01 07:09:00,15.4,7.1,30.55,NNW,341,0.0,4.0,69,0.00,,---,0.00,VWS V14.00,2013-02-01 13:09:00,
2013-02-01 07:10:00,15.4,6.7,30.55,NNW,341,0.0,3.0,68,0.00,,---,0.00,VWS V14.00,2013-02-01 13:10:00,
2013-02-01 07:11:00,15.4,7.1,30.55,NNW,341,2.0,4.0,69,0.00,,---,0.00,VWS V14.00,2013-02-01 13:11:00,
2013-02-01 07:12:00,15.4,6.7,30.55,NNW,341,0.0,3.0,68,0.00,,---,0.00,VWS V14.00,2013-02-01 13:12:00,
2013-02-01 07:13:00,15.4,6.7,30.55,NNW,341,3.0,3.0,68,0.00,,---,0.00,VWS V14.00,2013-02-01 13:13:00,
2013-02-01 07:14:00,15.4,7.1,30.55,NNW,341,0.0,4.0,69,0.00,,---,0.00,VWS V14.00,2013-02-01 13:14:00,
2013-02-01 07:15:00,15.4,7.1,30.55,NNW,341,1.0,4.0,69,0.00,,---,0.00,VWS V14.00,2013-02-01 13:15:00,
2013-02-01 07:16:00,15.4,7.1,30.55,NNW,341,3.0,4.0,69,0.00,,---,0.00,VWS V14.00,2013-02-01 13:16:00,
2013-02-01 07:17:00,15.4,7.1,30.55,NNW,341,1.0,4.0,69,0.00,,---,0.00,VWS V14.00,2013-02-01 13:17:00,
2013-02-01 07:18:00,15.4,6.7,30.55,NNW,341,0.0,2.0,68,0.00,,---,0.00,VWS V14.00,2013-02-01 13:18:00,
2013-02-01 07:19:00,15.4,6.7,30.55,NNW,341,3.0,3.0,68,0.00,,---,0.00,VWS V14.00,2013-02-01 13:19:00,
2013-02-01 07:20:00,15.2,6.6,30.55,NNW,341,0.0,0.0,68,0.00,,---,0.00,VWS V14.00,2013-02-01 13:20:00,
2013-02-01 07:21:00,15.2,6.6,30.55,NNW,341,0.0,0.0,68,0.00,,---,0.00,VWS V14.00,2013-02-01 13:21:00,
2013-02-01 07:22:00,15.2,6.6,30.55,NNW,341,0.0,0.0,68,0.00,,---,0.00,VWS V14.00,2013-02-01 13:22:00,
2013-02-01 07:23:00,15.2,6.6,30.55,NNW,341,0.0,4.0,68,0.00,,---,0.00,VWS V14.00,2013-02-01 13:23:00,
2013-02-01 07:24:00,15.2,6.9,30.55,NNW,341,0.0,0.0,69,0.00,,---,0.00,VWS V14.00,2013-02-01 13:24:00,
2013-02-01 07:25:00,15.2,6.9,30.55,NNW,341,1.0,2.0,69,0.00,,---,0.00,VWS V14.00,2013-02-01 13:25:00,
2013-02-01 07:26:00,15.2,6.9,30.55,NNW,341,2.0,6.0,69,0.00,,---,0.00,VWS V14.00,2013-02-01 13:26:00,
2013-02-01 07:27:00,15.2,6.9,30.55,NNW,341,1.0,2.0,69,0.00,,---,0.00,VWS V14.00,2013-02-01 13:27:00,
2013-02-01 07:28:00,15.2,6.9,30.55,NNW,341,2.0,5.0,69,0.00,,---,0.00,VWS V14.00,2013-02-01 13:28:00,
2013-02-01 07:29:00,15.4,7.1,30.55,NNW,341,2.0,3.0,69,0.00,,---,0.00,VWS V14.00,2013-02-01 13:29:00,
2013-02-01 07:30:00,15.4,7.1,30.55,NNW,341,1.0,4.0,69,0.00,,---,0.00,VWS V14.00,2013-02-01 13:30:00,
2013-02-01 07:31:00,15.4,7.1,30.55,NNW,341,4.0,4.0,69,0.00,,---,0.00,VWS V14.00,2013-02-01 13:31:00,
2013-02-01 07:32:00,15.4,7.1,30.55,NNW,341,1.0,4.0,69,0.00,,---,0.00,VWS V14.00,2013-02-01 13:32:00,
2013-02-01 07:33:00,15.6,7.3,30.55,NNW,341,4.0,4.0,69,0.00,,---,0.00,VWS V14.00,2013-02-01 13:33:00,
2013-02-01 07:34:00,15.6,7.3,30.55,NNW,341,2.0,4.0,69,0.00,,---,0.00,VWS V14.00,2013-02-01 13:34:00,
2013-02-01 07:35:00,15.6,7.3,30.55,NNW,341,2.0,4.0,69,0.00,,---,0.00,VWS V14.00,2013-02-01 13:35:00,
2013-02-01 07:36:00,15.6,7.6,30.55,NNW,341,4.0,4.0,70,0.00,,---,0.00,VWS V14.00,2013-02-01 13:36:00,
2013-02-01 07:37:00,15.6,7.3,30.55,NNW,341,3.0,4.0,69,0.00,,---,0.00,VWS V14.00,2013-02-01 13:37:00,
2013-02-01 07:38:00,15.6,7.3,30.55,NNW,341,3.0,3.0,69,0.00,,---,0.00,VWS V14.00,2013-02-01 13:38:00,
2013-02-01 07:39:00,15.7,7.3,30.55,NNW,341,4.0,4.0,69,0.00,,---,0.00,VWS V14.00,2013-02-01 13:39:00,
2013-02-01 07:40:00,15.7,7.0,30.55,NNW,341,1.0,4.0,68,0.00,,---,0.00,VWS V14.00,2013-02-01 13:40:00,
2013-02-01 07:41:00,15.7,7.0,30.55,NNW,341,4.0,4.0,68,0.00,,---,0.00,VWS V14.00,2013-02-01 13:41:00,
2013-02-01 07:42:00,15.7,7.0,30.55,NNW,341,2.0,4.0,68,0.00,,---,0.00,VWS V14.00,2013-02-01 13:42:00,
2013-02-01 07:43:00,15.9,7.2,30.55,NNW,341,2.0,2.0,68,0.00,,---,0.00,VWS V14.00,2013-02-01 13:43:00,
2013-02-01 07:44:00,15.9,7.2,30.55,NNW,341,5.0,5.0,68,0.00,,---,0.00,VWS V14.00,2013-02-01 13:44:00,
2013-02-01 07:45:00,16.1,7.4,30.55,NNW,341,3.0,5.0,68,0.00,,---,0.00,VWS V14.00,2013-02-01 13:45:00,
2013-02-01 07:46:00,16.1,7.4,30.55,NNW,341,2.0,2.0,68,0.00,,---,0.00,VWS V14.00,2013-02-01 13:46:00,
2013-02-01 07:47:00,16.1,7.4,30.55,NNW,341,3.0,5.0,68,0.00,,---,0.00,VWS V14.00,2013-02-01 13:47:00,
2013-02-01 07:48:00,16.2,7.8,30.55,NNW,341,0.0,3.0,69,0.00,,---,0.00,VWS V14.00,2013-02-01 13:48:00,
2013-02-01 07:49:00,16.2,7.8,30.55,NNW,341,4.0,5.0,69,0.00,,---,0.00,VWS V14.00,2013-02-01 13:49:00,
2013-02-01 07:50:00,16.4,8.0,30.55,NNW,341,5.0,6.0,69,0.00,,---,0.00,VWS V14.00,2013-02-01 13:50:00,
2013-02-01 07:51:00,16.4,7.7,30.55,NNW,341,2.0,3.0,68,0.00,,---,0.00,VWS V14.00,2013-02-01 13:51:00,
2013-02-01 07:52:00,16.4,8.0,30.55,NNW,341,4.0,6.0,69,0.00,,---,0.00,VWS V14.00,2013-02-01 13:52:00,
2013-02-01 07:53:00,16.4,7.7,30.55,NNW,341,1.0,4.0,68,0.00,,---,0.00,VWS V14.00,2013-02-01 13:53:00,
2013-02-01 07:54:00,16.4,8.0,30.55,North,349,4.0,9.0,69,0.00,,---,0.00,VWS V14.00,2013-02-01 13:54:00,
2013-02-01 07:55:00,16.4,7.4,30.55,North,355,6.0,6.0,67,0.00,,---,0.00,VWS V14.00,2013-02-01 13:55:00,
2013-02-01 07:56:00,16.4,7.7,30.55,North,355,6.0,6.0,68,0.00,,---,0.00,VWS V14.00,2013-02-01 13:56:00,
2013-02-01 07:57:00,16.4,7.4,30.55,North,355,6.0,6.0,67,0.00,,---,0.00,VWS V14.00,2013-02-01 13:57:00,
2013-02-01 07:58:00,16.4,7.7,30.55,North,360,3.0,6.0,68,0.00,,---,0.00,VWS V14.00,2013-02-01 13:58:00,
2013-02-01 07:59:00,16.4,7.4,30.55,North,5,4.0,6.0,67,0.00,,---,0.00,VWS V14.00,2013-02-01 13:59:00,
2013-02-01 08:00:00,16.5,7.5,30.55,NNE,25,7.0,7.0,67,0.00,,---,0.00,VWS V14.00,2013-02-01 14:00:00,
2013-02-01 08:01:00,16.4,7.4,30.55,North,11,2.0,7.0,67,0.00,,---,0.00,VWS V14.00,2013-02-01 14:01:00,
2013-02-01 08:02:00,16.5,7.5,30.55,NNE,25,7.0,7.0,67,0.00,,---,0.00,VWS V14.00,2013-02-01 14:02:00,
2013-02-01 08:03:00,16.5,7.8,30.55,ESE,107,3.0,8.0,68,0.00,,---,0.00,VWS V14.00,2013-02-01 14:03:00,
2013-02-01 08:04:00,16.5,7.8,30.55,ESE,117,3.0,8.0,68,0.00,,---,0.00,VWS V14.00,2013-02-01 14:04:00,
2013-02-01 08:05:00,16.7,7.7,30.55,ESE,121,6.0,6.0,67,0.00,,---,0.00,VWS V14.00,2013-02-01 14:05:00,
2013-02-01 08:06:00,16.7,7.7,30.55,ESE,117,6.0,6.0,67,0.00,,---,0.00,VWS V14.00,2013-02-01 14:06:00,
2013-02-01 08:07:00,16.7,7.7,30.55,ESE,121,6.0,6.0,67,0.00,,---,0.00,VWS V14.00,2013-02-01 14:07:00,
2013-02-01 08:08:00,16.7,8.0,30.55,ESE,122,6.0,6.0,68,0.00,,---,0.00,VWS V14.00,2013-02-01 14:08:00,
2013-02-01 08:09:00,16.9,8.2,30.55,ESE,122,9.0,9.0,68,0.00,,---,0.00,VWS V14.00,2013-02-01 14:09:00,
2013-02-01 08:10:00,16.9,7.8,30.55,ESE,121,0.0,3.0,67,0.00,,---,0.00,VWS V14.00,2013-02-01 14:10:00,
2013-02-01 08:11:00,16.9,7.8,30.55,ESE,121,2.0,5.0,67,0.00,,---,0.00,VWS V14.00,2013-02-01 14:11:00,
2013-02-01 08:12:00,16.9,7.8,30.55,ESE,121,0.0,3.0,67,0.00,,---,0.00,VWS V14.00,2013-02-01 14:12:00,
2013-02-01 08:13:00,16.9,7.8,30.55,ESE,121,2.0,3.0,67,0.00,,---,0.00,VWS V14.00,2013-02-01 14:13:00,
2013-02-01 08:14:00,17.0,7.9,30.54,ESE,122,5.0,7.0,67,0.00,,---,0.00,VWS V14.00,2013-02-01 14:14:00,
2013-02-01 08:15:00,17.2,7.8,30.54,ESE,122,3.0,7.0,66,0.00,,---,0.00,VWS V14.00,2013-02-01 14:15:00,
2013-02-01 08:16:00,17.2,8.1,30.55,SE,125,2.0,7.0,67,0.00,,---,0.00,VWS V14.00,2013-02-01 14:16:00,
2013-02-01 08:17:00,17.2,7.8,30.54,ESE,122,3.0,7.0,66,0.00,,---,0.00,VWS V14.00,2013-02-01 14:17:00,
2013-02-01 08:18:00,17.2,7.8,30.54,ESE,122,5.0,5.0,66,0.00,,---,0.00,VWS V14.00,2013-02-01 14:18:00,
2013-02-01 08:19:00,17.2,8.1,30.54,ESE,122,4.0,5.0,67,0.00,,---,0.00,VWS V14.00,2013-02-01 14:19:00,
2013-02-01 08:20:00,17.5,8.4,30.54,ESE,123,2.0,6.0,67,0.00,,---,0.00,VWS V14.00,2013-02-01 14:20:00,
2013-02-01 08:21:00,17.3,8.2,30.54,ESE,122,1.0,5.0,67,0.00,,---,0.00,VWS V14.00,2013-02-01 14:21:00,
2013-02-01 08:22:00,17.5,8.4,30.54,ESE,123,2.0,6.0,67,0.00,,---,0.00,VWS V14.00,2013-02-01 14:22:00,
2013-02-01 08:23:00,17.5,8.1,30.54,ESE,123,1.0,5.0,66,0.00,,---,0.00,VWS V14.00,2013-02-01 14:23:00,
2013-02-01 08:24:00,17.5,8.1,30.54,SE,129,5.0,11.0,66,0.00,,---,0.00,VWS V14.00,2013-02-01 14:24:00,
2013-02-01 08:25:00,17.5,7.8,30.54,SE,132,2.0,8.0,65,0.00,,---,0.00,VWS V14.00,2013-02-01 14:25:00,
2013-02-01 08:26:00,17.5,7.8,30.54,SE,132,8.0,10.0,65,0.00,,---,0.00,VWS V14.00,2013-02-01 14:26:00,
2013-02-01 08:27:00,17.5,7.8,30.54,SE,132,2.0,8.0,65,0.00,,---,0.00,VWS V14.00,2013-02-01 14:27:00,
2013-02-01 08:28:00,17.7,7.9,30.54,SE,132,4.0,4.0,65,0.00,,---,0.00,VWS V14.00,2013-02-01 14:28:00,
2013-02-01 08:29:00,17.7,7.9,30.54,SE,130,1.0,7.0,65,0.00,,---,0.00,VWS V14.00,2013-02-01 14:29:00,
2013-02-01 08:30:00,18.0,8.2,30.54,SE,132,4.0,11.0,65,0.00,,---,0.00,VWS V14.00,2013-02-01 14:30:00,
2013-02-01 08:31:00,17.8,8.0,30.54,SE,130,6.0,10.0,65,0.00,,---,0.00,VWS V14.00,2013-02-01 14:31:00,
2013-02-01 08:32:00,18.0,8.2,30.54,SE,132,4.0,11.0,65,0.00,,---,0.00,VWS V14.00,2013-02-01 14:32:00,
2013-02-01 08:33:00,18.0,7.9,30.54,SE,132,3.0,6.0,64,0.00,,---,0.00,VWS V14.00,2013-02-01 14:33:00,
2013-02-01 08:34:00,18.0,7.9,30.54,SE,131,4.0,5.0,64,0.00,,---,0.00,VWS V14.00,2013-02-01 14:34:00,
2013-02-01 08:35:00,18.0,7.5,30.53,SE,131,1.0,6.0,63,0.00,,---,0.00,VWS V14.00,2013-02-01 14:35:00,
2013-02-01 08:36:00,18.0,7.5,30.53,SE,131,6.0,6.0,63,0.00,,---,0.00,VWS V14.00,2013-02-01 14:36:00,
2013-02-01 08:37:00,18.0,7.5,30.53,SE,131,4.0,6.0,63,0.00,,---,0.00,VWS V14.00,2013-02-01 14:37:00,
2013-02-01 08:38:00,18.0,7.5,30.54,SE,134,2.0,11.0,63,0.00,,---,0.00,VWS V14.00,2013-02-01 14:38:00,
2013-02-01 08:39:00,18.0,7.2,30.54,SE,134,3.0,4.0,62,0.00,,---,0.00,VWS V14.00,2013-02-01 14:39:00,
2013-02-01 08:40:00,18.0,7.2,30.54,SE,134,5.0,10.0,62,0.00,,---,0.00,VWS V14.00,2013-02-01 14:40:00,
2013-02-01 08:41:00,18.0,7.2,30.54,SE,133,8.0,8.0,62,0.00,,---,0.00,VWS V14.00,2013-02-01 14:41:00,
2013-02-01 08:42:00,18.0,7.2,30.54,SE,134,5.0,10.0,62,0.00,,---,0.00,VWS V14.00,2013-02-01 14:42:00,
2013-02-01 08:43:00,18.0,7.2,30.54,SE,127,4.0,13.0,62,0.00,,---,0.00,VWS V14.00,2013-02-01 14:43:00,
2013-02-01 08:44:00,18.1,7.3,30.54,SE,128,4.0,8.0,62,0.00,,---,0.00,VWS V14.00,2013-02-01 14:44:00,
2013-02-01 08:45:00,18.4,8.3,30.54,SE,129,6.0,6.0,64,0.00,,---,0.00,VWS V14.00,2013-02-01 14:45:00,
2013-02-01 08:46:00,18.3,7.5,30.54,SE,128,4.0,7.0,62,0.00,,---,0.00,VWS V14.00,2013-02-01 14:46:00,
2013-02-01 08:47:00,18.4,8.3,30.54,SE,129,6.0,6.0,64,0.00,,---,0.00,VWS V14.00,2013-02-01 14:47:00,
2013-02-01 08:48:00,18.6,8.5,30.54,SE,129,4.0,11.0,64,0.00,,---,0.00,VWS V14.00,2013-02-01 14:48:00,
2013-02-01 08:49:00,18.6,7.8,30.53,SE,129,11.0,11.0,62,0.00,,---,0.00,VWS V14.00,2013-02-01 14:49:00,
2013-02-01 08:50:00,18.8,8.6,30.54,SE,129,2.0,4.0,64,0.00,,---,0.00,VWS V14.00,2013-02-01 14:50:00,
2013-02-01 08:51:00,18.6,8.1,30.54,SE,130,4.0,9.0,63,0.00,,---,0.00,VWS V14.00,2013-02-01 14:51:00,
2013-02-01 08:52:00,18.8,8.6,30.54,SE,129,2.0,4.0,64,0.00,,---,0.00,VWS V14.00,2013-02-01 14:52:00,
2013-02-01 08:53:00,18.9,8.8,30.54,SE,129,4.0,4.0,64,0.00,,---,0.00,VWS V14.00,2013-02-01 14:53:00,
2013-02-01 08:54:00,19.1,8.6,30.54,SE,129,0.0,5.0,63,0.00,,---,0.00,VWS V14.00,2013-02-01 14:54:00,
2013-02-01 08:55:00,19.1,8.6,30.53,SE,132,4.0,9.0,63,0.00,,---,0.00,VWS V14.00,2013-02-01 14:55:00,
2013-02-01 08:56:00,19.2,8.7,30.53,SE,131,9.0,11.0,63,0.00,,---,0.00,VWS V14.00,2013-02-01 14:56:00,
2013-02-01 08:57:00,19.1,8.6,30.53,SE,132,4.0,9.0,63,0.00,,---,0.00,VWS V14.00,2013-02-01 14:57:00,
2013-02-01 08:58:00,19.1,8.2,30.53,SE,130,1.0,12.0,62,0.00,,---,0.00,VWS V14.00,2013-02-01 14:58:00,
2013-02-01 08:59:00,19.1,8.2,30.53,SE,130,6.0,10.0,62,0.00,,---,0.00,VWS V14.00,2013-02-01 14:59:00,
2013-02-01 09:00:00,19.1,8.2,30.53,SE,130,0.0,2.0,62,0.00,,---,0.00,VWS V14.00,2013-02-01 15:00:00,
2013-02-01 09:01:00,19.1,8.2,30.53,SE,130,2.0,8.0,62,0.00,,---,0.00,VWS V14.00,2013-02-01 15:01:00,
2013-02-01 09:02:00,19.1,8.2,30.53,SE,130,0.0,2.0,62,0.00,,---,0.00,VWS V14.00,2013-02-01 15:02:00,
2013-02-01 09:03:00,19.2,8.7,30.53,SE,130,3.0,4.0,63,0.00,,---,0.00,VWS V14.00,2013-02-01 15:03:00,
2013-02-01 09:04:00,19.2,8.3,30.53,SE,130,6.0,7.0,62,0.00,,---,0.00,VWS V14.00,2013-02-01 15:04:00,
2013-02-01 09:05:00,19.4,8.5,30.53,SE,132,5.0,5.0,62,0.00,,---,0.00,VWS V14.00,2013-02-01 15:05:00,
2013-02-01 09:06:00,19.4,8.5,30.53,SE,132,5.0,9.0,62,0.00,,---,0.00,VWS V14.00,2013-02-01 15:06:00,
2013-02-01 09:07:00,19.4,8.5,30.53,SE,132,5.0,5.0,62,0.00,,---,0.00,VWS V14.00,2013-02-01 15:07:00,
2013-02-01 09:08:00,19.5,8.6,30.53,SE,132,2.0,5.0,62,0.00,,---,0.00,VWS V14.00,2013-02-01 15:08:00,
2013-02-01 09:09:00,19.7,8.8,30.53,SE,132,6.0,6.0,62,0.00,,---,0.00,VWS V14.00,2013-02-01 15:09:00,
2013-02-01 09:10:00,20.0,9.1,30.54,SE,132,6.0,10.0,62,0.00,,---,0.00,VWS V14.00,2013-02-01 15:10:00,
2013-02-01 09:11:00,19.9,9.0,30.53,SE,132,0.0,7.0,62,0.00,,---,0.00,VWS V14.00,2013-02-01 15:11:00,
2013-02-01 09:12:00,20.0,9.1,30.54,SE,132,5.0,10.0,62,0.00,,---,0.00,VWS V14.00,2013-02-01 15:12:00,
2013-02-01 09:13:00,20.0,8.7,30.54,SE,132,5.0,5.0,61,0.00,,---,0.00,VWS V14.00,2013-02-01 15:13:00,
2013-02-01 09:14:00,20.0,9.8,30.54,SE,132,7.0,7.0,64,0.00,,---,0.00,VWS V14.00,2013-02-01 15:14:00,
2013-02-01 09:15:00,20.2,9.3,30.54,SE,132,1.0,5.0,62,0.00,,---,0.00,VWS V14.00,2013-02-01 15:15:00,
2013-02-01 09:16:00,20.0,8.4,30.54,SE,132,3.0,5.0,60,0.00,,---,0.00,VWS V14.00,2013-02-01 15:16:00,
2013-02-01 09:17:00,20.2,9.3,30.55,SE,132,1.0,5.0,62,0.00,,---,0.00,VWS V14.00,2013-02-01 15:17:00,
2013-02-01 09:18:00,20.2,8.6,30.55,SE,132,0.0,2.0,60,0.00,,---,0.00,VWS V14.00,2013-02-01 15:18:00,
2013-02-01 09:19:00,20.3,8.6,30.55,SE,132,6.0,7.0,60,0.00,,---,0.00,VWS V14.00,2013-02-01 15:19:00,
2013-02-01 09:20:00,20.5,8.5,30.54,SE,132,4.0,9.0,59,0.00,,---,0.00,VWS V14.00,2013-02-01 15:20:00,
2013-02-01 09:21:00,20.3,8.3,30.55,SE,132,4.0,4.0,59,0.00,,---,0.00,VWS V14.00,2013-02-01 15:21:00,
2013-02-01 09:22:00,20.5,8.5,30.54,SE,132,3.0,9.0,59,0.00,,---,0.00,VWS V14.00,2013-02-01 15:22:00,
2013-02-01 09:23:00,20.5,8.5,30.54,SE,132,3.0,5.0,59,0.00,,---,0.00,VWS V14.00,2013-02-01 15:23:00,
2013-02-01 09:24:00,20.6,8.9,30.54,SE,132,3.0,6.0,60,0.00,,---,0.00,VWS V14.00,2013-02-01 15:24:00,
2013-02-01 09:25:00,20.8,8.8,30.54,SE,132,2.0,5.0,59,0.00,,---,0.00,VWS V14.00,2013-02-01 15:25:00,
2013-02-01 09:26:00,20.6,8.6,30.54,SE,132,2.0,4.0,59,0.00,,---,0.00,VWS V14.00,2013-02-01 15:26:00,
2013-02-01 09:27:00,20.8,8.8,30.54,SE,132,3.0,5.0,59,0.00,,---,0.00,VWS V14.00,2013-02-01 15:27:00,
2013-02-01 09:28:00,20.8,8.8,30.54,SE,132,2.0,4.0,59,0.00,,---,0.00,VWS V14.00,2013-02-01 15:28:00,
2013-02-01 09:29:00,21.0,8.9,30.54,SE,132,7.0,7.0,59,0.00,,---,0.00,VWS V14.00,2013-02-01 15:29:00,
2013-02-01 09:30:00,21.0,8.9,30.54,SE,132,4.0,4.0,59,0.00,,---,0.00,VWS V14.00,2013-02-01 15:30:00,
2013-02-01 09:31:00,21.0,8.6,30.54,SE,132,3.0,6.0,58,0.00,,---,0.00,VWS V14.00,2013-02-01 15:31:00,
2013-02-01 09:32:00,21.0,8.9,30.54,SE,132,4.0,4.0,59,0.00,,---,0.00,VWS V14.00,2013-02-01 15:32:00,
2013-02-01 09:33:00,21.0,8.9,30.54,SE,132,0.0,4.0,59,0.00,,---,0.00,VWS V14.00,2013-02-01 15:33:00,
2013-02-01 09:34:00,21.0,8.9,30.54,SE,132,3.0,4.0,59,0.00,,---,0.00,VWS V14.00,2013-02-01 15:34:00,
2013-02-01 09:35:00,21.3,9.2,30.54,SE,132,5.0,8.0,59,0.00,,---,0.00,VWS V14.00,2013-02-01 15:35:00,
2013-02-01 09:36:00,21.1,9.0,30.54,SE,132,2.0,3.0,59,0.00,,---,0.00,VWS V14.00,2013-02-01 15:36:00,
2013-02-01 09:37:00,21.3,9.2,30.54,SE,132,5.0,8.0,59,0.00,,---,0.00,VWS V14.00,2013-02-01 15:37:00,
2013-02-01 09:38:00,21.4,9.3,30.54,SE,132,3.0,6.0,59,0.00,,---,0.00,VWS V14.00,2013-02-01 15:38:00,
2013-02-01 09:39:00,21.4,8.9,30.54,SE,132,3.0,4.0,58,0.00,,---,0.00,VWS V14.00,2013-02-01 15:39:00,
2013-02-01 09:40:00,21.6,9.5,30.54,SE,132,2.0,5.0,59,0.00,,---,0.00,VWS V14.00,2013-02-01 15:40:00,
2013-02-01 09:41:00,21.6,9.1,30.54,SE,132,5.0,5.0,58,0.00,,---,0.00,VWS V14.00,2013-02-01 15:41:00,
2013-02-01 09:42:00,21.6,9.5,30.54,SE,132,3.0,5.0,59,0.00,,---,0.00,VWS V14.00,2013-02-01 15:42:00,
2013-02-01 09:43:00,21.6,9.1,30.54,SE,132,4.0,5.0,58,0.00,,---,0.00,VWS V14.00,2013-02-01 15:43:00,
2013-02-01 09:44:00,21.6,9.1,30.54,SE,132,0.0,4.0,58,0.00,,---,0.00,VWS V14.00,2013-02-01 15:44:00,
2013-02-01 09:45:00,21.9,9.4,30.54,SE,132,0.0,3.0,58,0.00,,---,0.00,VWS V14.00,2013-02-01 15:45:00,
2013-02-01 09:46:00,21.8,9.3,30.54,SE,132,3.0,4.0,58,0.00,,---,0.00,VWS V14.00,2013-02-01 15:46:00,
2013-02-01 09:47:00,21.9,9.4,30.54,SE,132,1.0,3.0,58,0.00,,---,0.00,VWS V14.00,2013-02-01 15:47:00,
2013-02-01 09:48:00,22.2,9.7,30.54,SE,132,1.0,3.0,58,0.00,,---,0.00,VWS V14.00,2013-02-01 15:48:00,
2013-02-01 09:49:00,22.4,10.3,30.54,SE,132,0.0,2.0,59,0.00,,---,0.00,VWS V14.00,2013-02-01 15:49:00,
2013-02-01 09:50:00,22.5,10.0,30.54,SE,132,3.0,7.0,58,0.00,,---,0.00,VWS V14.00,2013-02-01 15:50:00,
2013-02-01 09:51:00,22.5,10.0,30.54,SE,132,2.0,4.0,58,0.00,,---,0.00,VWS V14.00,2013-02-01 15:51:00,
2013-02-01 09:52:00,22.5,10.0,30.54,SE,132,3.0,7.0,58,0.00,,---,0.00,VWS V14.00,2013-02-01 15:52:00,
2013-02-01 09:53:00,22.5,9.2,30.54,SE,132,0.0,3.0,56,0.00,,---,0.00,VWS V14.00,2013-02-01 15:53:00,
2013-02-01 09:54:00,22.5,9.6,30.54,SE,132,2.0,2.0,57,0.00,,---,0.00,VWS V14.00,2013-02-01 15:54:00,
2013-02-01 09:55:00,22.7,9.8,30.54,SE,132,0.0,0.0,57,0.00,,---,0.00,VWS V14.00,2013-02-01 15:55:00,
2013-02-01 09:56:00,22.5,9.6,30.54,SE,132,0.0,1.0,57,0.00,,---,0.00,VWS V14.00,2013-02-01 15:56:00,
2013-02-01 09:57:00,22.7,9.8,30.54,SE,132,0.0,0.0,57,0.00,,---,0.00,VWS V14.00,2013-02-01 15:57:00,
2013-02-01 09:58:00,22.7,9.8,30.54,SE,132,2.0,3.0,57,0.00,,---,0.00,VWS V14.00,2013-02-01 15:58:00,
2013-02-01 09:59:00,22.9,10.0,30.54,SE,132,5.0,6.0,57,0.00,,---,0.00,VWS V14.00,2013-02-01 15:59:00,
2013-02-01 10:00:00,23.0,8.9,30.54,SE,132,4.0,7.0,54,0.00,,---,0.00,VWS V14.00,2013-02-01 16:00:00,
2013-02-01 10:01:00,23.0,8.9,30.54,SE,132,5.0,6.0,54,0.00,,---,0.00,VWS V14.00,2013-02-01 16:01:00,
2013-02-01 10:02:00,23.0,8.9,30.54,SE,132,4.0,7.0,54,0.00,,---,0.00,VWS V14.00,2013-02-01 16:02:00,
2013-02-01 10:03:00,23.0,9.2,30.54,SE,132,4.0,6.0,55,0.00,,---,0.00,VWS V14.00,2013-02-01 16:03:00,
2013-02-01 10:04:00,23.0,8.9,30.54,SE,132,1.0,5.0,54,0.00,,---,0.00,VWS V14.00,2013-02-01 16:04:00,
2013-02-01 10:05:00,23.3,9.1,30.54,SE,132,0.0,1.0,54,0.00,,---,0.00,VWS V14.00,2013-02-01 16:05:00,
2013-02-01 10:06:00,23.2,9.0,30.54,SE,132,0.0,1.0,54,0.00,,---,0.00,VWS V14.00,2013-02-01 16:06:00,
2013-02-01 10:07:00,23.3,9.1,30.54,SE,132,0.0,1.0,54,0.00,,---,0.00,VWS V14.00,2013-02-01 16:07:00,
2013-02-01 10:08:00,23.5,9.3,30.54,SE,132,2.0,3.0,54,0.00,,---,0.00,VWS V14.00,2013-02-01 16:08:00,
2013-02-01 10:09:00,23.6,9.4,30.54,SE,132,0.0,5.0,54,0.00,,---,0.00,VWS V14.00,2013-02-01 16:09:00,
2013-02-01 10:10:00,24.1,9.9,30.54,SE,132,0.0,4.0,54,0.00,,---,0.00,VWS V14.00,2013-02-01 16:10:00,
2013-02-01 10:11:00,23.9,9.7,30.54,SE,132,4.0,4.0,54,0.00,,---,0.00,VWS V14.00,2013-02-01 16:11:00,
2013-02-01 10:12:00,24.1,9.9,30.54,SE,132,1.0,4.0,54,0.00,,---,0.00,VWS V14.00,2013-02-01 16:12:00,
2013-02-01 10:13:00,24.2,9.6,30.54,SE,132,3.0,4.0,53,0.00,,---,0.00,VWS V14.00,2013-02-01 16:13:00,
2013-02-01 10:14:00,24.4,9.7,30.54,SE,132,1.0,3.0,53,0.00,,---,0.00,VWS V14.00,2013-02-01 16:14:00,
2013-02-01 10:15:00,24.7,10.0,30.54,SE,132,2.0,3.0,53,0.00,,---,0.00,VWS V14.00,2013-02-01 16:15:00,
2013-02-01 10:16:00,24.5,9.4,30.54,SE,132,2.0,3.0,52,0.00,,---,0.00,VWS V14.00,2013-02-01 16:16:00,
2013-02-01 10:17:00,24.7,10.0,30.54,SE,132,2.0,3.0,53,0.00,,---,0.00,VWS V14.00,2013-02-01 16:17:00,
2013-02-01 10:18:00,24.8,9.7,30.54,SE,132,2.0,2.0,52,0.00,,---,0.00,VWS V14.00,2013-02-01 16:18:00,
2013-02-01 10:19:00,24.8,9.7,30.54,SE,132,3.0,3.0,52,0.00,,---,0.00,VWS V14.00,2013-02-01 16:19:00,
2013-02-01 10:20:00,24.8,9.2,30.54,SE,132,1.0,4.0,51,0.00,,---,0.00,VWS V14.00,2013-02-01 16:20:00,
2013-02-01 10:21:00,24.8,8.8,30.54,SE,132,4.0,6.0,50,0.00,,---,0.00,VWS V14.00,2013-02-01 16:21:00,
2013-02-01 10:22:00,24.8,9.2,30.54,SE,132,1.0,4.0,51,0.00,,---,0.00,VWS V14.00,2013-02-01 16:22:00,
2013-02-01 10:23:00,24.8,9.2,30.54,SE,132,0.0,0.0,51,0.00,,---,0.00,VWS V14.00,2013-02-01 16:23:00,
2013-02-01 10:24:00,25.0,9.4,30.54,SE,132,0.0,0.0,51,0.00,,---,0.00,VWS V14.00,2013-02-01 16:24:00,
2013-02-01 10:25:00,25.3,9.7,30.54,SE,132,3.0,5.0,51,0.00,,---,0.00,VWS V14.00,2013-02-01 16:25:00,
2013-02-01 10:26:00,25.3,10.1,30.54,SE,132,5.0,6.0,52,0.00,,---,0.00,VWS V14.00,2013-02-01 16:26:00,
2013-02-01 10:27:00,25.3,9.7,30.53,SE,132,3.0,5.0,51,0.00,,---,0.00,VWS V14.00,2013-02-01 16:27:00,
2013-02-01 10:28:00,25.3,9.7,30.53,SE,132,2.0,3.0,51,0.00,,---,0.00,VWS V14.00,2013-02-01 16:28:00,
2013-02-01 10:29:00,25.3,9.7,30.53,SE,132,1.0,3.0,51,0.00,,---,0.00,VWS V14.00,2013-02-01 16:29:00,
2013-02-01 10:30:00,25.6,10.0,30.53,SE,132,0.0,4.0,51,0.00,,---,0.00,VWS V14.00,2013-02-01 16:30:00,
2013-02-01 10:31:00,25.4,9.8,30.53,SE,132,4.0,4.0,51,0.00,,---,0.00,VWS V14.00,2013-02-01 16:31:00,
2013-02-01 10:32:00,25.6,9.6,30.53,SE,132,2.0,4.0,50,0.00,,---,0.00,VWS V14.00,2013-02-01 16:32:00,
2013-02-01 10:33:00,25.6,9.6,30.53,SE,132,2.0,5.0,50,0.00,,---,0.00,VWS V14.00,2013-02-01 16:33:00,
2013-02-01 10:34:00,25.6,9.6,30.53,SE,132,2.0,2.0,50,0.00,,---,0.00,VWS V14.00,2013-02-01 16:34:00,
2013-02-01 10:35:00,25.7,9.6,30.52,SE,133,8.0,8.0,50,0.00,,---,0.00,VWS V14.00,2013-02-01 16:35:00,
2013-02-01 10:36:00,25.6,9.6,30.52,SE,132,1.0,3.0,50,0.00,,---,0.00,VWS V14.00,2013-02-01 16:36:00,
2013-02-01 10:37:00,25.7,9.6,30.52,SE,133,10.0,10.0,50,0.00,,---,0.00,VWS V14.00,2013-02-01 16:37:00,
2013-02-01 10:38:00,25.8,8.8,30.52,SE,133,4.0,10.0,48,0.00,,---,0.00,VWS V14.00,2013-02-01 16:38:00,
2013-02-01 10:39:00,25.8,8.8,30.52,SE,133,0.0,6.0,48,0.00,,---,0.00,VWS V14.00,2013-02-01 16:39:00,
2013-02-01 10:40:00,26.1,9.1,30.52,SE,133,3.0,5.0,48,0.00,,---,0.00,VWS V14.00,2013-02-01 16:40:00,
2013-02-01 10:41:00,26.0,9.0,30.52,SE,133,3.0,3.0,48,0.00,,---,0.00,VWS V14.00,2013-02-01 16:41:00,
2013-02-01 10:42:00,26.1,9.1,30.52,SE,133,2.0,5.0,48,0.00,,---,0.00,VWS V14.00,2013-02-01 16:42:00,
2013-02-01 10:43:00,26.1,9.1,30.52,SE,133,5.0,5.0,48,0.00,,---,0.00,VWS V14.00,2013-02-01 16:43:00,
2013-02-01 10:44:00,26.1,9.1,30.52,SE,132,2.0,5.0,48,0.00,,---,0.00,VWS V14.00,2013-02-01 16:44:00,
2013-02-01 10:45:00,26.6,9.6,30.52,SE,132,2.0,3.0,48,0.00,,---,0.00,VWS V14.00,2013-02-01 16:45:00,
2013-02-01 10:46:00,26.4,9.8,30.52,SE,132,3.0,6.0,49,0.00,,---,0.00,VWS V14.00,2013-02-01 16:46:00,
2013-02-01 10:47:00,26.6,9.6,30.52,SE,132,2.0,3.0,48,0.00,,---,0.00,VWS V14.00,2013-02-01 16:47:00,
2013-02-01 10:48:00,26.7,10.1,30.52,SE,132,2.0,3.0,49,0.00,,---,0.00,VWS V14.00,2013-02-01 16:48:00,
2013-02-01 10:49:00,26.9,9.4,30.52,SE,132,4.0,4.0,47,0.00,,---,0.00,VWS V14.00,2013-02-01 16:49:00,
2013-02-01 10:50:00,27.0,9.9,30.52,SE,132,2.0,6.0,48,0.00,,---,0.00,VWS V14.00,2013-02-01 16:50:00,
2013-02-01 10:51:00,27.0,9.9,30.52,SE,132,5.0,5.0,48,0.00,,---,0.00,VWS V14.00,2013-02-01 16:51:00,
2013-02-01 10:52:00,27.0,9.9,30.52,SE,132,1.0,6.0,48,0.00,,---,0.00,VWS V14.00,2013-02-01 16:52:00,
2013-02-01 10:53:00,27.0,9.0,30.52,SE,132,3.0,4.0,46,0.00,,---,0.00,VWS V14.00,2013-02-01 16:53:00,
2013-02-01 10:54:00,27.2,9.6,30.52,SE,132,0.0,6.0,47,0.00,,---,0.00,VWS V14.00,2013-02-01 16:54:00,
2013-02-01 10:55:00,27.6,10.0,30.52,SE,132,0.0,0.0,47,0.00,,---,0.00,VWS V14.00,2013-02-01 16:55:00,
2013-02-01 10:56:00,27.3,9.7,30.52,SE,132,0.0,1.0,47,0.00,,---,0.00,VWS V14.00,2013-02-01 16:56:00,
2013-02-01 10:57:00,27.6,10.0,30.52,SE,132,0.0,0.0,47,0.00,,---,0.00,VWS V14.00,2013-02-01 16:57:00,
2013-02-01 10:58:00,27.8,10.2,30.52,SE,132,0.0,2.0,47,0.00,,---,0.00,VWS V14.00,2013-02-01 16:58:00,
2013-02-01 10:59:00,28.1,10.0,30.52,SE,132,4.0,4.0,46,0.00,,---,0.00,VWS V14.00,2013-02-01 16:59:00,
2013-02-01 11:00:00,28.2,9.6,30.52,SE,132,2.0,3.0,45,0.00,,---,0.00,VWS V14.00,2013-02-01 17:00:00,
2013-02-01 11:01:00,28.2,9.1,30.52,SE,132,3.0,8.0,44,0.00,,---,0.00,VWS V14.00,2013-02-01 17:01:00,
2013-02-01 11:02:00,28.2,9.6,30.52,SE,132,1.0,3.0,45,0.00,,---,0.00,VWS V14.00,2013-02-01 17:02:00,
2013-02-01 11:03:00,28.4,9.8,30.52,SE,132,0.0,1.0,45,0.00,,---,0.00,VWS V14.00,2013-02-01 17:03:00,
2013-02-01 11:04:00,28.5,9.9,30.52,SE,132,4.0,5.0,45,0.00,,---,0.00,VWS V14.00,2013-02-01 17:04:00,
2013-02-01 11:05:00,28.5,9.4,30.52,SE,132,3.0,4.0,44,0.00,,---,0.00,VWS V14.00,2013-02-01 17:05:00,
2013-02-01 11:06:00,28.5,9.4,30.52,SE,132,1.0,4.0,44,0.00,,---,0.00,VWS V14.00,2013-02-01 17:06:00,
2013-02-01 11:07:00,28.5,9.4,30.52,SE,132,3.0,4.0,44,0.00,,---,0.00,VWS V14.00,2013-02-01 17:07:00,
2013-02-01 11:08:00,28.5,8.9,30.52,SE,132,2.0,3.0,43,0.00,,---,0.00,VWS V14.00,2013-02-01 17:08:00,
2013-02-01 11:09:00,28.5,8.9,30.52,SE,132,0.0,2.0,43,0.00,,---,0.00,VWS V14.00,2013-02-01 17:09:00,
2013-02-01 11:10:00,29.1,9.9,30.52,SE,132,4.0,5.0,44,0.00,,---,0.00,VWS V14.00,2013-02-01 17:10:00,
2013-02-01 11:11:00,29.0,9.8,30.52,SE,132,2.0,3.0,44,0.00,,---,0.00,VWS V14.00,2013-02-01 17:11:00,
2013-02-01 11:12:00,29.1,9.9,30.52,SE,132,3.0,5.0,44,0.00,,---,0.00,VWS V14.00,2013-02-01 17:12:00,
2013-02-01 11:13:00,29.1,9.4,30.52,SE,132,6.0,6.0,43,0.00,,---,0.00,VWS V14.00,2013-02-01 17:13:00,
2013-02-01 11:14:00,29.1,9.4,30.52,SE,132,5.0,6.0,43,0.00,,---,0.00,VWS V14.00,2013-02-01 17:14:00,
2013-02-01 11:15:00,29.3,10.6,30.51,SE,132,4.0,5.0,45,0.00,,---,0.00,VWS V14.00,2013-02-01 17:15:00,
2013-02-01 11:16:00,29.1,10.4,30.51,SE,132,4.0,4.0,45,0.00,,---,0.00,VWS V14.00,2013-02-01 17:16:00,
2013-02-01 11:17:00,29.3,10.6,30.51,SE,132,2.0,5.0,45,0.00,,---,0.00,VWS V14.00,2013-02-01 17:17:00,
2013-02-01 11:18:00,29.1,10.4,30.51,SE,132,1.0,2.0,45,0.00,,---,0.00,VWS V14.00,2013-02-01 17:18:00,
2013-02-01 11:19:00,29.1,9.4,30.51,SE,132,3.0,4.0,43,0.00,,---,0.00,VWS V14.00,2013-02-01 17:19:00,
2013-02-01 11:20:00,29.4,10.7,30.51,SE,132,1.0,3.0,45,0.00,,---,0.00,VWS V14.00,2013-02-01 17:20:00,
2013-02-01 11:21:00,29.3,10.1,30.51,SE,132,3.0,3.0,44,0.00,,---,0.00,VWS V14.00,2013-02-01 17:21:00,
2013-02-01 11:22:00,29.4,10.7,30.51,SE,132,3.0,3.0,45,0.00,,---,0.00,VWS V14.00,2013-02-01 17:22:00,
2013-02-01 11:23:00,29.5,10.8,30.51,SE,132,3.0,4.0,45,0.00,,---,0.00,VWS V14.00,2013-02-01 17:23:00,
2013-02-01 11:24:00,29.5,10.3,30.50,SE,132,1.0,4.0,44,0.00,,---,0.00,VWS V14.00,2013-02-01 17:24:00,
2013-02-01 11:25:00,29.8,10.1,30.50,SE,132,0.0,0.0,43,0.00,,---,0.00,VWS V14.00,2013-02-01 17:25:00,
2013-02-01 11:26:00,29.7,10.5,30.50,SE,132,0.0,0.0,44,0.00,,---,0.00,VWS V14.00,2013-02-01 17:26:00,
2013-02-01 11:27:00,29.8,10.1,30.50,SE,132,0.0,0.0,43,0.00,,---,0.00,VWS V14.00,2013-02-01 17:27:00,
2013-02-01 11:28:00,30.0,10.2,30.50,SE,132,0.0,0.0,43,0.00,,---,0.00,VWS V14.00,2013-02-01 17:28:00,
2013-02-01 11:29:00,30.1,10.3,30.50,SE,133,5.0,6.0,43,0.00,,---,0.00,VWS V14.00,2013-02-01 17:29:00,
2013-02-01 11:30:00,30.6,11.8,30.50,SE,134,2.0,3.0,45,0.00,,---,0.00,VWS V14.00,2013-02-01 17:30:00,
2013-02-01 11:31:00,30.4,11.6,30.50,SE,134,2.0,5.0,45,0.00,,---,0.00,VWS V14.00,2013-02-01 17:31:00,
2013-02-01 11:32:00,30.6,11.8,30.50,SE,134,1.0,3.0,45,0.00,,---,0.00,VWS V14.00,2013-02-01 17:32:00,
2013-02-01 11:33:00,30.7,11.4,30.50,SE,134,1.0,2.0,44,0.00,,---,0.00,VWS V14.00,2013-02-01 17:33:00,
2013-02-01 11:34:00,30.7,11.9,30.50,SE,134,4.0,4.0,45,0.00,,---,0.00,VWS V14.00,2013-02-01 17:34:00,
2013-02-01 11:35:00,30.6,10.8,30.50,SE,134,2.0,4.0,43,0.00,,---,0.00,VWS V14.00,2013-02-01 17:35:00,
2013-02-01 11:36:00,30.6,10.8,30.50,SE,134,1.0,3.0,43,0.00,,---,0.00,VWS V14.00,2013-02-01 17:36:00,
2013-02-01 11:37:00,30.6,10.8,30.50,SE,134,3.0,4.0,43,0.00,,---,0.00,VWS V14.00,2013-02-01 17:37:00,
2013-02-01 11:38:00,30.6,10.8,30.50,SE,134,1.0,3.0,43,0.00,,---,0.00,VWS V14.00,2013-02-01 17:38:00,
2013-02-01 11:39:00,30.7,11.4,30.50,SE,134,2.0,2.0,44,0.00,,---,0.00,VWS V14.00,2013-02-01 17:39:00,
2013-02-01 11:40:00,30.9,11.1,30.50,SE,134,2.0,5.0,43,0.00,,---,0.00,VWS V14.00,2013-02-01 17:40:00,
2013-02-01 11:41:00,30.9,11.6,30.50,SE,134,3.0,3.0,44,0.00,,---,0.00,VWS V14.00,2013-02-01 17:41:00,
2013-02-01 11:42:00,30.9,10.5,30.50,SE,134,1.0,5.0,42,0.00,,---,0.00,VWS V14.00,2013-02-01 17:42:00,
2013-02-01 11:43:00,31.0,10.6,30.50,SE,134,2.0,4.0,42,0.00,,---,0.00,VWS V14.00,2013-02-01 17:43:00,
2013-02-01 11:44:00,31.0,11.1,30.49,SE,134,3.0,4.0,43,0.00,,---,0.00,VWS V14.00,2013-02-01 17:44:00,
2013-02-01 11:45:00,31.2,10.8,30.49,SE,134,1.0,5.0,42,0.00,,---,0.00,VWS V14.00,2013-02-01 17:45:00,
2013-02-01 11:46:00,31.2,11.3,30.49,SE,134,4.0,5.0,43,0.00,,---,0.00,VWS V14.00,2013-02-01 17:46:00,
2013-02-01 11:47:00,31.2,10.8,30.49,SE,134,1.0,5.0,42,0.00,,---,0.00,VWS V14.00,2013-02-01 17:47:00,
2013-02-01 11:48:00,31.2,10.2,30.49,SE,134,0.0,1.0,41,0.00,,---,0.00,VWS V14.00,2013-02-01 17:48:00,
2013-02-01 11:49:00,31.3,10.3,30.49,SE,134,0.0,0.0,41,0.00,,---,0.00,VWS V14.00,2013-02-01 17:49:00,
2013-02-01 11:50:00,31.5,10.5,30.49,SE,134,0.0,0.0,41,0.00,,---,0.00,VWS V14.00,2013-02-01 17:50:00,
2013-02-01 11:51:00,31.3,10.3,30.49,SE,134,0.0,0.0,41,0.00,,---,0.00,VWS V14.00,2013-02-01 17:51:00,
2013-02-01 11:52:00,31.5,10.5,30.49,SE,134,0.0,0.0,41,0.00,,---,0.00,VWS V14.00,2013-02-01 17:52:00,
2013-02-01 11:53:00,31.5,11.1,30.49,SE,134,0.0,0.0,42,0.00,,---,0.00,VWS V14.00,2013-02-01 17:53:00,
2013-02-01 11:54:00,31.6,11.7,30.49,SE,134,4.0,4.0,43,0.00,,---,0.00,VWS V14.00,2013-02-01 17:54:00,
2013-02-01 11:55:00,31.6,11.7,30.48,SE,138,6.0,6.0,43,0.00,,---,0.00,VWS V14.00,2013-02-01 17:55:00,
2013-02-01 11:56:00,31.5,11.1,30.48,SE,134,0.0,1.0,42,0.00,,---,0.00,VWS V14.00,2013-02-01 17:56:00,
2013-02-01 11:57:00,31.6,11.7,30.48,SE,138,5.0,6.0,43,0.00,,---,0.00,VWS V14.00,2013-02-01 17:57:00,
2013-02-01 11:58:00,31.8,10.8,30.48,SE,138,3.0,5.0,41,0.00,,---,0.00,VWS V14.00,2013-02-01 17:58:00,
2013-02-01 11:59:00,31.9,10.9,30.48,SE,138,1.0,3.0,41,0.00,,---,0.00,VWS V14.00,2013-02-01 17:59:00,
2013-02-01 12:00:00,32.1,11.1,30.48,SE,138,0.0,0.0,41,0.00,,---,0.00,VWS V14.00,2013-02-01 18:00:00,
2013-02-01 12:01:00,31.9,10.9,30.48,SE,138,0.0,0.0,41,0.00,,---,0.00,VWS V14.00,2013-02-01 18:01:00,
2013-02-01 12:02:00,32.1,11.1,30.48,SE,138,0.0,0.0,41,0.00,,---,0.00,VWS V14.00,2013-02-01 18:02:00,
2013-02-01 12:03:00,32.2,11.2,30.48,SE,138,0.0,0.0,41,0.00,,---,0.00,VWS V14.00,2013-02-01 18:03:00,
2013-02-01 12:04:00,32.5,12.0,30.48,SE,138,0.0,0.0,42,0.00,,---,0.00,VWS V14.00,2013-02-01 18:04:00,
2013-02-01 12:05:00,32.9,11.2,30.47,SE,138,0.0,0.0,40,0.00,,---,0.00,VWS V14.00,2013-02-01 18:05:00,
2013-02-01 12:06:00,32.8,11.1,30.47,SE,138,0.0,0.0,40,0.00,,---,0.00,VWS V14.00,2013-02-01 18:06:00,
2013-02-01 12:07:00,32.9,11.2,30.47,SE,138,0.0,0.0,40,0.00,,---,0.00,VWS V14.00,2013-02-01 18:07:00,
2013-02-01 12:08:00,32.9,10.7,30.47,SE,138,3.0,3.0,39,0.00,,---,0.00,VWS V14.00,2013-02-01 18:08:00,
2013-02-01 12:09:00,33.1,11.4,30.47,SE,138,2.0,3.0,40,0.00,,---,0.00,VWS V14.00,2013-02-01 18:09:00,
2013-02-01 12:10:00,33.4,9.9,30.47,SE,138,7.0,7.0,37,0.00,,---,0.00,VWS V14.00,2013-02-01 18:10:00,
2013-02-01 12:11:00,33.2,10.4,30.47,SE,138,2.0,6.0,38,0.00,,---,0.00,VWS V14.00,2013-02-01 18:11:00,
2013-02-01 12:12:00,33.4,9.9,30.47,SE,138,7.0,7.0,37,0.00,,---,0.00,VWS V14.00,2013-02-01 18:12:00,
2013-02-01 12:13:00,33.4,9.9,30.47,SE,137,9.0,10.0,37,0.00,,---,0.00,VWS V14.00,2013-02-01 18:13:00,
2013-02-01 12:14:00,33.4,9.9,30.47,SE,137,6.0,9.0,37,0.00,,---,0.00,VWS V14.00,2013-02-01 18:14:00,
2013-02-01 12:15:00,33.2,9.1,30.47,SE,136,4.0,6.0,36,0.00,,---,0.00,VWS V14.00,2013-02-01 18:15:00,
2013-02-01 12:16:00,33.2,10.4,30.47,SE,136,5.0,9.0,38,0.00,,---,0.00,VWS V14.00,2013-02-01 18:16:00,
2013-02-01 12:17:00,33.2,9.1,30.47,SE,136,5.0,6.0,36,0.00,,---,0.00,VWS V14.00,2013-02-01 18:17:00,
2013-02-01 12:18:00,33.4,10.5,30.47,SE,137,4.0,6.0,38,0.00,,---,0.00,VWS V14.00,2013-02-01 18:18:00,
2013-02-01 12:19:00,33.5,10.0,30.47,SE,138,2.0,5.0,37,0.00,,---,0.00,VWS V14.00,2013-02-01 18:19:00,
2013-02-01 12:20:00,33.7,10.2,30.47,SE,138,6.0,10.0,37,0.00,,---,0.00,VWS V14.00,2013-02-01 18:20:00,
2013-02-01 12:21:00,33.7,10.2,30.47,SE,138,6.0,7.0,37,0.00,,---,0.00,VWS V14.00,2013-02-01 18:21:00,
2013-02-01 12:22:00,33.8,10.3,30.47,SE,138,4.0,10.0,37,0.00,,---,0.00,VWS V14.00,2013-02-01 18:22:00,
2013-02-01 12:23:00,33.7,9.6,30.47,SE,138,2.0,6.0,36,0.00,,---,0.00,VWS V14.00,2013-02-01 18:23:00,
2013-02-01 12:24:00,33.8,9.7,30.47,SE,138,2.0,4.0,36,0.00,,---,0.00,VWS V14.00,2013-02-01 18:24:00,
2013-02-01 12:25:00,34.1,10.0,30.47,SE,138,3.0,6.0,36,0.00,,---,0.00,VWS V14.00,2013-02-01 18:25:00,
2013-02-01 12:26:00,34.0,9.9,30.47,SE,138,6.0,7.0,36,0.00,,---,0.00,VWS V14.00,2013-02-01 18:26:00,
2013-02-01 12:27:00,34.1,10.0,30.47,SE,138,3.0,6.0,36,0.00,,---,0.00,VWS V14.00,2013-02-01 18:27:00,
2013-02-01 12:28:00,34.1,10.6,30.46,SE,138,2.0,3.0,37,0.00,,---,0.00,VWS V14.00,2013-02-01 18:28:00,
2013-02-01 12:29:00,34.3,10.8,30.46,SE,138,5.0,6.0,37,0.00,,---,0.00,VWS V14.00,2013-02-01 18:29:00,
2013-02-01 12:30:00,34.6,10.4,30.46,SE,141,4.0,5.0,36,0.00,,---,0.00,VWS V14.00,2013-02-01 18:30:00,
2013-02-01 12:31:00,34.4,10.2,30.46,SE,138,2.0,4.0,36,0.00,,---,0.00,VWS V14.00,2013-02-01 18:31:00,
2013-02-01 12:32:00,34.6,10.4,30.46,SE,141,3.0,5.0,36,0.00,,---,0.00,VWS V14.00,2013-02-01 18:32:00,
2013-02-01 12:33:00,34.7,9.9,30.45,SE,141,5.0,7.0,35,0.00,,---,0.00,VWS V14.00,2013-02-01 18:33:00,
2013-02-01 12:34:00,34.7,11.1,30.45,SE,140,4.0,7.0,37,0.00,,---,0.00,VWS V14.00,2013-02-01 18:34:00,
2013-02-01 12:35:00,34.7,9.9,30.45,SE,138,1.0,3.0,35,0.00,,---,0.00,VWS V14.00,2013-02-01 18:35:00,
2013-02-01 12:36:00,34.7,9.9,30.45,SE,138,3.0,7.0,35,0.00,,---,0.00,VWS V14.00,2013-02-01 18:36:00,
2013-02-01 12:37:00,34.7,9.9,30.45,SE,138,1.0,3.0,35,0.00,,---,0.00,VWS V14.00,2013-02-01 18:37:00,
2013-02-01 12:38:00,34.7,9.9,30.45,SE,138,1.0,3.0,35,0.00,,---,0.00,VWS V14.00,2013-02-01 18:38:00,
2013-02-01 12:39:00,34.9,10.0,30.45,SE,138,1.0,2.0,35,0.00,,---,0.00,VWS V14.00,2013-02-01 18:39:00,
2013-02-01 12:40:00,35.2,10.3,30.45,SE,138,2.0,6.0,35,0.00,,---,0.00,VWS V14.00,2013-02-01 18:40:00,
2013-02-01 12:41:00,35.2,11.6,30.45,SE,138,6.0,6.0,37,0.00,,---,0.00,VWS V14.00,2013-02-01 18:41:00,
2013-02-01 12:42:00,35.2,10.3,30.45,SE,138,2.0,6.0,35,0.00,,---,0.00,VWS V14.00,2013-02-01 18:42:00,
2013-02-01 12:43:00,35.3,10.4,30.45,SE,138,6.0,6.0,35,0.00,,---,0.00,VWS V14.00,2013-02-01 18:43:00,
2013-02-01 12:44:00,35.3,10.4,30.45,SE,138,1.0,6.0,35,0.00,,---,0.00,VWS V14.00,2013-02-01 18:44:00,
2013-02-01 12:45:00,35.8,11.5,30.45,SE,138,4.0,5.0,36,0.00,,---,0.00,VWS V14.00,2013-02-01 18:45:00,
2013-02-01 12:46:00,35.6,10.7,30.45,SE,138,5.0,5.0,35,0.00,,---,0.00,VWS V14.00,2013-02-01 18:46:00,
2013-02-01 12:47:00,35.8,10.8,30.45,SE,138,6.0,6.0,35,0.00,,---,0.00,VWS V14.00,2013-02-01 18:47:00,
2013-02-01 12:48:00,35.8,10.8,30.44,SE,138,2.0,6.0,35,0.00,,---,0.00,VWS V14.00,2013-02-01 18:48:00,
2013-02-01 12:49:00,35.8,10.2,30.44,SE,138,1.0,6.0,34,0.00,,---,0.00,VWS V14.00,2013-02-01 18:49:00,
2013-02-01 12:50:00,35.9,10.3,30.44,SE,138,1.0,2.0,34,0.00,,---,0.00,VWS V14.00,2013-02-01 18:50:00,
2013-02-01 12:51:00,35.8,10.2,30.44,SE,138,0.0,0.0,34,0.00,,---,0.00,VWS V14.00,2013-02-01 18:51:00,
2013-02-01 12:52:00,35.9,10.3,30.44,SE,138,0.0,2.0,34,0.00,,---,0.00,VWS V14.00,2013-02-01 18:52:00,
2013-02-01 12:53:00,36.2,11.8,30.44,SE,138,3.0,5.0,36,0.00,,---,0.00,VWS V14.00,2013-02-01 18:53:00,
2013-02-01 12:54:00,36.5,12.1,30.44,SE,138,3.0,6.0,36,0.00,,---,0.00,VWS V14.00,2013-02-01 18:54:00,
2013-02-01 12:55:00,36.8,11.1,30.43,SE,140,6.0,6.0,34,0.00,,---,0.00,VWS V14.00,2013-02-01 18:55:00,
2013-02-01 12:56:00,36.6,10.9,30.43,SE,140,3.0,7.0,34,0.00,,---,0.00,VWS V14.00,2013-02-01 18:56:00,
2013-02-01 12:57:00,36.8,11.1,30.43,SE,140,6.0,6.0,34,0.00,,---,0.00,VWS V14.00,2013-02-01 18:57:00,
2013-02-01 12:58:00,36.8,10.4,30.43,SE,140,0.0,7.0,33,0.00,,---,0.00,VWS V14.00,2013-02-01 18:58:00,
2013-02-01 12:59:00,36.8,10.4,30.43,SE,140,3.0,5.0,33,0.00,,---,0.00,VWS V14.00,2013-02-01 18:59:00,
2013-02-01 13:00:00,36.9,10.5,30.43,SE,140,0.0,2.0,33,0.00,,---,0.00,VWS V14.00,2013-02-01 19:00:00,
2013-02-01 13:01:00,36.9,10.5,30.43,SE,140,2.0,3.0,33,0.00,,---,0.00,VWS V14.00,2013-02-01 19:01:00,
2013-02-01 13:02:00,37.0,10.6,30.43,SE,140,2.0,2.0,33,0.00,,---,0.00,VWS V14.00,2013-02-01 19:02:00,
2013-02-01 13:03:00,37.0,11.2,30.43,SE,140,3.0,4.0,34,0.00,,---,0.00,VWS V14.00,2013-02-01 19:03:00,
2013-02-01 13:04:00,37.0,11.9,30.43,SE,140,3.0,4.0,35,0.00,,---,0.00,VWS V14.00,2013-02-01 19:04:00,
2013-02-01 13:05:00,37.2,11.4,30.42,SE,141,4.0,6.0,34,0.00,,---,0.00,VWS V14.00,2013-02-01 19:05:00,
2013-02-01 13:06:00,37.2,10.8,30.42,SE,141,2.0,4.0,33,0.00,,---,0.00,VWS V14.00,2013-02-01 19:06:00,
2013-02-01 13:07:00,37.2,11.4,30.42,SE,141,6.0,6.0,34,0.00,,---,0.00,VWS V14.00,2013-02-01 19:07:00,
2013-02-01 13:08:00,37.3,10.9,30.42,SE,140,0.0,6.0,33,0.00,,---,0.00,VWS V14.00,2013-02-01 19:08:00,
2013-02-01 13:09:00,37.5,11.0,30.42,SE,140,2.0,2.0,33,0.00,,---,0.00,VWS V14.00,2013-02-01 19:09:00,
2013-02-01 13:10:00,37.5,11.0,30.41,ESE,119,5.0,8.0,33,0.00,,---,0.00,VWS V14.00,2013-02-01 19:10:00,
2013-02-01 13:11:00,37.6,11.1,30.41,ESE,119,8.0,11.0,33,0.00,,---,0.00,VWS V14.00,2013-02-01 19:11:00,
2013-02-01 13:12:00,37.5,11.0,30.41,ESE,117,4.0,8.0,33,0.00,,---,0.00,VWS V14.00,2013-02-01 19:12:00,
2013-02-01 13:13:00,37.5,11.7,30.41,ESE,117,2.0,4.0,34,0.00,,---,0.00,VWS V14.00,2013-02-01 19:13:00,
2013-02-01 13:14:00,37.5,11.0,30.41,ESE,117,1.0,2.0,33,0.00,,---,0.00,VWS V14.00,2013-02-01 19:14:00,
2013-02-01 13:15:00,37.6,11.8,30.41,ESE,118,1.0,1.0,34,0.00,,---,0.00,VWS V14.00,2013-02-01 19:15:00,
2013-02-01 13:16:00,37.6,11.8,30.41,ESE,118,0.0,1.0,34,0.00,,---,0.00,VWS V14.00,2013-02-01 19:16:00,
2013-02-01 13:17:00,37.8,12.0,30.41,ESE,118,1.0,1.0,34,0.00,,---,0.00,VWS V14.00,2013-02-01 19:17:00,
2013-02-01 13:18:00,37.9,12.1,30.41,ESE,121,6.0,8.0,34,0.00,,---,0.00,VWS V14.00,2013-02-01 19:18:00,
2013-02-01 13:19:00,38.0,11.5,30.41,ESE,121,0.0,6.0,33,0.00,,---,0.00,VWS V14.00,2013-02-01 19:19:00,
2013-02-01 13:20:00,38.5,13.2,30.41,ESE,121,0.0,0.0,35,0.00,,---,0.00,VWS V14.00,2013-02-01 19:20:00,
2013-02-01 13:21:00,38.3,12.4,30.41,ESE,121,0.0,2.0,34,0.00,,---,0.00,VWS V14.00,2013-02-01 19:21:00,
2013-02-01 13:22:00,38.5,12.6,30.41,ESE,121,0.0,0.0,34,0.00,,---,0.00,VWS V14.00,2013-02-01 19:22:00,
2013-02-01 13:23:00,38.6,12.7,30.41,ESE,121,2.0,3.0,34,0.00,,---,0.00,VWS V14.00,2013-02-01 19:23:00,
2013-02-01 13:24:00,38.9,13.6,30.41,ESE,121,4.0,4.0,35,0.00,,---,0.00,VWS V14.00,2013-02-01 19:24:00,
2013-02-01 13:25:00,38.9,11.6,30.40,ESE,123,2.0,11.0,32,0.00,,---,0.00,VWS V14.00,2013-02-01 19:25:00,
2013-02-01 13:26:00,39.1,12.4,30.41,ESE,122,6.0,7.0,33,0.00,,---,0.00,VWS V14.00,2013-02-01 19:26:00,
2013-02-01 13:27:00,38.9,11.6,30.40,ESE,123,2.0,11.0,32,0.00,,---,0.00,VWS V14.00,2013-02-01 19:27:00,
2013-02-01 13:28:00,38.9,12.3,30.40,ESE,123,1.0,3.0,33,0.00,,---,0.00,VWS V14.00,2013-02-01 19:28:00,
2013-02-01 13:29:00,38.9,12.9,30.40,ESE,123,1.0,2.0,34,0.00,,---,0.00,VWS V14.00,2013-02-01 19:29:00,
2013-02-01 13:30:00,38.9,11.6,30.40,ESE,115,4.0,4.0,32,0.00,,---,0.00,VWS V14.00,2013-02-01 19:30:00,
2013-02-01 13:31:00,38.9,12.3,30.40,ESE,115,4.0,6.0,33,0.00,,---,0.00,VWS V14.00,2013-02-01 19:31:00,
2013-02-01 13:32:00,38.9,11.6,30.40,ESE,115,3.0,4.0,32,0.00,,---,0.00,VWS V14.00,2013-02-01 19:32:00,
2013-02-01 13:33:00,38.8,12.2,30.40,ESE,115,3.0,5.0,33,0.00,,---,0.00,VWS V14.00,2013-02-01 19:33:00,
2013-02-01 13:34:00,38.9,12.9,30.40,ESE,115,2.0,6.0,34,0.00,,---,0.00,VWS V14.00,2013-02-01 19:34:00,
2013-02-01 13:35:00,39.1,11.8,30.40,ESE,115,0.0,0.0,32,0.00,,---,0.00,VWS V14.00,2013-02-01 19:35:00,
2013-02-01 13:36:00,39.1,11.8,30.40,ESE,115,0.0,2.0,32,0.00,,---,0.00,VWS V14.00,2013-02-01 19:36:00,
2013-02-01 13:37:00,39.1,11.8,30.40,ESE,115,0.0,0.0,32,0.00,,---,0.00,VWS V14.00,2013-02-01 19:37:00,
2013-02-01 13:38:00,39.1,12.4,30.40,ESE,115,1.0,2.0,33,0.00,,---,0.00,VWS V14.00,2013-02-01 19:38:00,
2013-02-01 13:39:00,39.2,12.5,30.40,ESE,115,2.0,3.0,33,0.00,,---,0.00,VWS V14.00,2013-02-01 19:39:00,
2013-02-01 13:40:00,39.5,12.8,30.40,SE,135,2.0,3.0,33,0.00,,---,0.00,VWS V14.00,2013-02-01 19:40:00,
2013-02-01 13:41:00,39.5,12.1,30.40,SE,135,1.0,4.0,32,0.00,,---,0.00,VWS V14.00,2013-02-01 19:41:00,
2013-02-01 13:42:00,39.6,12.9,30.40,SE,135,1.0,3.0,33,0.00,,---,0.00,VWS V14.00,2013-02-01 19:42:00,
2013-02-01 13:43:00,39.8,13.7,30.39,SE,135,7.0,7.0,34,0.00,,---,0.00,VWS V14.00,2013-02-01 19:43:00,
2013-02-01 13:44:00,39.9,12.4,30.39,SE,136,1.0,7.0,32,0.00,,---,0.00,VWS V14.00,2013-02-01 19:44:00,
2013-02-01 13:45:00,40.2,13.4,30.39,SE,136,0.0,0.0,33,0.00,,---,0.00,VWS V14.00,2013-02-01 19:45:00,
2013-02-01 13:46:00,40.1,13.3,30.39,SE,136,0.0,0.0,33,0.00,,---,0.00,VWS V14.00,2013-02-01 19:46:00,
2013-02-01 13:47:00,40.2,13.4,30.39,SE,136,0.0,0.0,33,0.00,,---,0.00,VWS V14.00,2013-02-01 19:47:00,
2013-02-01 13:48:00,40.2,13.4,30.39,SE,136,0.0,0.0,33,0.00,,---,0.00,VWS V14.00,2013-02-01 19:48:00,
2013-02-01 13:49:00,40.3,13.5,30.39,SE,136,0.0,0.0,33,0.00,,---,0.00,VWS V14.00,2013-02-01 19:49:00,
2013-02-01 13:50:00,40.5,14.4,30.39,SE,136,0.0,0.0,34,0.00,,---,0.00,VWS V14.00,2013-02-01 19:50:00,
2013-02-01 13:51:00,40.5,13.7,30.39,SE,136,0.0,2.0,33,0.00,,---,0.00,VWS V14.00,2013-02-01 19:51:00,
2013-02-01 13:52:00,40.5,14.4,30.39,SE,136,0.0,0.0,34,0.00,,---,0.00,VWS V14.00,2013-02-01 19:52:00,
2013-02-01 13:53:00,40.5,13.7,30.38,SE,136,1.0,5.0,33,0.00,,---,0.00,VWS V14.00,2013-02-01 19:53:00,
2013-02-01 13:54:00,40.5,13.0,30.38,SE,136,0.0,1.0,32,0.00,,---,0.00,VWS V14.00,2013-02-01 19:54:00,
2013-02-01 13:55:00,40.6,13.1,30.38,SE,136,0.0,0.0,32,0.00,,---,0.00,VWS V14.00,2013-02-01 19:55:00,
2013-02-01 13:56:00,40.6,13.1,30.38,SE,136,0.0,1.0,32,0.00,,---,0.00,VWS V14.00,2013-02-01 19:56:00,
2013-02-01 13:57:00,40.6,13.1,30.38,SE,136,0.0,0.0,32,0.00,,---,0.00,VWS V14.00,2013-02-01 19:57:00,
2013-02-01 13:58:00,40.6,13.8,30.38,SE,136,1.0,2.0,33,0.00,,---,0.00,VWS V14.00,2013-02-01 19:58:00,
2013-02-01 13:59:00,40.6,13.8,30.38,SE,136,0.0,1.0,33,0.00,,---,0.00,VWS V14.00,2013-02-01 19:59:00,
2013-02-01 14:00:00,40.8,13.2,30.38,SE,136,1.0,2.0,32,0.00,,---,0.00,VWS V14.00,2013-02-01 20:00:00,
2013-02-01 14:01:00,40.8,13.9,30.38,SE,136,0.0,0.0,33,0.00,,---,0.00,VWS V14.00,2013-02-01 20:01:00,
2013-02-01 14:02:00,40.8,13.2,30.38,SE,136,1.0,2.0,32,0.00,,---,0.00,VWS V14.00,2013-02-01 20:02:00,
2013-02-01 14:03:00,40.9,13.3,30.38,SE,136,0.0,1.0,32,0.00,,---,0.00,VWS V14.00,2013-02-01 20:03:00,
2013-02-01 14:04:00,40.9,14.0,30.38,SE,136,1.0,1.0,33,0.00,,---,0.00,VWS V14.00,2013-02-01 20:04:00,
2013-02-01 14:05:00,41.3,14.4,30.37,SE,136,3.0,5.0,33,0.00,,---,0.00,VWS V14.00,2013-02-01 20:05:00,
2013-02-01 14:06:00,41.2,14.3,30.37,SE,136,0.0,1.0,33,0.00,,---,0.00,VWS V14.00,2013-02-01 20:06:00,
2013-02-01 14:07:00,41.3,14.4,30.37,SE,136,2.0,5.0,33,0.00,,---,0.00,VWS V14.00,2013-02-01 20:07:00,
2013-02-01 14:08:00,41.5,15.2,30.37,SE,136,3.0,4.0,34,0.00,,---,0.00,VWS V14.00,2013-02-01 20:08:00,
2013-02-01 14:09:00,41.5,15.2,30.37,SE,136,5.0,5.0,34,0.00,,---,0.00,VWS V14.00,2013-02-01 20:09:00,
2013-02-01 14:10:00,41.5,14.6,30.36,SE,136,1.0,3.0,33,0.00,,---,0.00,VWS V14.00,2013-02-01 20:10:00,
2013-02-01 14:11:00,41.5,14.6,30.36,SE,136,3.0,4.0,33,0.00,,---,0.00,VWS V14.00,2013-02-01 20:11:00,
2013-02-01 14:12:00,41.5,14.6,30.36,SE,136,2.0,3.0,33,0.00,,---,0.00,VWS V14.00,2013-02-01 20:12:00,
2013-02-01 14:13:00,41.5,14.6,30.36,SE,136,0.0,2.0,33,0.00,,---,0.00,VWS V14.00,2013-02-01 20:13:00,
2013-02-01 14:14:00,41.5,14.6,30.36,SE,136,1.0,2.0,33,0.00,,---,0.00,VWS V14.00,2013-02-01 20:14:00,
2013-02-01 14:15:00,41.8,14.8,30.36,SE,135,1.0,4.0,33,0.00,,---,0.00,VWS V14.00,2013-02-01 20:15:00,
2013-02-01 14:16:00,41.8,14.8,30.36,SE,135,4.0,9.0,33,0.00,,---,0.00,VWS V14.00,2013-02-01 20:16:00,
2013-02-01 14:17:00,41.8,14.8,30.36,SE,135,2.0,4.0,33,0.00,,---,0.00,VWS V14.00,2013-02-01 20:17:00,
2013-02-01 14:18:00,41.9,14.9,30.36,SE,134,7.0,7.0,33,0.00,,---,0.00,VWS V14.00,2013-02-01 20:18:00,
2013-02-01 14:19:00,42.1,15.1,30.36,SE,134,5.0,7.0,33,0.00,,---,0.00,VWS V14.00,2013-02-01 20:19:00,
2013-02-01 14:20:00,42.3,15.9,30.36,SE,133,7.0,9.0,34,0.00,,---,0.00,VWS V14.00,2013-02-01 20:20:00,
2013-02-01 14:21:00,42.2,15.9,30.36,SE,132,9.0,10.0,34,0.00,,---,0.00,VWS V14.00,2013-02-01 20:21:00,
2013-02-01 14:22:00,42.3,15.9,30.36,SE,133,5.0,9.0,34,0.00,,---,0.00,VWS V14.00,2013-02-01 20:22:00,
2013-02-01 14:23:00,42.3,15.3,30.36,SE,135,4.0,7.0,33,0.00,,---,0.00,VWS V14.00,2013-02-01 20:23:00,
2013-02-01 14:24:00,42.3,15.3,30.35,SE,135,1.0,4.0,33,0.00,,---,0.00,VWS V14.00,2013-02-01 20:24:00,
2013-02-01 14:25:00,42.5,15.4,30.35,SE,135,6.0,6.0,33,0.00,,---,0.00,VWS V14.00,2013-02-01 20:25:00,
2013-02-01 14:26:00,42.5,14.7,30.35,SE,135,4.0,5.0,32,0.00,,---,0.00,VWS V14.00,2013-02-01 20:26:00,
2013-02-01 14:27:00,42.5,15.4,30.35,SE,134,9.0,9.0,33,0.00,,---,0.00,VWS V14.00,2013-02-01 20:27:00,
2013-02-01 14:28:00,42.5,14.7,30.35,SE,134,3.0,9.0,32,0.00,,---,0.00,VWS V14.00,2013-02-01 20:28:00,
2013-02-01 14:29:00,42.6,15.5,30.35,SE,134,5.0,5.0,33,0.00,,---,0.00,VWS V14.00,2013-02-01 20:29:00,
2013-02-01 14:30:00,42.9,15.8,30.35,SSE,152,5.0,10.0,33,0.00,,---,0.00,VWS V14.00,2013-02-01 20:30:00,
2013-02-01 14:31:00,42.8,17.1,30.35,SE,136,9.0,9.0,35,0.00,,---,0.00,VWS V14.00,2013-02-01 20:31:00,
2013-02-01 14:32:00,42.9,15.1,30.35,SSE,152,5.0,10.0,32,0.00,,---,0.00,VWS V14.00,2013-02-01 20:32:00,
2013-02-01 14:33:00,42.9,15.1,30.35,SSE,152,1.0,5.0,32,0.00,,---,0.00,VWS V14.00,2013-02-01 20:33:00,
2013-02-01 14:34:00,43.3,14.7,30.35,SSE,164,9.0,10.0,31,0.00,,---,0.00,VWS V14.00,2013-02-01 20:34:00,
2013-02-01 14:35:00,43.1,15.3,30.35,SSE,152,4.0,4.0,32,0.00,,---,0.00,VWS V14.00,2013-02-01 20:35:00,
2013-02-01 14:36:00,43.3,15.4,30.35,SSE,159,8.0,10.0,32,0.00,,---,0.00,VWS V14.00,2013-02-01 20:36:00,
2013-02-01 14:37:00,43.3,14.7,30.35,SSE,163,8.0,10.0,31,0.00,,---,0.00,VWS V14.00,2013-02-01 20:37:00,
2013-02-01 14:38:00,43.5,14.9,30.34,South,184,4.0,10.0,31,0.00,,---,0.00,VWS V14.00,2013-02-01 20:38:00,
2013-02-01 14:39:00,43.8,15.1,30.34,South,174,2.0,4.0,31,0.00,,---,0.00,VWS V14.00,2013-02-01 20:39:00,
2013-02-01 14:40:00,43.8,15.1,30.34,South,182,8.0,8.0,31,0.00,,---,0.00,VWS V14.00,2013-02-01 20:40:00,
2013-02-01 14:41:00,43.8,15.9,30.34,South,174,2.0,11.0,32,0.00,,---,0.00,VWS V14.00,2013-02-01 20:41:00,
2013-02-01 14:42:00,43.8,15.1,30.34,South,174,2.0,4.0,31,0.00,,---,0.00,VWS V14.00,2013-02-01 20:42:00,
2013-02-01 14:43:00,43.8,16.6,30.34,South,174,5.0,7.0,33,0.00,,---,0.00,VWS V14.00,2013-02-01 20:43:00,
2013-02-01 14:44:00,43.8,15.1,30.34,SSE,168,10.0,12.0,31,0.00,,---,0.00,VWS V14.00,2013-02-01 20:44:00,
2013-02-01 14:45:00,43.6,15.7,30.33,SE,133,12.0,12.0,32,0.00,,---,0.00,VWS V14.00,2013-02-01 20:45:00,
2013-02-01 14:46:00,43.6,15.7,30.34,SSE,148,6.0,13.0,32,0.00,,---,0.00,VWS V14.00,2013-02-01 20:46:00,
2013-02-01 14:47:00,43.6,15.7,30.34,SE,132,11.0,16.0,32,0.00,,---,0.00,VWS V14.00,2013-02-01 20:47:00,
2013-02-01 14:48:00,43.6,16.4,30.34,SE,137,5.0,13.0,33,0.00,,---,0.00,VWS V14.00,2013-02-01 20:48:00,
2013-02-01 14:49:00,43.8,15.9,30.34,SE,140,10.0,14.0,32,0.00,,---,0.00,VWS V14.00,2013-02-01 20:49:00,
2013-02-01 14:50:00,43.8,16.6,30.33,SE,138,13.0,13.0,33,0.00,,---,0.00,VWS V14.00,2013-02-01 20:50:00,
2013-02-01 14:51:00,43.8,15.1,30.33,SE,139,2.0,11.0,31,0.00,,---,0.00,VWS V14.00,2013-02-01 20:51:00,
2013-02-01 14:52:00,43.8,16.6,30.33,SE,139,15.0,15.0,33,0.00,,---,0.00,VWS V14.00,2013-02-01 20:52:00,
2013-02-01 14:53:00,43.8,16.6,30.33,SE,142,5.0,15.0,33,0.00,,---,0.00,VWS V14.00,2013-02-01 20:53:00,
2013-02-01 14:54:00,43.8,15.9,30.33,SE,140,8.0,10.0,32,0.00,,---,0.00,VWS V14.00,2013-02-01 20:54:00,
2013-02-01 14:55:00,44.1,14.7,30.33,SSE,153,10.0,13.0,30,0.00,,---,0.00,VWS V14.00,2013-02-01 20:55:00,
2013-02-01 14:56:00,43.9,15.2,30.33,SSE,163,11.0,13.0,31,0.00,,---,0.00,VWS V14.00,2013-02-01 20:56:00,
2013-02-01 14:57:00,44.1,14.7,30.33,SSE,153,8.0,13.0,30,0.00,,---,0.00,VWS V14.00,2013-02-01 20:57:00,
2013-02-01 14:58:00,44.1,14.7,30.33,SSE,163,6.0,10.0,30,0.00,,---,0.00,VWS V14.00,2013-02-01 20:58:00,
2013-02-01 14:59:00,44.1,15.4,30.33,SSE,162,3.0,9.0,31,0.00,,---,0.00,VWS V14.00,2013-02-01 20:59:00,
2013-02-01 15:00:00,44.2,15.5,30.33,SE,141,7.0,13.0,31,0.00,,---,0.00,VWS V14.00,2013-02-01 21:00:00,
2013-02-01 15:01:00,44.2,15.5,30.33,SE,143,12.0,13.0,31,0.00,,---,0.00,VWS V14.00,2013-02-01 21:01:00,
2013-02-01 15:02:00,44.2,15.5,30.33,SE,141,5.0,13.0,31,0.00,,---,0.00,VWS V14.00,2013-02-01 21:02:00,
2013-02-01 15:03:00,44.2,16.2,30.33,SSE,150,13.0,14.0,32,0.00,,---,0.00,VWS V14.00,2013-02-01 21:03:00,
2013-02-01 15:04:00,44.2,15.5,30.33,SSE,148,10.0,13.0,31,0.00,,---,0.00,VWS V14.00,2013-02-01 21:04:00,
2013-02-01 15:05:00,44.3,15.6,30.33,SSE,157,6.0,9.0,31,0.00,,---,0.00,VWS V14.00,2013-02-01 21:05:00,
2013-02-01 15:06:00,44.3,16.3,30.33,SSE,156,4.0,16.0,32,0.00,,---,0.00,VWS V14.00,2013-02-01 21:06:00,
2013-02-01 15:07:00,44.5,15.8,30.33,SSE,159,5.0,9.0,31,0.00,,---,0.00,VWS V14.00,2013-02-01 21:07:00,
2013-02-01 15:08:00,44.5,15.8,30.33,SSE,164,7.0,9.0,31,0.00,,---,0.00,VWS V14.00,2013-02-01 21:08:00,
2013-02-01 15:09:00,44.5,15.0,30.33,SSE,165,5.0,9.0,30,0.00,,---,0.00,VWS V14.00,2013-02-01 21:09:00,
2013-02-01 15:10:00,44.8,16.8,30.32,SSE,154,5.0,6.0,32,0.00,,---,0.00,VWS V14.00,2013-02-01 21:10:00,
2013-02-01 15:11:00,44.6,15.1,30.32,SSE,154,5.0,14.0,30,0.00,,---,0.00,VWS V14.00,2013-02-01 21:11:00,
2013-02-01 15:12:00,44.8,16.8,30.32,SSE,154,5.0,6.0,32,0.00,,---,0.00,VWS V14.00,2013-02-01 21:12:00,
2013-02-01 15:13:00,44.8,16.0,30.32,South,170,6.0,11.0,31,0.00,,---,0.00,VWS V14.00,2013-02-01 21:13:00,
2013-02-01 15:14:00,44.8,16.0,30.32,South,171,7.0,12.0,31,0.00,,---,0.00,VWS V14.00,2013-02-01 21:14:00,
2013-02-01 15:15:00,44.6,15.1,30.32,SSE,163,5.0,10.0,30,0.00,,---,0.00,VWS V14.00,2013-02-01 21:15:00,
2013-02-01 15:16:00,44.8,15.3,30.32,SSE,168,6.0,10.0,30,0.00,,---,0.00,VWS V14.00,2013-02-01 21:16:00,
2013-02-01 15:17:00,44.6,15.1,30.32,SSE,163,5.0,10.0,30,0.00,,---,0.00,VWS V14.00,2013-02-01 21:17:00,
2013-02-01 15:18:00,44.6,15.1,30.32,SSE,163,6.0,12.0,30,0.00,,---,0.00,VWS V14.00,2013-02-01 21:18:00,
2013-02-01 15:19:00,44.6,15.9,30.32,SSE,161,9.0,9.0,31,0.00,,---,0.00,VWS V14.00,2013-02-01 21:19:00,
2013-02-01 15:20:00,44.5,15.8,30.31,SSE,154,5.0,10.0,31,0.00,,---,0.00,VWS V14.00,2013-02-01 21:20:00,
2013-02-01 15:21:00,44.5,15.0,30.32,SSE,152,8.0,14.0,30,0.00,,---,0.00,VWS V14.00,2013-02-01 21:21:00,
2013-02-01 15:22:00,44.5,15.8,30.31,SSE,154,5.0,10.0,31,0.00,,---,0.00,VWS V14.00,2013-02-01 21:22:00,
2013-02-01 15:23:00,44.5,15.0,30.31,SE,145,11.0,12.0,30,0.00,,---,0.00,VWS V14.00,2013-02-01 21:23:00,
2013-02-01 15:24:00,44.2,14.8,30.31,SE,144,9.0,11.0,30,0.00,,---,0.00,VWS V14.00,2013-02-01 21:24:00,
2013-02-01 15:25:00,44.2,16.9,30.31,SSE,151,11.0,12.0,33,0.00,,---,0.00,VWS V14.00,2013-02-01 21:25:00,
2013-02-01 15:26:00,44.2,16.2,30.31,SSE,168,11.0,11.0,32,0.00,,---,0.00,VWS V14.00,2013-02-01 21:26:00,
2013-02-01 15:27:00,44.2,16.9,30.31,SE,145,12.0,12.0,33,0.00,,---,0.00,VWS V14.00,2013-02-01 21:27:00,
2013-02-01 15:28:00,44.2,16.2,30.31,SSE,156,2.0,13.0,32,0.00,,---,0.00,VWS V14.00,2013-02-01 21:28:00,
2013-02-01 15:29:00,44.5,15.0,30.31,South,175,5.0,8.0,30,0.00,,---,0.00,VWS V14.00,2013-02-01 21:29:00,
2013-02-01 15:30:00,44.3,14.8,30.31,South,184,6.0,11.0,30,0.00,,---,0.00,VWS V14.00,2013-02-01 21:30:00,
2013-02-01 15:31:00,44.3,14.8,30.31,South,176,3.0,11.0,30,0.00,,---,0.00,VWS V14.00,2013-02-01 21:31:00,
2013-02-01 15:32:00,44.3,14.8,30.31,South,175,5.0,8.0,30,0.00,,---,0.00,VWS V14.00,2013-02-01 21:32:00,
2013-02-01 15:33:00,44.3,14.8,30.31,South,188,8.0,9.0,30,0.00,,---,0.00,VWS V14.00,2013-02-01 21:33:00,
2013-02-01 15:34:00,44.3,14.8,30.31,South,186,6.0,10.0,30,0.00,,---,0.00,VWS V14.00,2013-02-01 21:34:00,
2013-02-01 15:35:00,44.5,15.0,30.31,South,175,9.0,10.0,30,0.00,,---,0.00,VWS V14.00,2013-02-01 21:35:00,
2013-02-01 15:36:00,44.5,15.0,30.31,South,179,10.0,12.0,30,0.00,,---,0.00,VWS V14.00,2013-02-01 21:36:00,
2013-02-01 15:37:00,44.5,15.0,30.31,South,175,4.0,10.0,30,0.00,,---,0.00,VWS V14.00,2013-02-01 21:37:00,
2013-02-01 15:38:00,44.5,14.2,30.31,SSE,164,7.0,11.0,29,0.00,,---,0.00,VWS V14.00,2013-02-01 21:38:00,
2013-02-01 15:39:00,44.5,16.5,30.31,SSE,147,13.0,15.0,32,0.00,,---,0.00,VWS V14.00,2013-02-01 21:39:00,
2013-02-01 15:40:00,44.5,15.0,30.31,SSE,161,4.0,11.0,30,0.00,,---,0.00,VWS V14.00,2013-02-01 21:40:00,
2013-02-01 15:41:00,44.5,15.8,30.31,SSE,160,12.0,12.0,31,0.00,,---,0.00,VWS V14.00,2013-02-01 21:41:00,
2013-02-01 15:42:00,44.5,15.8,30.31,SE,146,9.0,15.0,31,0.00,,---,0.00,VWS V14.00,2013-02-01 21:42:00,
2013-02-01 15:43:00,44.5,15.8,30.31,SSE,150,7.0,13.0,31,0.00,,---,0.00,VWS V14.00,2013-02-01 21:43:00,
2013-02-01 15:44:00,44.3,14.8,30.31,SSE,156,10.0,10.0,30,0.00,,---,0.00,VWS V14.00,2013-02-01 21:44:00,
2013-02-01 15:45:00,44.3,16.3,30.31,SSE,150,2.0,4.0,32,0.00,,---,0.00,VWS V14.00,2013-02-01 21:45:00,
2013-02-01 15:46:00,44.2,14.8,30.31,SSE,150,3.0,12.0,30,0.00,,---,0.00,VWS V14.00,2013-02-01 21:46:00,
2013-02-01 15:47:00,44.3,16.3,30.31,SSE,150,2.0,4.0,32,0.00,,---,0.00,VWS V14.00,2013-02-01 21:47:00,
2013-02-01 15:48:00,44.3,16.3,30.31,SSE,150,0.0,2.0,32,0.00,,---,0.00,VWS V14.00,2013-02-01 21:48:00,
2013-02-01 15:49:00,44.5,15.8,30.31,South,179,12.0,12.0,31,0.00,,---,0.00,VWS V14.00,2013-02-01 21:49:00,
2013-02-01 15:50:00,44.5,16.5,30.31,SE,144,10.0,14.0,32,0.00,,---,0.00,VWS V14.00,2013-02-01 21:50:00,
2013-02-01 15:51:00,44.5,15.0,30.31,SSE,148,10.0,12.0,30,0.00,,---,0.00,VWS V14.00,2013-02-01 21:51:00,
2013-02-01 15:52:00,44.5,16.5,30.31,SE,144,10.0,14.0,32,0.00,,---,0.00,VWS V14.00,2013-02-01 21:52:00,
2013-02-01 15:53:00,44.3,14.1,30.31,SE,142,7.0,10.0,29,0.00,,---,0.00,VWS V14.00,2013-02-01 21:53:00,
2013-02-01 15:54:00,44.2,15.5,30.31,SSE,156,6.0,13.0,31,0.00,,---,0.00,VWS V14.00,2013-02-01 21:54:00,
2013-02-01 15:55:00,44.2,14.8,30.31,SSE,158,2.0,5.0,30,0.00,,---,0.00,VWS V14.00,2013-02-01 21:55:00,
2013-02-01 15:56:00,44.2,15.5,30.31,SSE,157,5.0,7.0,31,0.00,,---,0.00,VWS V14.00,2013-02-01 21:56:00,
2013-02-01 15:57:00,44.2,14.8,30.31,SSE,158,2.0,5.0,30,0.00,,---,0.00,VWS V14.00,2013-02-01 21:57:00,
2013-02-01 15:58:00,44.3,15.6,30.31,SSE,159,3.0,6.0,31,0.00,,---,0.00,VWS V14.00,2013-02-01 21:58:00,
2013-02-01 15:59:00,44.3,15.6,30.31,South,170,7.0,10.0,31,0.00,,---,0.00,VWS V14.00,2013-02-01 21:59:00,
2013-02-01 16:00:00,44.5,15.8,30.31,South,175,7.0,10.0,31,0.00,,---,0.00,VWS V14.00,2013-02-01 22:00:00,
2013-02-01 16:01:00,44.3,15.6,30.31,South,173,7.0,8.0,31,0.00,,---,0.00,VWS V14.00,2013-02-01 22:01:00,
2013-02-01 16:02:00,44.5,15.8,30.31,South,175,7.0,10.0,31,0.00,,---,0.00,VWS V14.00,2013-02-01 22:02:00,
2013-02-01 16:03:00,44.5,15.0,30.31,SSW,197,8.0,10.0,30,0.00,,---,0.00,VWS V14.00,2013-02-01 22:03:00,
2013-02-01 16:04:00,44.3,14.1,30.31,South,186,1.0,9.0,29,0.00,,---,0.00,VWS V14.00,2013-02-01 22:04:00,
2013-02-01 16:05:00,44.3,14.8,30.31,SSE,164,6.0,6.0,30,0.00,,---,0.00,VWS V14.00,2013-02-01 22:05:00,
2013-02-01 16:06:00,44.3,14.8,30.31,SSE,165,2.0,10.0,30,0.00,,---,0.00,VWS V14.00,2013-02-01 22:06:00,
2013-02-01 16:07:00,44.3,14.8,30.31,SSE,164,6.0,6.0,30,0.00,,---,0.00,VWS V14.00,2013-02-01 22:07:00,
2013-02-01 16:08:00,44.3,15.6,30.31,SSE,155,3.0,10.0,31,0.00,,---,0.00,VWS V14.00,2013-02-01 22:08:00,
2013-02-01 16:09:00,44.3,14.8,30.31,SSE,164,10.0,12.0,30,0.00,,---,0.00,VWS V14.00,2013-02-01 22:09:00,
2013-02-01 16:10:00,44.2,15.5,30.31,SSE,165,2.0,5.0,31,0.00,,---,0.00,VWS V14.00,2013-02-01 22:10:00,
2013-02-01 16:11:00,44.2,15.5,30.31,SSE,165,5.0,7.0,31,0.00,,---,0.00,VWS V14.00,2013-02-01 22:11:00,
2013-02-01 16:12:00,44.2,15.5,30.31,SSE,165,2.0,5.0,31,0.00,,---,0.00,VWS V14.00,2013-02-01 22:12:00,
2013-02-01 16:13:00,44.2,14.8,30.31,SSE,166,5.0,9.0,30,0.00,,---,0.00,VWS V14.00,2013-02-01 22:13:00,
2013-02-01 16:14:00,44.2,14.8,30.31,SSE,166,3.0,8.0,30,0.00,,---,0.00,VWS V14.00,2013-02-01 22:14:00,
2013-02-01 16:15:00,44.2,14.8,30.31,SSE,166,0.0,4.0,30,0.00,,---,0.00,VWS V14.00,2013-02-01 22:15:00,
2013-02-01 16:16:00,44.2,14.8,30.31,SSE,166,4.0,7.0,30,0.00,,---,0.00,VWS V14.00,2013-02-01 22:16:00,
2013-02-01 16:17:00,44.2,14.8,30.31,SSE,166,0.0,4.0,30,0.00,,---,0.00,VWS V14.00,2013-02-01 22:17:00,
2013-02-01 16:18:00,44.2,14.8,30.31,SSW,196,10.0,11.0,30,0.00,,---,0.00,VWS V14.00,2013-02-01 22:18:00,
2013-02-01 16:19:00,44.2,14.8,30.31,SSW,198,4.0,10.0,30,0.00,,---,0.00,VWS V14.00,2013-02-01 22:19:00,
2013-02-01 16:20:00,44.2,15.5,30.31,SSW,198,4.0,7.0,31,0.00,,---,0.00,VWS V14.00,2013-02-01 22:20:00,
2013-02-01 16:21:00,44.2,15.5,30.31,SSW,198,5.0,5.0,31,0.00,,---,0.00,VWS V14.00,2013-02-01 22:21:00,
2013-02-01 16:22:00,44.2,15.5,30.31,SSW,198,4.0,7.0,31,0.00,,---,0.00,VWS V14.00,2013-02-01 22:22:00,
2013-02-01 16:23:00,44.2,14.8,30.31,SSW,198,6.0,7.0,30,0.00,,---,0.00,VWS V14.00,2013-02-01 22:23:00,
2013-02-01 16:24:00,44.2,15.5,30.31,SSW,198,2.0,6.0,31,0.00,,---,0.00,VWS V14.00,2013-02-01 22:24:00,
2013-02-01 16:25:00,44.1,15.4,30.31,SSW,197,7.0,7.0,31,0.00,,---,0.00,VWS V14.00,2013-02-01 22:25:00,
2013-02-01 16:26:00,44.2,15.5,30.31,SSW,198,6.0,7.0,31,0.00,,---,0.00,VWS V14.00,2013-02-01 22:26:00,
2013-02-01 16:27:00,44.1,15.4,30.31,SSW,197,7.0,7.0,31,0.00,,---,0.00,VWS V14.00,2013-02-01 22:27:00,
2013-02-01 16:28:00,44.1,15.4,30.31,South,179,4.0,7.0,31,0.00,,---,0.00,VWS V14.00,2013-02-01 22:28:00,
2013-02-01 16:29:00,44.1,16.1,30.31,South,179,4.0,5.0,32,0.00,,---,0.00,VWS V14.00,2013-02-01 22:29:00,
2013-02-01 16:30:00,43.9,16.7,30.30,SSE,166,5.0,10.0,33,0.00,,---,0.00,VWS V14.00,2013-02-01 22:30:00,
2013-02-01 16:31:00,43.9,15.2,30.31,South,173,9.0,9.0,31,0.00,,---,0.00,VWS V14.00,2013-02-01 22:31:00,
2013-02-01 16:32:00,43.9,16.7,30.30,SSE,159,9.0,10.0,33,0.00,,---,0.00,VWS V14.00,2013-02-01 22:32:00,
2013-02-01 16:33:00,43.9,16.0,30.30,SE,146,4.0,11.0,32,0.00,,---,0.00,VWS V14.00,2013-02-01 22:33:00,
2013-02-01 16:34:00,43.8,15.9,30.30,SSE,155,5.0,9.0,32,0.00,,---,0.00,VWS V14.00,2013-02-01 22:34:00,
2013-02-01 16:35:00,43.8,15.1,30.30,SSE,156,2.0,6.0,31,0.00,,---,0.00,VWS V14.00,2013-02-01 22:35:00,
2013-02-01 16:36:00,43.8,15.1,30.30,SSE,155,4.0,6.0,31,0.00,,---,0.00,VWS V14.00,2013-02-01 22:36:00,
2013-02-01 16:37:00,43.8,15.1,30.30,SSE,156,2.0,6.0,31,0.00,,---,0.00,VWS V14.00,2013-02-01 22:37:00,
2013-02-01 16:38:00,43.8,15.1,30.30,SSE,157,3.0,5.0,31,0.00,,---,0.00,VWS V14.00,2013-02-01 22:38:00,
2013-02-01 16:39:00,43.6,15.0,30.30,SSE,157,3.0,4.0,31,0.00,,---,0.00,VWS V14.00,2013-02-01 22:39:00,
2013-02-01 16:40:00,43.5,14.9,30.30,SSE,158,1.0,5.0,31,0.00,,---,0.00,VWS V14.00,2013-02-01 22:40:00,
2013-02-01 16:41:00,43.6,16.4,30.30,SSE,158,3.0,5.0,33,0.00,,---,0.00,VWS V14.00,2013-02-01 22:41:00,
2013-02-01 16:42:00,43.5,14.9,30.30,SSE,158,1.0,5.0,31,0.00,,---,0.00,VWS V14.00,2013-02-01 22:42:00,
2013-02-01 16:43:00,43.5,14.9,30.30,SSE,158,0.0,3.0,31,0.00,,---,0.00,VWS V14.00,2013-02-01 22:43:00,
2013-02-01 16:44:00,43.5,15.6,30.30,SSE,158,4.0,4.0,32,0.00,,---,0.00,VWS V14.00,2013-02-01 22:44:00,
2013-02-01 16:45:00,43.2,14.6,30.30,South,178,2.0,6.0,31,0.00,,---,0.00,VWS V14.00,2013-02-01 22:45:00,
2013-02-01 16:46:00,43.3,14.7,30.30,South,180,4.0,10.0,31,0.00,,---,0.00,VWS V14.00,2013-02-01 22:46:00,
2013-02-01 16:47:00,43.2,14.6,30.30,South,178,2.0,6.0,31,0.00,,---,0.00,VWS V14.00,2013-02-01 22:47:00,
2013-02-01 16:48:00,43.1,14.5,30.30,South,178,4.0,4.0,31,0.00,,---,0.00,VWS V14.00,2013-02-01 22:48:00,
2013-02-01 16:49:00,43.1,14.5,30.29,South,178,4.0,6.0,31,0.00,,---,0.00,VWS V14.00,2013-02-01 22:49:00,
2013-02-01 16:50:00,42.8,14.3,30.29,South,172,5.0,7.0,31,0.00,,---,0.00,VWS V14.00,2013-02-01 22:50:00,
2013-02-01 16:51:00,42.9,14.4,30.29,South,172,4.0,5.0,31,0.00,,---,0.00,VWS V14.00,2013-02-01 22:51:00,
2013-02-01 16:52:00,42.8,14.3,30.29,South,172,6.0,7.0,31,0.00,,---,0.00,VWS V14.00,2013-02-01 22:52:00,
2013-02-01 16:53:00,42.8,14.3,30.29,South,172,6.0,10.0,31,0.00,,---,0.00,VWS V14.00,2013-02-01 22:53:00,
2013-02-01 16:54:00,42.6,14.1,30.29,South,171,5.0,7.0,31,0.00,,---,0.00,VWS V14.00,2013-02-01 22:54:00,
2013-02-01 16:55:00,42.5,14.0,30.29,South,171,1.0,10.0,31,0.00,,---,0.00,VWS V14.00,2013-02-01 22:55:00,
2013-02-01 16:56:00,42.5,14.7,30.29,South,171,7.0,7.0,32,0.00,,---,0.00,VWS V14.00,2013-02-01 22:56:00,
2013-02-01 16:57:00,42.5,14.0,30.29,South,171,1.0,10.0,31,0.00,,---,0.00,VWS V14.00,2013-02-01 22:57:00,
2013-02-01 16:58:00,42.5,14.7,30.29,South,171,9.0,9.0,32,0.00,,---,0.00,VWS V14.00,2013-02-01 22:58:00,
2013-02-01 16:59:00,42.3,13.8,30.29,South,170,5.0,10.0,31,0.00,,---,0.00,VWS V14.00,2013-02-01 22:59:00,
2013-02-01 17:00:00,42.2,14.5,30.29,South,169,6.0,9.0,32,0.00,,---,0.00,VWS V14.00,2013-02-01 23:00:00,
2013-02-01 17:01:00,42.3,14.6,30.29,South,169,5.0,5.0,32,0.00,,---,0.00,VWS V14.00,2013-02-01 23:01:00,
2013-02-01 17:02:00,42.2,14.5,30.29,South,169,6.0,9.0,32,0.00,,---,0.00,VWS V14.00,2013-02-01 23:02:00,
2013-02-01 17:03:00,42.2,14.5,30.29,SSE,168,3.0,9.0,32,0.00,,---,0.00,VWS V14.00,2013-02-01 23:03:00,
2013-02-01 17:04:00,42.2,15.2,30.29,SSE,168,3.0,5.0,33,0.00,,---,0.00,VWS V14.00,2013-02-01 23:04:00,
2013-02-01 17:05:00,42.1,14.4,30.29,SSE,168,3.0,6.0,32,0.00,,---,0.00,VWS V14.00,2013-02-01 23:05:00,
2013-02-01 17:06:00,42.1,14.4,30.29,SSE,168,4.0,6.0,32,0.00,,---,0.00,VWS V14.00,2013-02-01 23:06:00,
2013-02-01 17:07:00,42.1,14.4,30.29,SSE,168,3.0,6.0,32,0.00,,---,0.00,VWS V14.00,2013-02-01 23:07:00,
2013-02-01 17:08:00,42.1,14.4,30.29,SSE,168,1.0,6.0,32,0.00,,---,0.00,VWS V14.00,2013-02-01 23:08:00,
2013-02-01 17:09:00,41.9,14.9,30.29,SSE,168,4.0,9.0,33,0.00,,---,0.00,VWS V14.00,2013-02-01 23:09:00,
2013-02-01 17:10:00,41.8,14.1,30.29,South,170,2.0,5.0,32,0.00,,---,0.00,VWS V14.00,2013-02-01 23:10:00,
2013-02-01 17:11:00,41.9,14.2,30.29,South,170,2.0,5.0,32,0.00,,---,0.00,VWS V14.00,2013-02-01 23:11:00,
2013-02-01 17:12:00,41.8,14.1,30.29,South,170,1.0,5.0,32,0.00,,---,0.00,VWS V14.00,2013-02-01 23:12:00,
2013-02-01 17:13:00,41.8,14.8,30.29,South,170,0.0,1.0,33,0.00,,---,0.00,VWS V14.00,2013-02-01 23:13:00,
2013-02-01 17:14:00,41.8,14.8,30.29,South,170,0.0,3.0,33,0.00,,---,0.00,VWS V14.00,2013-02-01 23:14:00,
2013-02-01 17:15:00,41.6,14.6,30.30,South,170,4.0,5.0,33,0.00,,---,0.00,VWS V14.00,2013-02-01 23:15:00,
2013-02-01 17:16:00,41.6,14.6,30.30,South,170,0.0,1.0,33,0.00,,---,0.00,VWS V14.00,2013-02-01 23:16:00,
2013-02-01 17:17:00,41.6,14.6,30.30,South,170,4.0,5.0,33,0.00,,---,0.00,VWS V14.00,2013-02-01 23:17:00,
2013-02-01 17:18:00,41.5,13.9,30.30,South,170,2.0,4.0,32,0.00,,---,0.00,VWS V14.00,2013-02-01 23:18:00,
2013-02-01 17:19:00,41.5,14.6,30.30,South,170,3.0,5.0,33,0.00,,---,0.00,VWS V14.00,2013-02-01 23:19:00,
2013-02-01 17:20:00,41.2,13.6,30.30,South,170,2.0,7.0,32,0.00,,---,0.00,VWS V14.00,2013-02-01 23:20:00,
2013-02-01 17:21:00,41.3,14.4,30.30,South,170,6.0,6.0,33,0.00,,---,0.00,VWS V14.00,2013-02-01 23:21:00,
2013-02-01 17:22:00,41.2,13.6,30.30,South,170,2.0,7.0,32,0.00,,---,0.00,VWS V14.00,2013-02-01 23:22:00,
2013-02-01 17:23:00,41.2,14.3,30.30,South,170,1.0,2.0,33,0.00,,---,0.00,VWS V14.00,2013-02-01 23:23:00,
2013-02-01 17:24:00,41.2,14.3,30.30,South,170,1.0,3.0,33,0.00,,---,0.00,VWS V14.00,2013-02-01 23:24:00,
2013-02-01 17:25:00,41.1,14.2,30.30,South,171,2.0,4.0,33,0.00,,---,0.00,VWS V14.00,2013-02-01 23:25:00,
2013-02-01 17:26:00,41.1,14.9,30.30,South,171,3.0,8.0,34,0.00,,---,0.00,VWS V14.00,2013-02-01 23:26:00,
2013-02-01 17:27:00,41.1,14.2,30.30,South,171,1.0,4.0,33,0.00,,---,0.00,VWS V14.00,2013-02-01 23:27:00,
2013-02-01 17:28:00,41.1,14.2,30.29,South,171,1.0,3.0,33,0.00,,---,0.00,VWS V14.00,2013-02-01 23:28:00,
2013-02-01 17:29:00,41.1,14.2,30.29,South,171,3.0,5.0,33,0.00,,---,0.00,VWS V14.00,2013-02-01 23:29:00,
2013-02-01 17:30:00,40.8,13.9,30.29,South,171,3.0,5.0,33,0.00,,---,0.00,VWS V14.00,2013-02-01 23:30:00,
2013-02-01 17:31:00,40.9,14.0,30.29,South,171,0.0,2.0,33,0.00,,---,0.00,VWS V14.00,2013-02-01 23:31:00,
2013-02-01 17:32:00,40.8,13.9,30.29,South,171,3.0,5.0,33,0.00,,---,0.00,VWS V14.00,2013-02-01 23:32:00,
2013-02-01 17:33:00,40.8,13.9,30.29,South,171,3.0,4.0,33,0.00,,---,0.00,VWS V14.00,2013-02-01 23:33:00,
2013-02-01 17:34:00,40.6,13.8,30.29,South,171,3.0,3.0,33,0.00,,---,0.00,VWS V14.00,2013-02-01 23:34:00,
2013-02-01 17:35:00,40.5,14.4,30.29,South,171,0.0,2.0,34,0.00,,---,0.00,VWS V14.00,2013-02-01 23:35:00,
2013-02-01 17:36:00,40.6,14.4,30.29,South,171,0.0,2.0,34,0.00,,---,0.00,VWS V14.00,2013-02-01 23:36:00,
2013-02-01 17:37:00,40.5,14.4,30.29,South,171,0.0,2.0,34,0.00,,---,0.00,VWS V14.00,2013-02-01 23:37:00,
2013-02-01 17:38:00,40.3,14.2,30.29,South,171,3.0,6.0,34,0.00,,---,0.00,VWS V14.00,2013-02-01 23:38:00,
2013-02-01 17:39:00,40.3,14.2,30.29,South,171,2.0,5.0,34,0.00,,---,0.00,VWS V14.00,2013-02-01 23:39:00,
2013-02-01 17:40:00,40.1,14.0,30.29,South,170,1.0,4.0,34,0.00,,---,0.00,VWS V14.00,2013-02-01 23:40:00,
2013-02-01 17:41:00,40.1,14.7,30.29,South,170,4.0,6.0,35,0.00,,---,0.00,VWS V14.00,2013-02-01 23:41:00,
2013-02-01 17:42:00,40.1,14.0,30.29,South,170,1.0,4.0,34,0.00,,---,0.00,VWS V14.00,2013-02-01 23:42:00,
2013-02-01 17:43:00,39.9,13.8,30.29,South,170,3.0,4.0,34,0.00,,---,0.00,VWS V14.00,2013-02-01 23:43:00,
2013-02-01 17:44:00,39.9,13.8,30.29,South,170,2.0,3.0,34,0.00,,---,0.00,VWS V14.00,2013-02-01 23:44:00,
2013-02-01 17:45:00,39.6,14.2,30.29,South,170,2.0,5.0,35,0.00,,---,0.00,VWS V14.00,2013-02-01 23:45:00,
2013-02-01 17:46:00,39.8,14.4,30.29,South,170,2.0,2.0,35,0.00,,---,0.00,VWS V14.00,2013-02-01 23:46:00,
2013-02-01 17:47:00,39.6,14.2,30.29,South,170,3.0,5.0,35,0.00,,---,0.00,VWS V14.00,2013-02-01 23:47:00,
2013-02-01 17:48:00,39.6,14.2,30.29,South,170,3.0,4.0,35,0.00,,---,0.00,VWS V14.00,2013-02-01 23:48:00,
2013-02-01 17:49:00,39.5,14.1,30.29,South,170,1.0,3.0,35,0.00,,---,0.00,VWS V14.00,2013-02-01 23:49:00,
2013-02-01 17:50:00,39.3,13.9,30.29,South,170,4.0,4.0,35,0.00,,---,0.00,VWS V14.00,2013-02-01 23:50:00,
2013-02-01 17:51:00,39.3,13.9,30.29,South,170,3.0,5.0,35,0.00,,---,0.00,VWS V14.00,2013-02-01 23:51:00,
2013-02-01 17:52:00,39.3,13.9,30.29,South,170,4.0,5.0,35,0.00,,---,0.00,VWS V14.00,2013-02-01 23:52:00,
2013-02-01 17:53:00,39.3,13.9,30.29,South,170,2.0,6.0,35,0.00,,---,0.00,VWS V14.00,2013-02-01 23:53:00,
2013-02-01 17:54:00,39.2,13.9,30.29,South,170,2.0,2.0,35,0.00,,---,0.00,VWS V14.00,2013-02-01 23:54:00,
2013-02-01 17:55:00,38.9,14.2,30.29,South,170,1.0,4.0,36,0.00,,---,0.00,VWS V14.00,2013-02-01 23:55:00,
2013-02-01 17:56:00,39.1,14.4,30.29,South,170,3.0,3.0,36,0.00,,---,0.00,VWS V14.00,2013-02-01 23:56:00,
2013-02-01 17:57:00,38.9,14.2,30.29,South,170,2.0,4.0,36,0.00,,---,0.00,VWS V14.00,2013-02-01 23:57:00,
2013-02-01 17:58:00,38.8,14.1,30.29,South,170,1.0,3.0,36,0.00,,---,0.00,VWS V14.00,2013-02-01 23:58:00,
2013-02-01 17:59:00,38.6,14.0,30.29,South,170,0.0,3.0,36,0.00,,---,0.00,VWS V14.00,2013-02-01 23:59:00,
2013-02-01 18:00:00,38.5,13.9,30.29,South,170,2.0,7.0,36,0.00,,---,0.00,VWS V14.00,2013-02-02 00:00:00,
2013-02-01 18:01:00,38.5,13.9,30.29,South,170,5.0,5.0,36,0.00,,---,0.00,VWS V14.00,2013-02-02 00:01:00,
2013-02-01 18:02:00,38.5,13.9,30.29,South,170,2.0,7.0,36,0.00,,---,0.00,VWS V14.00,2013-02-02 00:02:00,
2013-02-01 18:03:00,38.3,13.7,30.29,South,170,4.0,6.0,36,0.00,,---,0.00,VWS V14.00,2013-02-02 00:03:00,
2013-02-01 18:04:00,38.3,13.7,30.29,South,170,3.0,5.0,36,0.00,,---,0.00,VWS V14.00,2013-02-02 00:04:00,
2013-02-01 18:05:00,38.2,13.6,30.29,South,170,3.0,5.0,36,0.00,,---,0.00,VWS V14.00,2013-02-02 00:05:00,
2013-02-01 18:06:00,38.3,14.3,30.29,South,170,2.0,3.0,37,0.00,,---,0.00,VWS V14.00,2013-02-02 00:06:00,
2013-02-01 18:07:00,38.2,13.6,30.29,South,170,4.0,5.0,36,0.00,,---,0.00,VWS V14.00,2013-02-02 00:07:00,
2013-02-01 18:08:00,38.2,13.6,30.29,South,170,5.0,6.0,36,0.00,,---,0.00,VWS V14.00,2013-02-02 00:08:00,
2013-02-01 18:09:00,38.0,13.4,30.29,South,170,2.0,5.0,36,0.00,,---,0.00,VWS V14.00,2013-02-02 00:09:00,
2013-02-01 18:10:00,37.9,13.4,30.29,South,170,4.0,6.0,36,0.00,,---,0.00,VWS V14.00,2013-02-02 00:10:00,
2013-02-01 18:11:00,37.9,13.4,30.29,South,170,4.0,8.0,36,0.00,,---,0.00,VWS V14.00,2013-02-02 00:11:00,
2013-02-01 18:12:00,37.9,13.4,30.29,South,170,5.0,6.0,36,0.00,,---,0.00,VWS V14.00,2013-02-02 00:12:00,
2013-02-01 18:13:00,37.9,13.4,30.29,South,170,5.0,6.0,36,0.00,,---,0.00,VWS V14.00,2013-02-02 00:13:00,
2013-02-01 18:14:00,37.8,13.3,30.29,South,170,7.0,9.0,36,0.00,,---,0.00,VWS V14.00,2013-02-02 00:14:00,
2013-02-01 18:15:00,37.8,13.9,30.29,SSE,167,3.0,10.0,37,0.00,,---,0.00,VWS V14.00,2013-02-02 00:15:00,
2013-02-01 18:16:00,37.8,13.9,30.29,SSE,168,7.0,10.0,37,0.00,,---,0.00,VWS V14.00,2013-02-02 00:16:00,
2013-02-01 18:17:00,37.8,13.9,30.29,SSE,167,2.0,10.0,37,0.00,,---,0.00,VWS V14.00,2013-02-02 00:17:00,
2013-02-01 18:18:00,37.8,13.3,30.29,SSE,165,3.0,12.0,36,0.00,,---,0.00,VWS V14.00,2013-02-02 00:18:00,
2013-02-01 18:19:00,37.6,13.1,30.29,SSE,163,11.0,11.0,36,0.00,,---,0.00,VWS V14.00,2013-02-02 00:19:00,
2013-02-01 18:20:00,37.6,12.4,30.29,SSE,163,8.0,11.0,35,0.00,,---,0.00,VWS V14.00,2013-02-02 00:20:00,
2013-02-01 18:21:00,37.6,13.1,30.29,SSE,165,7.0,10.0,36,0.00,,---,0.00,VWS V14.00,2013-02-02 00:21:00,
2013-02-01 18:22:00,37.6,12.4,30.29,SSE,163,6.0,11.0,35,0.00,,---,0.00,VWS V14.00,2013-02-02 00:22:00,
2013-02-01 18:23:00,37.5,12.4,30.29,SSE,164,5.0,11.0,35,0.00,,---,0.00,VWS V14.00,2013-02-02 00:23:00,
2013-02-01 18:24:00,37.5,13.0,30.29,South,180,7.0,12.0,36,0.00,,---,0.00,VWS V14.00,2013-02-02 00:24:00,
2013-02-01 18:25:00,37.3,13.4,30.29,SSE,161,7.0,7.0,37,0.00,,---,0.00,VWS V14.00,2013-02-02 00:25:00,
2013-02-01 18:26:00,37.3,12.8,30.29,SSE,162,5.0,10.0,36,0.00,,---,0.00,VWS V14.00,2013-02-02 00:26:00,
2013-02-01 18:27:00,37.3,13.4,30.29,SSE,161,6.0,7.0,37,0.00,,---,0.00,VWS V14.00,2013-02-02 00:27:00,
2013-02-01 18:28:00,37.2,12.7,30.28,SSE,162,3.0,8.0,36,0.00,,---,0.00,VWS V14.00,2013-02-02 00:28:00,
2013-02-01 18:29:00,37.2,12.7,30.28,South,169,4.0,10.0,36,0.00,,---,0.00,VWS V14.00,2013-02-02 00:29:00,
2013-02-01 18:30:00,37.0,12.5,30.28,SSE,168,4.0,9.0,36,0.00,,---,0.00,VWS V14.00,2013-02-02 00:30:00,
2013-02-01 18:31:00,37.0,12.5,30.28,South,169,3.0,6.0,36,0.00,,---,0.00,VWS V14.00,2013-02-02 00:31:00,
2013-02-01 18:32:00,36.9,12.4,30.28,SSE,168,3.0,9.0,36,0.00,,---,0.00,VWS V14.00,2013-02-02 00:32:00,
2013-02-01 18:33:00,36.9,12.4,30.28,SSE,168,5.0,6.0,36,0.00,,---,0.00,VWS V14.00,2013-02-02 00:33:00,
2013-02-01 18:34:00,36.8,13.6,30.28,SSE,167,9.0,10.0,38,0.00,,---,0.00,VWS V14.00,2013-02-02 00:34:00,
2013-02-01 18:35:00,36.6,12.8,30.28,SSE,167,3.0,5.0,37,0.00,,---,0.00,VWS V14.00,2013-02-02 00:35:00,
2013-02-01 18:36:00,36.6,12.8,30.28,SSE,167,3.0,7.0,37,0.00,,---,0.00,VWS V14.00,2013-02-02 00:36:00,
2013-02-01 18:37:00,36.6,12.8,30.28,SSE,167,5.0,5.0,37,0.00,,---,0.00,VWS V14.00,2013-02-02 00:37:00,
2013-02-01 18:38:00,36.5,12.7,30.28,SSE,167,4.0,6.0,37,0.00,,---,0.00,VWS V14.00,2013-02-02 00:38:00,
2013-02-01 18:39:00,36.5,12.7,30.28,SSE,167,3.0,6.0,37,0.00,,---,0.00,VWS V14.00,2013-02-02 00:39:00,
2013-02-01 18:40:00,36.3,12.5,30.28,SSE,167,3.0,6.0,37,0.00,,---,0.00,VWS V14.00,2013-02-02 00:40:00,
2013-02-01 18:41:00,36.3,13.1,30.28,SSE,167,6.0,9.0,38,0.00,,---,0.00,VWS V14.00,2013-02-02 00:41:00,
2013-02-01 18:42:00,36.3,12.5,30.28,SSE,167,2.0,6.0,37,0.00,,---,0.00,VWS V14.00,2013-02-02 00:42:00,
2013-02-01 18:43:00,36.2,13.1,30.28,SSE,167,3.0,3.0,38,0.00,,---,0.00,VWS V14.00,2013-02-02 00:43:00,
2013-02-01 18:44:00,36.2,13.1,30.28,SSE,167,2.0,6.0,38,0.00,,---,0.00,VWS V14.00,2013-02-02 00:44:00,
2013-02-01 18:45:00,35.9,12.8,30.28,SSE,167,2.0,2.0,38,0.00,,---,0.00,VWS V14.00,2013-02-02 00:45:00,
2013-02-01 18:46:00,36.0,12.9,30.28,SSE,167,2.0,5.0,38,0.00,,---,0.00,VWS V14.00,2013-02-02 00:46:00,
2013-02-01 18:47:00,35.9,12.8,30.28,SSE,167,0.0,2.0,38,0.00,,---,0.00,VWS V14.00,2013-02-02 00:47:00,
2013-02-01 18:48:00,35.9,12.8,30.28,SSE,167,3.0,5.0,38,0.00,,---,0.00,VWS V14.00,2013-02-02 00:48:00,
2013-02-01 18:49:00,35.6,12.5,30.28,SSE,167,3.0,6.0,38,0.00,,---,0.00,VWS V14.00,2013-02-02 00:49:00,
2013-02-01 18:50:00,35.8,12.7,30.28,SSE,167,1.0,4.0,38,0.00,,---,0.00,VWS V14.00,2013-02-02 00:50:00,
2013-02-01 18:51:00,35.6,12.5,30.28,SSE,167,5.0,5.0,38,0.00,,---,0.00,VWS V14.00,2013-02-02 00:51:00,
2013-02-01 18:52:00,35.6,12.5,30.28,SSE,167,3.0,6.0,38,0.00,,---,0.00,VWS V14.00,2013-02-02 00:52:00,
2013-02-01 18:53:00,35.5,12.4,30.28,SSE,167,3.0,5.0,38,0.00,,---,0.00,VWS V14.00,2013-02-02 00:53:00,
2013-02-01 18:54:00,35.5,12.4,30.28,SSE,167,2.0,5.0,38,0.00,,---,0.00,VWS V14.00,2013-02-02 00:54:00,
2013-02-01 18:55:00,35.5,12.4,30.28,SSE,167,3.0,5.0,38,0.00,,---,0.00,VWS V14.00,2013-02-02 00:55:00,
2013-02-01 18:56:00,35.5,12.4,30.28,SSE,167,2.0,7.0,38,0.00,,---,0.00,VWS V14.00,2013-02-02 00:56:00,
2013-02-01 18:57:00,35.5,12.4,30.28,SSE,167,3.0,5.0,38,0.00,,---,0.00,VWS V14.00,2013-02-02 00:57:00,
2013-02-01 18:58:00,35.5,12.4,30.28,SSE,167,1.0,4.0,38,0.00,,---,0.00,VWS V14.00,2013-02-02 00:58:00,
2013-02-01 18:59:00,35.3,13.4,30.28,SSE,167,0.0,2.0,40,0.00,,---,0.00,VWS V14.00,2013-02-02 00:59:00,
2013-02-01 19:00:00,35.3,13.4,30.28,SSE,167,6.0,6.0,40,0.00,,---,0.00,VWS V14.00,2013-02-02 01:00:00,
2013-02-01 19:01:00,35.3,13.4,30.28,SSE,167,0.0,5.0,40,0.00,,---,0.00,VWS V14.00,2013-02-02 01:01:00,
2013-02-01 19:02:00,35.3,13.4,30.28,SSE,167,1.0,2.0,40,0.00,,---,0.00,VWS V14.00,2013-02-02 01:02:00,
2013-02-01 19:03:00,35.3,14.0,30.28,SSE,167,0.0,3.0,41,0.00,,---,0.00,VWS V14.00,2013-02-02 01:03:00,
2013-02-01 19:04:00,35.3,14.0,30.29,SSE,167,0.0,0.0,41,0.00,,---,0.00,VWS V14.00,2013-02-02 01:04:00,
2013-02-01 19:05:00,35.3,14.0,30.29,SSE,167,0.0,0.0,41,0.00,,---,0.00,VWS V14.00,2013-02-02 01:05:00,
2013-02-01 19:06:00,35.3,13.4,30.29,SSE,167,0.0,3.0,40,0.00,,---,0.00,VWS V14.00,2013-02-02 01:06:00,
2013-02-01 19:07:00,35.3,14.0,30.29,SSE,167,0.0,0.0,41,0.00,,---,0.00,VWS V14.00,2013-02-02 01:07:00,
2013-02-01 19:08:00,35.3,13.4,30.29,SSE,167,0.0,0.0,40,0.00,,---,0.00,VWS V14.00,2013-02-02 01:08:00,
2013-02-01 19:09:00,35.2,13.9,30.28,SSE,167,0.0,0.0,41,0.00,,---,0.00,VWS V14.00,2013-02-02 01:09:00,
2013-02-01 19:10:00,35.2,13.3,30.28,SSE,167,0.0,0.0,40,0.00,,---,0.00,VWS V14.00,2013-02-02 01:10:00,
2013-02-01 19:11:00,35.2,13.9,30.28,SSE,167,0.0,0.0,41,0.00,,---,0.00,VWS V14.00,2013-02-02 01:11:00,
2013-02-01 19:12:00,35.2,13.9,30.28,SSE,167,0.0,0.0,41,0.00,,---,0.00,VWS V14.00,2013-02-02 01:12:00,
2013-02-01 19:13:00,35.0,13.1,30.28,SSE,167,0.0,0.0,40,0.00,,---,0.00,VWS V14.00,2013-02-02 01:13:00,
2013-02-01 19:14:00,35.0,13.1,30.28,SSE,167,3.0,4.0,40,0.00,,---,0.00,VWS V14.00,2013-02-02 01:14:00,
2013-02-01 19:15:00,35.0,13.1,30.28,SSE,167,3.0,4.0,40,0.00,,---,0.00,VWS V14.00,2013-02-02 01:15:00,
2013-02-01 19:16:00,35.0,13.1,30.28,SSE,167,2.0,4.0,40,0.00,,---,0.00,VWS V14.00,2013-02-02 01:16:00,
2013-02-01 19:17:00,35.0,13.1,30.28,SSE,167,3.0,4.0,40,0.00,,---,0.00,VWS V14.00,2013-02-02 01:17:00,
2013-02-01 19:18:00,35.0,13.1,30.28,SSE,167,2.0,3.0,40,0.00,,---,0.00,VWS V14.00,2013-02-02 01:18:00,
2013-02-01 19:19:00,35.0,13.7,30.27,SSE,166,6.0,7.0,41,0.00,,---,0.00,VWS V14.00,2013-02-02 01:19:00,
2013-02-01 19:20:00,35.0,13.1,30.28,SSE,167,2.0,4.0,40,0.00,,---,0.00,VWS V14.00,2013-02-02 01:20:00,
2013-02-01 19:21:00,35.0,13.1,30.27,SSE,167,5.0,6.0,40,0.00,,---,0.00,VWS V14.00,2013-02-02 01:21:00,
2013-02-01 19:22:00,34.9,13.6,30.27,SSE,166,3.0,7.0,41,0.00,,---,0.00,VWS V14.00,2013-02-02 01:22:00,
2013-02-01 19:23:00,35.0,14.8,30.27,SSE,166,4.0,6.0,43,0.00,,---,0.00,VWS V14.00,2013-02-02 01:23:00,
2013-02-01 19:24:00,35.2,13.9,30.27,SSE,154,5.0,11.0,41,0.00,,---,0.00,VWS V14.00,2013-02-02 01:24:00,
2013-02-01 19:25:00,35.2,14.4,30.27,SSE,153,7.0,11.0,42,0.00,,---,0.00,VWS V14.00,2013-02-02 01:25:00,
2013-02-01 19:26:00,35.2,13.9,30.27,SSE,153,5.0,11.0,41,0.00,,---,0.00,VWS V14.00,2013-02-02 01:26:00,
2013-02-01 19:27:00,35.2,13.9,30.27,SSE,155,6.0,11.0,41,0.00,,---,0.00,VWS V14.00,2013-02-02 01:27:00,
2013-02-01 19:28:00,35.0,13.7,30.27,SSE,153,10.0,10.0,41,0.00,,---,0.00,VWS V14.00,2013-02-02 01:28:00,
2013-02-01 19:29:00,35.2,13.9,30.27,SSE,155,5.0,12.0,41,0.00,,---,0.00,VWS V14.00,2013-02-02 01:29:00,
2013-02-01 19:30:00,35.0,13.7,30.26,SSE,156,13.0,13.0,41,0.00,,---,0.00,VWS V14.00,2013-02-02 01:30:00,
2013-02-01 19:31:00,35.2,13.9,30.26,SSE,156,6.0,13.0,41,0.00,,---,0.00,VWS V14.00,2013-02-02 01:31:00,
2013-02-01 19:32:00,35.2,13.9,30.26,SSE,157,4.0,12.0,41,0.00,,---,0.00,VWS V14.00,2013-02-02 01:32:00,
2013-02-01 19:33:00,35.0,13.7,30.26,SSE,157,6.0,12.0,41,0.00,,---,0.00,VWS V14.00,2013-02-02 01:33:00,
2013-02-01 19:34:00,35.0,13.7,30.26,SSE,155,7.0,12.0,41,0.00,,---,0.00,VWS V14.00,2013-02-02 01:34:00,
2013-02-01 19:35:00,35.0,13.7,30.26,SSE,163,7.0,9.0,41,0.00,,---,0.00,VWS V14.00,2013-02-02 01:35:00,
2013-02-01 19:36:00,35.0,13.7,30.26,SSE,158,5.0,10.0,41,0.00,,---,0.00,VWS V14.00,2013-02-02 01:36:00,
2013-02-01 19:37:00,35.0,13.7,30.26,SSE,155,5.0,12.0,41,0.00,,---,0.00,VWS V14.00,2013-02-02 01:37:00,
2013-02-01 19:38:00,35.0,13.7,30.26,SSE,155,9.0,11.0,41,0.00,,---,0.00,VWS V14.00,2013-02-02 01:38:00,
2013-02-01 19:39:00,35.0,13.7,30.26,SSE,152,9.0,16.0,41,0.00,,---,0.00,VWS V14.00,2013-02-02 01:39:00,
2013-02-01 19:40:00,35.0,14.2,30.26,SSE,164,1.0,11.0,42,0.00,,---,0.00,VWS V14.00,2013-02-02 01:40:00,
2013-02-01 19:41:00,35.0,13.7,30.26,SSE,163,9.0,9.0,41,0.00,,---,0.00,VWS V14.00,2013-02-02 01:41:00,
2013-02-01 19:42:00,35.0,13.7,30.26,SSE,151,10.0,16.0,41,0.00,,---,0.00,VWS V14.00,2013-02-02 01:42:00,
2013-02-01 19:43:00,35.0,14.2,30.26,SSE,151,6.0,10.0,42,0.00,,---,0.00,VWS V14.00,2013-02-02 01:43:00,
2013-02-01 19:44:00,35.0,14.2,30.25,SSE,162,7.0,10.0,42,0.00,,---,0.00,VWS V14.00,2013-02-02 01:44:00,
2013-02-01 19:45:00,35.2,13.9,30.26,SSE,151,5.0,12.0,41,0.00,,---,0.00,VWS V14.00,2013-02-02 01:45:00,
2013-02-01 19:46:00,35.0,13.7,30.26,SSE,162,4.0,10.0,41,0.00,,---,0.00,VWS V14.00,2013-02-02 01:46:00,
2013-02-01 19:47:00,35.0,14.2,30.25,SSE,158,10.0,12.0,42,0.00,,---,0.00,VWS V14.00,2013-02-02 01:47:00,
2013-02-01 19:48:00,35.2,15.0,30.25,SSE,155,5.0,12.0,43,0.00,,---,0.00,VWS V14.00,2013-02-02 01:48:00,
2013-02-01 19:49:00,35.3,14.5,30.25,SSE,159,5.0,10.0,42,0.00,,---,0.00,VWS V14.00,2013-02-02 01:49:00,
2013-02-01 19:50:00,35.2,13.9,30.25,SSE,159,9.0,13.0,41,0.00,,---,0.00,VWS V14.00,2013-02-02 01:50:00,
2013-02-01 19:51:00,35.2,13.9,30.25,SSE,158,10.0,12.0,41,0.00,,---,0.00,VWS V14.00,2013-02-02 01:51:00,
2013-02-01 19:52:00,35.3,14.5,30.25,SSE,159,2.0,10.0,42,0.00,,---,0.00,VWS V14.00,2013-02-02 01:52:00,
2013-02-01 19:53:00,35.2,13.9,30.25,SSE,159,10.0,10.0,41,0.00,,---,0.00,VWS V14.00,2013-02-02 01:53:00,
2013-02-01 19:54:00,35.2,13.9,30.25,SSE,159,4.0,7.0,41,0.00,,---,0.00,VWS V14.00,2013-02-02 01:54:00,
2013-02-01 19:55:00,35.2,13.9,30.25,SSE,161,3.0,9.0,41,0.00,,---,0.00,VWS V14.00,2013-02-02 01:55:00,
2013-02-01 19:56:00,35.2,13.9,30.25,SSE,159,2.0,11.0,41,0.00,,---,0.00,VWS V14.00,2013-02-02 01:56:00,
2013-02-01 19:57:00,35.2,13.9,30.25,SSE,159,5.0,7.0,41,0.00,,---,0.00,VWS V14.00,2013-02-02 01:57:00,
2013-02-01 19:58:00,35.0,13.7,30.25,SSE,159,6.0,9.0,41,0.00,,---,0.00,VWS V14.00,2013-02-02 01:58:00,
2013-02-01 19:59:00,35.0,13.7,30.24,SSE,160,4.0,7.0,41,0.00,,---,0.00,VWS V14.00,2013-02-02 01:59:00,
2013-02-01 20:00:00,35.0,13.7,30.25,SSE,159,2.0,7.0,41,0.00,,---,0.00,VWS V14.00,2013-02-02 02:00:00,
2013-02-01 20:01:00,35.0,13.7,30.24,SSE,160,7.0,7.0,41,0.00,,---,0.00,VWS V14.00,2013-02-02 02:01:00,
2013-02-01 20:02:00,35.0,13.7,30.24,SSE,160,4.0,7.0,41,0.00,,---,0.00,VWS V14.00,2013-02-02 02:02:00,
2013-02-01 20:03:00,35.0,13.7,30.24,SSE,160,3.0,6.0,41,0.00,,---,0.00,VWS V14.00,2013-02-02 02:03:00,
2013-02-01 20:04:00,35.2,13.9,30.24,SSE,161,1.0,5.0,41,0.00,,---,0.00,VWS V14.00,2013-02-02 02:04:00,
2013-02-01 20:05:00,35.0,13.7,30.24,SSE,161,6.0,11.0,41,0.00,,---,0.00,VWS V14.00,2013-02-02 02:05:00,
2013-02-01 20:06:00,35.2,13.9,30.24,SSE,161,3.0,10.0,41,0.00,,---,0.00,VWS V14.00,2013-02-02 02:06:00,
2013-02-01 20:07:00,35.2,13.9,30.24,SSE,161,4.0,6.0,41,0.00,,---,0.00,VWS V14.00,2013-02-02 02:07:00,
2013-02-01 20:08:00,35.0,13.7,30.24,SSE,161,3.0,5.0,41,0.00,,---,0.00,VWS V14.00,2013-02-02 02:08:00,
2013-02-01 20:09:00,35.0,13.7,30.24,SSE,156,3.0,6.0,41,0.00,,---,0.00,VWS V14.00,2013-02-02 02:09:00,
2013-02-01 20:10:00,35.0,13.7,30.24,SE,146,12.0,13.0,41,0.00,,---,0.00,VWS V14.00,2013-02-02 02:10:00,
2013-02-01 20:11:00,35.0,13.7,30.24,SSE,155,3.0,12.0,41,0.00,,---,0.00,VWS V14.00,2013-02-02 02:11:00,
2013-02-01 20:12:00,35.0,13.7,30.24,SSE,156,5.0,6.0,41,0.00,,---,0.00,VWS V14.00,2013-02-02 02:12:00,
2013-02-01 20:13:00,35.0,13.7,30.24,SSE,155,6.0,11.0,41,0.00,,---,0.00,VWS V14.00,2013-02-02 02:13:00,
2013-02-01 20:14:00,35.3,14.5,30.24,South,186,5.0,7.0,42,0.00,,---,0.00,VWS V14.00,2013-02-02 02:14:00,
2013-02-01 20:15:00,35.2,13.9,30.24,South,190,3.0,12.0,41,0.00,,---,0.00,VWS V14.00,2013-02-02 02:15:00,
2013-02-01 20:16:00,35.2,13.9,30.24,South,186,7.0,10.0,41,0.00,,---,0.00,VWS V14.00,2013-02-02 02:16:00,
2013-02-01 20:17:00,35.3,14.5,30.24,South,183,6.0,10.0,42,0.00,,---,0.00,VWS V14.00,2013-02-02 02:17:00,
2013-02-01 20:18:00,35.3,14.0,30.24,South,183,10.0,13.0,41,0.00,,---,0.00,VWS V14.00,2013-02-02 02:18:00,
2013-02-01 20:19:00,35.6,14.2,30.24,South,170,13.0,14.0,41,0.00,,---,0.00,VWS V14.00,2013-02-02 02:19:00,
2013-02-01 20:20:00,35.6,14.2,30.24,South,182,4.0,7.0,41,0.00,,---,0.00,VWS V14.00,2013-02-02 02:20:00,
2013-02-01 20:21:00,35.6,14.2,30.24,South,187,3.0,14.0,41,0.00,,---,0.00,VWS V14.00,2013-02-02 02:21:00,
2013-02-01 20:22:00,35.8,14.4,30.24,SSE,165,12.0,14.0,41,0.00,,---,0.00,VWS V14.00,2013-02-02 02:22:00,
2013-02-01 20:23:00,35.8,13.9,30.25,South,169,6.0,12.0,40,0.00,,---,0.00,VWS V14.00,2013-02-02 02:23:00,
2013-02-01 20:24:00,36.0,13.5,30.24,SSE,157,7.0,12.0,39,0.00,,---,0.00,VWS V14.00,2013-02-02 02:24:00,
2013-02-01 20:25:00,35.9,13.9,30.24,SSE,163,6.0,13.0,40,0.00,,---,0.00,VWS V14.00,2013-02-02 02:25:00,
2013-02-01 20:26:00,35.9,13.9,30.24,SSW,192,12.0,12.0,40,0.00,,---,0.00,VWS V14.00,2013-02-02 02:26:00,
2013-02-01 20:27:00,36.0,13.5,30.24,SSE,157,4.0,12.0,39,0.00,,---,0.00,VWS V14.00,2013-02-02 02:27:00,
2013-02-01 20:28:00,36.0,14.0,30.24,SSE,157,3.0,10.0,40,0.00,,---,0.00,VWS V14.00,2013-02-02 02:28:00,
2013-02-01 20:29:00,36.2,13.6,30.25,South,171,3.0,5.0,39,0.00,,---,0.00,VWS V14.00,2013-02-02 02:29:00,
2013-02-01 20:30:00,36.0,13.5,30.25,South,180,6.0,12.0,39,0.00,,---,0.00,VWS V14.00,2013-02-02 02:30:00,
2013-02-01 20:31:00,36.2,13.6,30.25,South,171,5.0,14.0,39,0.00,,---,0.00,VWS V14.00,2013-02-02 02:31:00,
2013-02-01 20:32:00,36.2,13.6,30.25,SSE,161,11.0,11.0,39,0.00,,---,0.00,VWS V14.00,2013-02-02 02:32:00,
2013-02-01 20:33:00,36.2,13.6,30.25,SSE,161,3.0,13.0,39,0.00,,---,0.00,VWS V14.00,2013-02-02 02:33:00,
2013-02-01 20:34:00,36.0,14.0,30.26,South,172,0.0,6.0,40,0.00,,---,0.00,VWS V14.00,2013-02-02 02:34:00,
2013-02-01 20:35:00,36.2,14.2,30.25,South,173,6.0,6.0,40,0.00,,---,0.00,VWS V14.00,2013-02-02 02:35:00,
2013-02-01 20:36:00,36.0,14.0,30.25,South,172,5.0,7.0,40,0.00,,---,0.00,VWS V14.00,2013-02-02 02:36:00,
2013-02-01 20:37:00,36.0,13.5,30.26,South,172,1.0,6.0,39,0.00,,---,0.00,VWS V14.00,2013-02-02 02:37:00,
2013-02-01 20:38:00,36.0,14.0,30.25,South,172,2.0,4.0,40,0.00,,---,0.00,VWS V14.00,2013-02-02 02:38:00,
2013-02-01 20:39:00,35.9,13.9,30.26,South,171,5.0,6.0,40,0.00,,---,0.00,VWS V14.00,2013-02-02 02:39:00,
2013-02-01 20:40:00,35.9,13.9,30.26,South,171,2.0,4.0,40,0.00,,---,0.00,VWS V14.00,2013-02-02 02:40:00,
2013-02-01 20:41:00,35.9,13.9,30.26,South,171,5.0,7.0,40,0.00,,---,0.00,VWS V14.00,2013-02-02 02:41:00,
2013-02-01 20:42:00,35.9,13.4,30.25,South,172,3.0,6.0,39,0.00,,---,0.00,VWS V14.00,2013-02-02 02:42:00,
2013-02-01 20:43:00,35.9,13.9,30.25,South,172,1.0,3.0,40,0.00,,---,0.00,VWS V14.00,2013-02-02 02:43:00,
2013-02-01 20:44:00,35.8,13.9,30.26,South,172,3.0,7.0,40,0.00,,---,0.00,VWS V14.00,2013-02-02 02:44:00,
2013-02-01 20:45:00,35.9,13.9,30.26,South,172,4.0,4.0,40,0.00,,---,0.00,VWS V14.00,2013-02-02 02:45:00,
2013-02-01 20:46:00,35.9,13.9,30.26,South,172,3.0,4.0,40,0.00,,---,0.00,VWS V14.00,2013-02-02 02:46:00,
2013-02-01 20:47:00,35.8,13.9,30.26,South,172,2.0,7.0,40,0.00,,---,0.00,VWS V14.00,2013-02-02 02:47:00,
2013-02-01 20:48:00,35.8,13.9,30.26,South,172,1.0,2.0,40,0.00,,---,0.00,VWS V14.00,2013-02-02 02:48:00,
2013-02-01 20:49:00,35.6,13.7,30.26,South,172,1.0,1.0,40,0.00,,---,0.00,VWS V14.00,2013-02-02 02:49:00,
2013-02-01 20:50:00,35.8,13.9,30.26,South,172,0.0,7.0,40,0.00,,---,0.00,VWS V14.00,2013-02-02 02:50:00,
2013-02-01 20:51:00,35.6,13.7,30.26,South,172,0.0,2.0,40,0.00,,---,0.00,VWS V14.00,2013-02-02 02:51:00,
2013-02-01 20:52:00,35.6,13.7,30.26,South,172,0.0,1.0,40,0.00,,---,0.00,VWS V14.00,2013-02-02 02:52:00,
2013-02-01 20:53:00,35.6,13.7,30.26,South,172,0.0,0.0,40,0.00,,---,0.00,VWS V14.00,2013-02-02 02:53:00,
2013-02-01 20:54:00,35.5,13.6,30.26,South,172,0.0,0.0,40,0.00,,---,0.00,VWS V14.00,2013-02-02 02:54:00,
2013-02-01 20:55:00,35.5,13.6,30.26,South,172,0.0,0.0,40,0.00,,---,0.00,VWS V14.00,2013-02-02 02:55:00,
2013-02-01 20:56:00,35.5,13.6,30.26,South,172,0.0,0.0,40,0.00,,---,0.00,VWS V14.00,2013-02-02 02:56:00,
2013-02-01 20:57:00,35.5,13.6,30.26,South,172,0.0,0.0,40,0.00,,---,0.00,VWS V14.00,2013-02-02 02:57:00,
2013-02-01 20:58:00,35.3,13.4,30.26,South,172,0.0,2.0,40,0.00,,---,0.00,VWS V14.00,2013-02-02 02:58:00,
2013-02-01 20:59:00,35.2,13.9,30.25,South,172,0.0,0.0,41,0.00,,---,0.00,VWS V14.00,2013-02-02 02:59:00,
2013-02-01 21:00:00,35.3,14.0,30.26,South,172,0.0,0.0,41,0.00,,---,0.00,VWS V14.00,2013-02-02 03:00:00,
2013-02-01 21:01:00,35.2,13.9,30.26,South,172,0.0,0.0,41,0.00,,---,0.00,VWS V14.00,2013-02-02 03:01:00,
2013-02-01 21:02:00,35.2,13.9,30.25,South,172,0.0,0.0,41,0.00,,---,0.00,VWS V14.00,2013-02-02 03:02:00,
2013-02-01 21:03:00,35.2,13.9,30.25,South,172,0.0,0.0,41,0.00,,---,0.00,VWS V14.00,2013-02-02 03:03:00,
2013-02-01 21:04:00,34.9,13.6,30.25,South,172,0.0,0.0,41,0.00,,---,0.00,VWS V14.00,2013-02-02 03:04:00,
2013-02-01 21:05:00,35.0,13.7,30.25,South,172,0.0,0.0,41,0.00,,---,0.00,VWS V14.00,2013-02-02 03:05:00,
2013-02-01 21:06:00,34.9,13.6,30.25,South,172,0.0,0.0,41,0.00,,---,0.00,VWS V14.00,2013-02-02 03:06:00,
2013-02-01 21:07:00,34.9,13.6,30.25,South,172,0.0,0.0,41,0.00,,---,0.00,VWS V14.00,2013-02-02 03:07:00,
2013-02-01 21:08:00,34.9,13.6,30.25,South,172,0.0,0.0,41,0.00,,---,0.00,VWS V14.00,2013-02-02 03:08:00,
2013-02-01 21:09:00,34.7,13.4,30.25,South,172,0.0,0.0,41,0.00,,---,0.00,VWS V14.00,2013-02-02 03:09:00,
2013-02-01 21:10:00,34.9,13.6,30.25,South,172,0.0,0.0,41,0.00,,---,0.00,VWS V14.00,2013-02-02 03:10:00,
2013-02-01 21:11:00,34.7,13.4,30.25,South,172,0.0,0.0,41,0.00,,---,0.00,VWS V14.00,2013-02-02 03:11:00,
2013-02-01 21:12:00,34.7,13.4,30.25,South,172,0.0,0.0,41,0.00,,---,0.00,VWS V14.00,2013-02-02 03:12:00,
2013-02-01 21:13:00,34.7,13.4,30.25,South,172,0.0,0.0,41,0.00,,---,0.00,VWS V14.00,2013-02-02 03:13:00,
2013-02-01 21:14:00,34.6,13.3,30.26,South,172,0.0,0.0,41,0.00,,---,0.00,VWS V14.00,2013-02-02 03:14:00,
2013-02-01 21:15:00,34.7,13.4,30.26,South,172,0.0,0.0,41,0.00,,---,0.00,VWS V14.00,2013-02-02 03:15:00,
2013-02-01 21:16:00,34.7,13.4,30.26,South,172,0.0,0.0,41,0.00,,---,0.00,VWS V14.00,2013-02-02 03:16:00,
2013-02-01 21:17:00,34.6,13.3,30.26,South,172,0.0,0.0,41,0.00,,---,0.00,VWS V14.00,2013-02-02 03:17:00,
2013-02-01 21:18:00,34.6,13.3,30.26,South,172,0.0,0.0,41,0.00,,---,0.00,VWS V14.00,2013-02-02 03:18:00,
2013-02-01 21:19:00,34.4,14.2,30.27,South,172,0.0,0.0,43,0.00,,---,0.00,VWS V14.00,2013-02-02 03:19:00,
2013-02-01 21:20:00,34.6,13.3,30.26,South,172,0.0,0.0,41,0.00,,---,0.00,VWS V14.00,2013-02-02 03:20:00,
2013-02-01 21:21:00,34.4,13.1,30.26,South,172,0.0,0.0,41,0.00,,---,0.00,VWS V14.00,2013-02-02 03:21:00,
2013-02-01 21:22:00,34.4,14.8,30.27,South,172,0.0,0.0,44,0.00,,---,0.00,VWS V14.00,2013-02-02 03:22:00,
2013-02-01 21:23:00,34.4,15.8,30.27,South,172,0.0,0.0,46,0.00,,---,0.00,VWS V14.00,2013-02-02 03:23:00,
2013-02-01 21:24:00,34.1,15.5,30.27,South,172,0.0,0.0,46,0.00,,---,0.00,VWS V14.00,2013-02-02 03:24:00,
2013-02-01 21:25:00,34.3,15.2,30.27,South,172,0.0,0.0,45,0.00,,---,0.00,VWS V14.00,2013-02-02 03:25:00,
2013-02-01 21:26:00,34.1,15.0,30.27,South,172,0.0,0.0,45,0.00,,---,0.00,VWS V14.00,2013-02-02 03:26:00,
2013-02-01 21:27:00,34.0,15.4,30.27,South,172,0.0,0.0,46,0.00,,---,0.00,VWS V14.00,2013-02-02 03:27:00,
2013-02-01 21:28:00,33.8,15.7,30.27,South,172,0.0,0.0,47,0.00,,---,0.00,VWS V14.00,2013-02-02 03:28:00,
2013-02-01 21:29:00,33.5,16.4,30.27,South,172,0.0,0.0,49,0.00,,---,0.00,VWS V14.00,2013-02-02 03:29:00,
2013-02-01 21:30:00,33.7,16.1,30.27,South,172,0.0,0.0,48,0.00,,---,0.00,VWS V14.00,2013-02-02 03:30:00,
2013-02-01 21:31:00,33.5,16.4,30.27,South,172,0.0,0.0,49,0.00,,---,0.00,VWS V14.00,2013-02-02 03:31:00,
2013-02-01 21:32:00,33.4,16.3,30.27,South,172,0.0,0.0,49,0.00,,---,0.00,VWS V14.00,2013-02-02 03:32:00,
2013-02-01 21:33:00,33.4,16.3,30.27,South,172,0.0,0.0,49,0.00,,---,0.00,VWS V14.00,2013-02-02 03:33:00,
2013-02-01 21:34:00,33.1,16.0,30.28,South,172,0.0,0.0,49,0.00,,---,0.00,VWS V14.00,2013-02-02 03:34:00,
2013-02-01 21:35:00,33.1,16.0,30.28,South,172,0.0,0.0,49,0.00,,---,0.00,VWS V14.00,2013-02-02 03:35:00,
2013-02-01 21:36:00,33.1,16.0,30.28,South,172,0.0,0.0,49,0.00,,---,0.00,VWS V14.00,2013-02-02 03:36:00,
2013-02-01 21:37:00,32.9,15.9,30.28,South,172,0.0,0.0,49,0.00,,---,0.00,VWS V14.00,2013-02-02 03:37:00,
2013-02-01 21:38:00,32.9,15.9,30.28,South,172,0.0,0.0,49,0.00,,---,0.00,VWS V14.00,2013-02-02 03:38:00,
2013-02-01 21:39:00,32.7,16.1,30.28,South,172,0.0,0.0,50,0.00,,---,0.00,VWS V14.00,2013-02-02 03:39:00,
2013-02-01 21:40:00,32.8,15.8,30.28,South,172,0.0,0.0,49,0.00,,---,0.00,VWS V14.00,2013-02-02 03:40:00,
2013-02-01 21:41:00,32.8,16.2,30.28,South,172,0.0,0.0,50,0.00,,---,0.00,VWS V14.00,2013-02-02 03:41:00,
2013-02-01 21:42:00,32.7,16.1,30.28,South,172,0.0,0.0,50,0.00,,---,0.00,VWS V14.00,2013-02-02 03:42:00,
2013-02-01 21:43:00,32.7,16.6,30.28,South,172,0.0,0.0,51,0.00,,---,0.00,VWS V14.00,2013-02-02 03:43:00,
2013-02-01 21:44:00,32.5,15.9,30.28,South,172,0.0,0.0,50,0.00,,---,0.00,VWS V14.00,2013-02-02 03:44:00,
2013-02-01 21:45:00,32.5,16.4,30.28,South,172,0.0,0.0,51,0.00,,---,0.00,VWS V14.00,2013-02-02 03:45:00,
2013-02-01 21:46:00,32.5,15.9,30.28,South,172,0.0,0.0,50,0.00,,---,0.00,VWS V14.00,2013-02-02 03:46:00,
2013-02-01 21:47:00,32.5,15.9,30.28,South,172,0.0,0.0,50,0.00,,---,0.00,VWS V14.00,2013-02-02 03:47:00,
2013-02-01 21:48:00,32.5,16.4,30.28,South,172,0.0,0.0,51,0.00,,---,0.00,VWS V14.00,2013-02-02 03:48:00,
2013-02-01 21:49:00,32.4,16.8,30.29,South,172,0.0,0.0,52,0.00,,---,0.00,VWS V14.00,2013-02-02 03:49:00,
2013-02-01 21:50:00,32.5,16.9,30.28,South,172,0.0,0.0,52,0.00,,---,0.00,VWS V14.00,2013-02-02 03:50:00,
2013-02-01 21:51:00,32.4,16.8,30.28,South,172,0.0,0.0,52,0.00,,---,0.00,VWS V14.00,2013-02-02 03:51:00,
2013-02-01 21:52:00,32.4,16.8,30.29,South,172,0.0,0.0,52,0.00,,---,0.00,VWS V14.00,2013-02-02 03:52:00,
2013-02-01 21:53:00,32.4,17.2,30.29,South,172,3.0,3.0,53,0.00,,---,0.00,VWS V14.00,2013-02-02 03:53:00,
2013-02-01 21:54:00,32.1,16.9,30.29,South,173,1.0,3.0,53,0.00,,---,0.00,VWS V14.00,2013-02-02 03:54:00,
2013-02-01 21:55:00,32.2,16.6,30.29,South,172,3.0,3.0,52,0.00,,---,0.00,VWS V14.00,2013-02-02 03:55:00,
2013-02-01 21:56:00,32.2,17.0,30.29,South,173,1.0,3.0,53,0.00,,---,0.00,VWS V14.00,2013-02-02 03:56:00,
2013-02-01 21:57:00,32.1,17.3,30.29,South,173,2.0,3.0,54,0.00,,---,0.00,VWS V14.00,2013-02-02 03:57:00,
2013-02-01 21:58:00,32.1,17.3,30.30,South,173,1.0,2.0,54,0.00,,---,0.00,VWS V14.00,2013-02-02 03:58:00,
2013-02-01 21:59:00,31.9,17.2,30.29,South,173,0.0,0.0,54,0.00,,---,0.00,VWS V14.00,2013-02-02 03:59:00,
2013-02-01 22:00:00,32.1,17.3,30.30,South,173,0.0,1.0,54,0.00,,---,0.00,VWS V14.00,2013-02-02 04:00:00,
2013-02-01 22:01:00,32.1,17.3,30.30,South,173,0.0,0.0,54,0.00,,---,0.00,VWS V14.00,2013-02-02 04:01:00,
2013-02-01 22:02:00,31.9,17.2,30.29,South,173,0.0,0.0,54,0.00,,---,0.00,VWS V14.00,2013-02-02 04:02:00,
2013-02-01 22:03:00,31.9,16.7,30.29,South,173,0.0,0.0,53,0.00,,---,0.00,VWS V14.00,2013-02-02 04:03:00,
2013-02-01 22:04:00,31.9,17.2,30.30,South,173,0.0,0.0,54,0.00,,---,0.00,VWS V14.00,2013-02-02 04:04:00,
2013-02-01 22:05:00,31.9,17.2,30.29,South,173,0.0,0.0,54,0.00,,---,0.00,VWS V14.00,2013-02-02 04:05:00,
2013-02-01 22:06:00,31.9,17.2,30.30,South,173,0.0,0.0,54,0.00,,---,0.00,VWS V14.00,2013-02-02 04:06:00,
2013-02-01 22:07:00,31.9,17.2,30.30,South,173,0.0,0.0,54,0.00,,---,0.00,VWS V14.00,2013-02-02 04:07:00,
2013-02-01 22:08:00,31.8,17.1,30.30,South,173,0.0,0.0,54,0.00,,---,0.00,VWS V14.00,2013-02-02 04:08:00,
2013-02-01 22:09:00,31.8,17.1,30.30,South,173,0.0,0.0,54,0.00,,---,0.00,VWS V14.00,2013-02-02 04:09:00,
2013-02-01 22:10:00,31.8,17.1,30.30,South,173,0.0,0.0,54,0.00,,---,0.00,VWS V14.00,2013-02-02 04:10:00,
2013-02-01 22:11:00,31.8,17.1,30.30,South,173,0.0,0.0,54,0.00,,---,0.00,VWS V14.00,2013-02-02 04:11:00,
2013-02-01 22:12:00,31.8,17.1,30.30,South,173,0.0,0.0,54,0.00,,---,0.00,VWS V14.00,2013-02-02 04:12:00,
2013-02-01 22:13:00,31.8,17.1,30.30,South,173,0.0,0.0,54,0.00,,---,0.00,VWS V14.00,2013-02-02 04:13:00,
2013-02-01 22:14:00,31.8,17.5,30.30,South,173,0.0,0.0,55,0.00,,---,0.00,VWS V14.00,2013-02-02 04:14:00,
2013-02-01 22:15:00,31.8,17.5,30.30,South,173,0.0,0.0,55,0.00,,---,0.00,VWS V14.00,2013-02-02 04:15:00,
2013-02-01 22:16:00,31.8,17.5,30.30,South,173,0.0,0.0,55,0.00,,---,0.00,VWS V14.00,2013-02-02 04:16:00,
2013-02-01 22:17:00,31.6,16.9,30.30,South,173,0.0,0.0,54,0.00,,---,0.00,VWS V14.00,2013-02-02 04:17:00,
2013-02-01 22:18:00,31.6,17.3,30.30,South,173,0.0,0.0,55,0.00,,---,0.00,VWS V14.00,2013-02-02 04:18:00,
2013-02-01 22:19:00,31.6,16.9,30.30,South,173,0.0,0.0,54,0.00,,---,0.00,VWS V14.00,2013-02-02 04:19:00,
2013-02-01 22:20:00,31.6,17.3,30.30,South,173,0.0,0.0,55,0.00,,---,0.00,VWS V14.00,2013-02-02 04:20:00,
2013-02-01 22:21:00,31.6,16.9,30.30,South,173,0.0,0.0,54,0.00,,---,0.00,VWS V14.00,2013-02-02 04:21:00,
2013-02-01 22:22:00,31.6,16.9,30.30,South,173,0.0,0.0,54,0.00,,---,0.00,VWS V14.00,2013-02-02 04:22:00,
2013-02-01 22:23:00,31.6,16.9,30.30,South,173,0.0,0.0,54,0.00,,---,0.00,VWS V14.00,2013-02-02 04:23:00,
2013-02-01 22:24:00,31.5,17.2,30.30,South,173,0.0,0.0,55,0.00,,---,0.00,VWS V14.00,2013-02-02 04:24:00,
2013-02-01 22:25:00,31.5,16.8,30.30,South,173,0.0,0.0,54,0.00,,---,0.00,VWS V14.00,2013-02-02 04:25:00,
2013-02-01 22:26:00,31.5,17.2,30.30,South,173,0.0,0.0,55,0.00,,---,0.00,VWS V14.00,2013-02-02 04:26:00,
2013-02-01 22:27:00,31.5,17.2,30.30,South,173,0.0,0.0,55,0.00,,---,0.00,VWS V14.00,2013-02-02 04:27:00,
2013-02-01 22:28:00,31.3,17.0,30.30,South,173,0.0,0.0,55,0.00,,---,0.00,VWS V14.00,2013-02-02 04:28:00,
2013-02-01 22:29:00,31.3,17.0,30.30,South,173,0.0,0.0,55,0.00,,---,0.00,VWS V14.00,2013-02-02 04:29:00,
2013-02-01 22:30:00,31.3,17.0,30.30,South,173,0.0,0.0,55,0.00,,---,0.00,VWS V14.00,2013-02-02 04:30:00,
2013-02-01 22:31:00,31.3,17.0,30.30,South,173,0.0,0.0,55,0.00,,---,0.00,VWS V14.00,2013-02-02 04:31:00,
2013-02-01 22:32:00,31.2,16.9,30.30,South,173,0.0,0.0,55,0.00,,---,0.00,VWS V14.00,2013-02-02 04:32:00,
2013-02-01 22:33:00,31.2,16.9,30.30,South,173,0.0,0.0,55,0.00,,---,0.00,VWS V14.00,2013-02-02 04:33:00,
2013-02-01 22:34:00,31.2,16.9,30.30,South,173,0.0,0.0,55,0.00,,---,0.00,VWS V14.00,2013-02-02 04:34:00,
2013-02-01 22:35:00,31.2,16.9,30.30,South,173,0.0,0.0,55,0.00,,---,0.00,VWS V14.00,2013-02-02 04:35:00,
2013-02-01 22:36:00,31.2,16.9,30.30,South,173,0.0,0.0,55,0.00,,---,0.00,VWS V14.00,2013-02-02 04:36:00,
2013-02-01 22:37:00,31.2,16.9,30.30,South,173,0.0,0.0,55,0.00,,---,0.00,VWS V14.00,2013-02-02 04:37:00,
2013-02-01 22:38:00,31.0,16.7,30.30,South,173,0.0,0.0,55,0.00,,---,0.00,VWS V14.00,2013-02-02 04:38:00,
2013-02-01 22:39:00,31.0,17.6,30.30,South,173,0.0,0.0,57,0.00,,---,0.00,VWS V14.00,2013-02-02 04:39:00,
2013-02-01 22:40:00,31.0,17.6,30.30,South,173,0.0,0.0,57,0.00,,---,0.00,VWS V14.00,2013-02-02 04:40:00,
2013-02-01 22:41:00,31.0,17.6,30.30,South,173,0.0,0.0,57,0.00,,---,0.00,VWS V14.00,2013-02-02 04:41:00,
2013-02-01 22:42:00,30.9,17.5,30.30,South,173,0.0,0.0,57,0.00,,---,0.00,VWS V14.00,2013-02-02 04:42:00,
2013-02-01 22:43:00,30.9,17.5,30.30,South,173,0.0,0.0,57,0.00,,---,0.00,VWS V14.00,2013-02-02 04:43:00,
2013-02-01 22:44:00,30.7,17.7,30.30,South,173,0.0,0.0,58,0.00,,---,0.00,VWS V14.00,2013-02-02 04:44:00,
2013-02-01 22:45:00,30.9,17.9,30.30,South,173,0.0,0.0,58,0.00,,---,0.00,VWS V14.00,2013-02-02 04:45:00,
2013-02-01 22:46:00,30.7,17.7,30.30,South,173,0.0,0.0,58,0.00,,---,0.00,VWS V14.00,2013-02-02 04:46:00,
2013-02-01 22:47:00,30.7,17.7,30.30,South,173,0.0,0.0,58,0.00,,---,0.00,VWS V14.00,2013-02-02 04:47:00,
2013-02-01 22:48:00,30.7,17.7,30.30,South,173,0.0,0.0,58,0.00,,---,0.00,VWS V14.00,2013-02-02 04:48:00,
2013-02-01 22:49:00,30.6,18.0,30.29,South,173,0.0,0.0,59,0.00,,---,0.00,VWS V14.00,2013-02-02 04:49:00,
2013-02-01 22:50:00,30.7,18.1,30.29,South,173,0.0,0.0,59,0.00,,---,0.00,VWS V14.00,2013-02-02 04:50:00,
2013-02-01 22:51:00,30.6,18.0,30.29,South,173,0.0,0.0,59,0.00,,---,0.00,VWS V14.00,2013-02-02 04:51:00,
2013-02-01 22:52:00,30.6,18.4,30.29,South,173,0.0,0.0,60,0.00,,---,0.00,VWS V14.00,2013-02-02 04:52:00,
2013-02-01 22:53:00,30.6,18.4,30.29,South,173,0.0,0.0,60,0.00,,---,0.00,VWS V14.00,2013-02-02 04:53:00,
2013-02-01 22:54:00,30.4,18.2,30.29,South,173,0.0,0.0,60,0.00,,---,0.00,VWS V14.00,2013-02-02 04:54:00,
2013-02-01 22:55:00,30.6,18.4,30.29,South,173,0.0,0.0,60,0.00,,---,0.00,VWS V14.00,2013-02-02 04:55:00,
2013-02-01 22:56:00,30.4,18.2,30.29,South,173,0.0,0.0,60,0.00,,---,0.00,VWS V14.00,2013-02-02 04:56:00,
2013-02-01 22:57:00,30.4,18.2,30.29,South,173,0.0,0.0,60,0.00,,---,0.00,VWS V14.00,2013-02-02 04:57:00,
2013-02-01 22:58:00,30.4,18.2,30.29,South,173,0.0,0.0,60,0.00,,---,0.00,VWS V14.00,2013-02-02 04:58:00,
2013-02-01 22:59:00,30.3,18.1,30.29,South,173,0.0,0.0,60,0.00,,---,0.00,VWS V14.00,2013-02-02 04:59:00,
2013-02-01 23:00:00,30.3,18.1,30.29,South,173,0.0,0.0,60,0.00,,---,0.00,VWS V14.00,2013-02-02 05:00:00,
2013-02-01 23:01:00,30.3,18.1,30.29,South,173,0.0,0.0,60,0.00,,---,0.00,VWS V14.00,2013-02-02 05:01:00,
2013-02-01 23:02:00,30.3,18.1,30.29,South,173,0.0,0.0,60,0.00,,---,0.00,VWS V14.00,2013-02-02 05:02:00,
2013-02-01 23:03:00,30.3,18.1,30.29,South,173,0.0,0.0,60,0.00,,---,0.00,VWS V14.00,2013-02-02 05:03:00,
2013-02-01 23:04:00,30.3,18.1,30.29,South,173,0.0,0.0,60,0.00,,---,0.00,VWS V14.00,2013-02-02 05:04:00,
2013-02-01 23:05:00,30.1,17.9,30.29,South,173,0.0,0.0,60,0.00,,---,0.00,VWS V14.00,2013-02-02 05:05:00,
2013-02-01 23:06:00,30.1,17.9,30.29,South,173,0.0,0.0,60,0.00,,---,0.00,VWS V14.00,2013-02-02 05:06:00,
2013-02-01 23:07:00,30.1,17.9,30.29,South,173,0.0,0.0,60,0.00,,---,0.00,VWS V14.00,2013-02-02 05:07:00,
2013-02-01 23:08:00,30.1,17.9,30.29,South,173,0.0,0.0,60,0.00,,---,0.00,VWS V14.00,2013-02-02 05:08:00,
2013-02-01 23:09:00,30.1,17.9,30.29,South,173,0.0,0.0,60,0.00,,---,0.00,VWS V14.00,2013-02-02 05:09:00,
2013-02-01 23:10:00,30.1,17.9,30.29,South,173,0.0,0.0,60,0.00,,---,0.00,VWS V14.00,2013-02-02 05:10:00,
2013-02-01 23:11:00,30.0,18.2,30.29,South,173,0.0,0.0,61,0.00,,---,0.00,VWS V14.00,2013-02-02 05:11:00,
2013-02-01 23:12:00,30.0,17.8,30.29,South,173,0.0,0.0,60,0.00,,---,0.00,VWS V14.00,2013-02-02 05:12:00,
2013-02-01 23:13:00,30.0,18.2,30.29,South,173,0.0,0.0,61,0.00,,---,0.00,VWS V14.00,2013-02-02 05:13:00,
2013-02-01 23:14:00,30.0,18.2,30.29,South,173,0.0,0.0,61,0.00,,---,0.00,VWS V14.00,2013-02-02 05:14:00,
2013-02-01 23:15:00,30.0,18.2,30.29,South,173,0.0,0.0,61,0.00,,---,0.00,VWS V14.00,2013-02-02 05:15:00,
2013-02-01 23:16:00,29.8,18.0,30.29,South,173,0.0,0.0,61,0.00,,---,0.00,VWS V14.00,2013-02-02 05:16:00,
2013-02-01 23:17:00,30.0,18.2,30.29,South,173,0.0,0.0,61,0.00,,---,0.00,VWS V14.00,2013-02-02 05:17:00,
2013-02-01 23:18:00,29.8,18.0,30.29,South,173,0.0,0.0,61,0.00,,---,0.00,VWS V14.00,2013-02-02 05:18:00,
2013-02-01 23:19:00,29.8,18.4,30.29,South,173,0.0,0.0,62,0.00,,---,0.00,VWS V14.00,2013-02-02 05:19:00,
2013-02-01 23:20:00,29.8,18.4,30.29,South,173,0.0,0.0,62,0.00,,---,0.00,VWS V14.00,2013-02-02 05:20:00,
2013-02-01 23:21:00,29.7,18.3,30.30,South,173,0.0,1.0,62,0.00,,---,0.00,VWS V14.00,2013-02-02 05:21:00,
2013-02-01 23:22:00,29.8,18.4,30.30,South,173,1.0,2.0,62,0.00,,---,0.00,VWS V14.00,2013-02-02 05:22:00,
2013-02-01 23:23:00,29.7,18.3,30.30,South,173,0.0,1.0,62,0.00,,---,0.00,VWS V14.00,2013-02-02 05:23:00,
2013-02-01 23:24:00,29.7,18.3,30.30,South,173,0.0,0.0,62,0.00,,---,0.00,VWS V14.00,2013-02-02 05:24:00,
2013-02-01 23:25:00,29.7,18.3,30.30,South,173,0.0,0.0,62,0.00,,---,0.00,VWS V14.00,2013-02-02 05:25:00,
2013-02-01 23:26:00,29.5,18.1,30.30,South,173,0.0,0.0,62,0.00,,---,0.00,VWS V14.00,2013-02-02 05:26:00,
2013-02-01 23:27:00,29.5,18.1,30.30,South,173,0.0,0.0,62,0.00,,---,0.00,VWS V14.00,2013-02-02 05:27:00,
2013-02-01 23:28:00,29.5,18.1,30.30,South,173,0.0,0.0,62,0.00,,---,0.00,VWS V14.00,2013-02-02 05:28:00,
2013-02-01 23:29:00,29.5,18.1,30.30,South,173,0.0,0.0,62,0.00,,---,0.00,VWS V14.00,2013-02-02 05:29:00,
2013-02-01 23:30:00,29.4,18.0,30.30,South,173,0.0,0.0,62,0.00,,---,0.00,VWS V14.00,2013-02-02 05:30:00,
2013-02-01 23:31:00,29.4,18.0,30.30,South,173,0.0,0.0,62,0.00,,---,0.00,VWS V14.00,2013-02-02 05:31:00,
2013-02-01 23:32:00,29.4,18.0,30.30,South,173,0.0,0.0,62,0.00,,---,0.00,VWS V14.00,2013-02-02 05:32:00,
2013-02-01 23:33:00,29.4,18.0,30.30,South,173,0.0,0.0,62,0.00,,---,0.00,VWS V14.00,2013-02-02 05:33:00,
2013-02-01 23:34:00,29.3,18.3,30.30,South,173,0.0,0.0,63,0.00,,---,0.00,VWS V14.00,2013-02-02 05:34:00,
2013-02-01 23:35:00,29.3,18.3,30.30,South,173,0.0,0.0,63,0.00,,---,0.00,VWS V14.00,2013-02-02 05:35:00,
2013-02-01 23:36:00,29.1,18.5,30.30,South,173,0.0,0.0,64,0.00,,---,0.00,VWS V14.00,2013-02-02 05:36:00,
2013-02-01 23:37:00,29.3,18.6,30.30,South,173,0.0,0.0,64,0.00,,---,0.00,VWS V14.00,2013-02-02 05:37:00,
2013-02-01 23:38:00,29.1,18.5,30.30,South,173,0.0,0.0,64,0.00,,---,0.00,VWS V14.00,2013-02-02 05:38:00,
2013-02-01 23:39:00,29.1,18.1,30.30,South,173,0.0,0.0,63,0.00,,---,0.00,VWS V14.00,2013-02-02 05:39:00,
2013-02-01 23:40:00,29.1,18.5,30.30,South,173,0.0,0.0,64,0.00,,---,0.00,VWS V14.00,2013-02-02 05:40:00,
2013-02-01 23:41:00,29.1,18.8,30.30,South,173,0.0,0.0,65,0.00,,---,0.00,VWS V14.00,2013-02-02 05:41:00,
2013-02-01 23:42:00,29.1,18.5,30.30,South,173,0.0,0.0,64,0.00,,---,0.00,VWS V14.00,2013-02-02 05:42:00,
2013-02-01 23:43:00,29.1,18.8,30.30,South,173,0.0,0.0,65,0.00,,---,0.00,VWS V14.00,2013-02-02 05:43:00,
2013-02-01 23:44:00,29.1,18.8,30.30,South,173,1.0,1.0,65,0.00,,---,0.00,VWS V14.00,2013-02-02 05:44:00,
2013-02-01 23:45:00,29.0,18.7,30.29,South,173,1.0,1.0,65,0.00,,---,0.00,VWS V14.00,2013-02-02 05:45:00,
2013-02-01 23:46:00,28.8,18.5,30.29,South,173,4.0,4.0,65,0.00,,---,0.00,VWS V14.00,2013-02-02 05:46:00,
2013-02-01 23:47:00,28.8,18.5,30.29,South,173,2.0,3.0,65,0.00,,---,0.00,VWS V14.00,2013-02-02 05:47:00,
2013-02-01 23:48:00,28.8,18.5,30.29,South,173,3.0,4.0,65,0.00,,---,0.00,VWS V14.00,2013-02-02 05:48:00,
2013-02-01 23:49:00,28.7,18.8,30.29,South,173,3.0,4.0,66,0.00,,---,0.00,VWS V14.00,2013-02-02 05:49:00,
2013-02-01 23:50:00,28.7,18.8,30.29,South,173,3.0,3.0,66,0.00,,---,0.00,VWS V14.00,2013-02-02 05:50:00,
2013-02-01 23:51:00,28.4,18.5,30.29,South,173,0.0,1.0,66,0.00,,---,0.00,VWS V14.00,2013-02-02 05:51:00,
2013-02-01 23:52:00,28.5,18.6,30.29,South,173,0.0,2.0,66,0.00,,---,0.00,VWS V14.00,2013-02-02 05:52:00,
2013-02-01 23:53:00,28.4,18.5,30.29,South,173,2.0,2.0,66,0.00,,---,0.00,VWS V14.00,2013-02-02 05:53:00,
2013-02-01 23:54:00,28.4,18.5,30.29,South,173,0.0,2.0,66,0.00,,---,0.00,VWS V14.00,2013-02-02 05:54:00,
2013-02-01 23:55:00,28.4,18.5,30.29,South,173,0.0,1.0,66,0.00,,---,0.00,VWS V14.00,2013-02-02 05:55:00,
2013-02-01 23:56:00,28.4,18.5,30.30,South,173,0.0,0.0,66,0.00,,---,0.00,VWS V14.00,2013-02-02 05:56:00,
2013-02-01 23:57:00,28.4,18.5,30.30,South,173,0.0,0.0,66,0.00,,---,0.00,VWS V14.00,2013-02-02 05:57:00,
2013-02-01 23:58:00,28.4,18.5,30.30,South,173,0.0,0.0,66,0.00,,---,0.00,VWS V14.00,2013-02-02 05:58:00,
2013-02-01 23:59:00,28.4,18.5,30.30,South,173,0.0,0.0,66,0.00,,---,0.00,VWS V14.00,2013-02-02 05:59:00,